[[{"header":{"parameterUnit":"m.s-1","parameterCategory":1,"la1":30.6,"la2":29.2853,"lo1":-89.7004,"lo2":-87.6739,"dy":0.0162,"dx":0.0183,"nx":112,"ny":82,"refTime":"2023-03-31T06:00:00:Z","depth":0,"parameterNumber":2,"parameterNumberName":"U-component_of_WINDS"},"data":[0.0,0.0,0.0,0.0,0.0,0.0,0.0,0.0,0.0,0.0,0.0,0.0,0.0,0.0,0.0,0.0,0.0,0.0,0.0,0.0,0.0,0.0,0.0,0.0,0.0,0.0,0.0,0.0,0.0,0.0,0.0,0.0,0.0,0.0,0.0,0.0,0.0,0.0,0.0,0.0,0.0,0.0,0.0,0.0,0.0,0.0,0.0,0.0,0.0,0.0,0.0,0.0,0.0,0.0,0.0,0.0,0.0,0.0,0.0,0.0,0.0,0.0,0.0,0.0,0.0,0.0,0.0,0.0,0.0,0.0,0.0,0.0,0.0,0.0,0.0,0.0,0.0,0.0,0.0,0.0,0.0,0.0,0.0,0.0,0.0,0.0,0.0,0.0,0.0,0.0,-1.4725,-1.876,-2.4239,-2.7893,-2.8827,-2.8935,-2.8583,-2.7893,0.0,0.0,0.0,0.0,0.0,0.0,0.0,0.0,0.0,0.0,0.0,0.0,0.0,0.0,0.0,0.0,0.0,0.0,0.0,0.0,0.0,0.0,0.0,0.0,0.0,0.0,0.0,0.0,0.0,0.0,0.0,0.0,0.0,0.0,0.0,0.0,0.0,0.0,0.0,0.0,0.0,0.0,0.0,0.0,0.0,0.0,0.0,0.0,0.0,0.0,0.0,0.0,0.0,0.0,0.0,0.0,0.0,0.0,0.0,0.0,0.0,0.0,0.0,0.0,0.0,0.0,0.0,0.0,0.0,0.0,0.0,0.0,0.0,0.0,0.0,0.0,0.0,0.0,0.0,0.0,0.0,0.0,0.0,0.0,0.0,0.0,0.0,0.0,0.0,0.0,0.0,0.0,0.0,0.0,0.0,0.0,0.0,0.0,0.0,0.0,0.0,0.0,0.0,0.0,-1.7254,-2.2315,-2.5778,-2.8457,-3.0424,-2.9909,-2.9364,-2.9189,0.0,0.0,0.0,0.0,0.0,0.0,0.0,0.0,0.0,0.0,0.0,0.0,0.0,0.0,0.0,0.0,0.0,0.0,0.0,0.0,0.0,0.0,0.0,0.0,0.0,0.0,0.0,0.0,0.0,0.0,0.0,0.0,0.0,0.0,0.0,0.0,0.0,0.0,0.0,0.0,0.0,0.0,0.0,0.0,0.0,0.0,0.0,0.0,0.0,0.0,0.0,0.0,0.0,0.0,0.0,0.0,0.0,0.0,0.0,0.0,0.0,0.0,0.0,0.0,0.0,0.0,0.0,0.0,0.0,0.0,0.0,0.0,0.0,0.0,0.0,0.0,0.0,0.0,0.0,0.0,0.0,0.0,0.0,0.0,0.0,0.0,0.0,0.0,0.0,0.0,0.0,0.0,0.0,0.0,0.0,0.0,0.0,0.0,0.0,0.0,0.0,0.0,0.0,-1.634,-1.9487,-2.3079,-2.6121,-2.8508,-2.9988,-3.0232,-2.9912,-2.9069,-2.7817,0.0,0.0,0.0,0.0,0.0,0.0,0.0,0.0,0.0,0.0,0.0,0.0,0.0,0.0,0.0,0.0,0.0,0.0,0.0,0.0,0.0,0.0,0.0,0.0,0.0,0.0,0.0,0.0,0.0,0.0,0.0,0.0,0.0,0.0,0.0,0.0,0.0,0.0,0.0,0.0,0.0,0.0,0.0,0.0,0.0,0.0,0.0,0.0,0.0,0.0,0.0,0.0,0.0,0.0,0.0,0.0,0.0,0.0,0.0,0.0,0.0,0.0,0.0,0.0,0.0,0.0,0.0,0.0,0.0,0.0,0.0,0.0,0.0,0.0,0.0,0.0,0.0,0.0,0.0,0.0,0.0,0.0,0.0,0.0,0.0,0.0,0.0,0.0,0.0,0.0,0.0,0.0,0.0,0.0,0.0,0.0,0.0,0.0,0.0,0.0,0.0,0.0,-1.9124,-2.1552,-2.3742,-2.6551,-2.8667,-2.9676,-3.0529,-3.0502,-2.912,-2.8422,0.0,0.0,0.0,0.0,0.0,0.0,0.0,0.0,0.0,0.0,0.0,0.0,0.0,0.0,0.0,0.0,0.0,0.0,0.0,0.0,0.0,0.0,0.0,0.0,0.0,0.0,0.0,0.0,0.0,0.0,0.0,0.0,0.0,0.0,0.0,0.0,0.0,0.0,0.0,0.0,0.0,0.0,0.0,0.0,0.0,0.0,0.0,0.0,0.0,0.0,0.0,0.0,0.0,0.0,0.0,0.0,0.0,0.0,0.0,0.0,0.0,0.0,0.0,0.0,0.0,0.0,0.0,0.0,0.0,0.0,0.0,0.0,0.0,0.0,0.0,0.0,0.0,0.0,0.0,0.0,0.0,0.0,0.0,0.0,0.0,0.0,0.0,0.0,0.0,0.0,0.0,0.0,0.0,0.0,0.0,0.0,0.0,0.0,0.0,0.0,0.0,0.0,-2.0998,-2.3466,-2.5861,-2.7704,-2.9276,-3.0659,-3.1324,-3.1158,-3.0158,-2.9201,0.0,0.0,0.0,0.0,0.0,0.0,0.0,0.0,0.0,0.0,0.0,0.0,0.0,0.0,0.0,0.0,0.0,0.0,0.0,0.0,0.0,0.0,0.0,0.0,0.0,0.0,0.0,0.0,0.0,0.0,0.0,0.0,0.0,0.0,0.0,0.0,0.0,0.0,0.0,0.0,0.0,0.0,0.0,0.0,0.0,0.0,0.0,0.0,0.0,0.0,0.0,0.0,0.0,0.0,0.0,0.0,0.0,0.0,0.0,0.0,0.0,0.0,0.0,0.0,0.0,0.0,0.0,0.0,0.0,0.0,0.0,0.0,0.0,0.0,0.0,0.0,0.0,0.0,0.0,0.0,0.0,0.0,0.0,0.0,0.0,0.0,0.0,0.0,0.0,0.0,0.0,0.0,0.0,0.0,0.0,0.0,0.0,0.0,0.0,0.0,0.0,0.0,-2.1841,-2.3731,-2.5753,-2.7651,-2.9188,-3.0277,-3.1168,-3.1003,-2.9326,0.0,0.0,0.0,0.0,0.0,0.0,0.0,0.0,0.0,0.0,0.0,0.0,0.0,0.0,0.0,0.0,0.0,0.0,0.0,0.0,0.0,0.0,0.0,0.0,0.0,0.0,0.0,0.0,0.0,0.0,0.0,0.0,0.0,0.0,0.0,0.0,0.0,0.0,0.0,0.0,0.0,0.0,0.0,0.0,0.0,0.0,0.0,0.0,0.0,0.0,0.0,0.0,0.0,0.0,0.0,0.0,0.0,0.0,0.0,0.0,0.0,0.0,0.0,0.0,0.0,0.0,0.0,0.0,0.0,0.0,0.0,0.0,0.0,0.0,0.0,0.0,0.0,0.0,0.0,0.0,0.0,0.0,0.0,0.0,0.0,0.0,0.0,0.0,0.0,0.0,0.0,0.0,0.0,0.0,0.0,0.0,0.0,0.0,0.0,0.0,0.0,0.0,-2.0889,-2.2504,-2.422,-2.589,-2.7629,-2.9165,-3.0229,-3.0882,-3.0633,-2.9235,0.0,0.0,0.0,0.0,0.0,0.0,0.0,0.0,0.0,0.0,0.0,0.0,0.0,0.0,0.0,0.0,0.0,0.0,0.0,0.0,0.0,0.0,0.0,0.0,0.0,0.0,0.0,0.0,0.0,0.0,0.0,0.0,0.0,0.0,0.0,0.0,0.0,0.0,0.0,0.0,0.0,0.0,0.0,0.0,0.0,0.0,0.0,0.0,0.0,0.0,0.0,0.0,0.0,0.0,0.0,0.0,0.0,0.0,0.0,0.0,0.0,0.0,0.0,0.0,0.0,0.0,0.0,0.0,0.0,0.0,0.0,0.0,0.0,0.0,0.0,0.0,0.0,0.0,0.0,0.0,0.0,0.0,0.0,0.0,0.0,0.0,0.0,0.0,0.0,0.0,0.0,0.0,0.0,0.0,0.0,0.0,0.0,0.0,0.0,0.0,0.0,0.0,-2.1293,-2.3163,-2.5007,-2.6399,-2.7843,-2.9304,-3.0733,-3.043,-3.017,0.0,0.0,0.0,0.0,0.0,0.0,0.0,0.0,0.0,0.0,0.0,0.0,0.0,0.0,0.0,0.0,0.0,0.0,0.0,0.0,0.0,0.0,0.0,0.0,0.0,0.0,0.0,0.0,0.0,0.0,0.0,0.0,0.0,0.0,0.0,0.0,0.0,0.0,0.0,0.0,0.0,0.0,0.0,0.0,0.0,0.0,0.0,0.0,0.0,0.0,0.0,0.0,0.0,0.0,0.0,0.0,0.0,0.0,0.0,0.0,0.0,0.0,0.0,0.0,0.0,0.0,0.0,0.0,0.0,0.0,0.0,0.0,0.0,0.0,0.0,0.0,0.0,0.0,0.0,0.0,0.0,0.0,0.0,0.0,0.0,0.0,0.0,0.0,0.0,0.0,0.0,0.0,0.0,0.0,0.0,0.0,0.0,0.0,0.0,0.0,0.0,0.0,0.0,-2.2274,-2.3897,-2.5093,-2.549,-2.7084,-2.8344,-2.8768,-2.8956,-2.8866,-2.8121,0.0,0.0,0.0,0.0,0.0,0.0,0.0,0.0,0.0,0.0,0.0,0.0,0.0,0.0,0.0,0.0,0.0,0.0,0.0,0.0,0.0,0.0,0.0,0.0,0.0,0.0,0.0,0.0,0.0,0.0,0.0,0.0,0.0,0.0,0.0,0.0,0.0,0.0,0.0,0.0,0.0,0.0,0.0,0.0,0.0,0.0,0.0,0.0,0.0,0.0,0.0,0.0,0.0,0.0,0.0,0.0,0.0,0.0,0.0,0.0,0.0,0.0,0.0,0.0,0.0,0.0,0.0,0.0,0.0,0.0,0.0,0.0,0.0,0.0,0.0,0.0,0.0,0.0,0.0,0.0,0.0,0.0,0.0,0.0,0.0,0.0,0.0,0.0,0.0,0.0,0.0,0.0,0.0,0.0,0.0,0.0,0.0,0.0,0.0,0.0,0.0,0.0,-2.3374,-2.4068,-2.4873,-2.5668,-2.6732,-2.7592,-2.8141,-2.8136,-2.784,-2.7284,0.0,0.0,0.0,0.0,0.0,0.0,0.0,0.0,0.0,0.0,0.0,0.0,0.0,0.0,0.0,0.0,0.0,0.0,0.0,0.0,0.0,0.0,0.0,0.0,0.0,0.0,0.0,0.0,0.0,0.0,0.0,0.0,0.0,0.0,0.0,0.0,0.0,0.0,0.0,0.0,0.0,0.0,0.0,0.0,0.0,0.0,0.0,0.0,0.0,0.0,0.0,0.0,0.0,0.0,0.0,0.0,0.0,0.0,0.0,0.0,0.0,0.0,0.0,0.0,0.0,0.0,0.0,0.0,0.0,0.0,0.0,0.0,0.0,0.0,0.0,0.0,0.0,0.0,0.0,0.0,0.0,0.0,0.0,0.0,0.0,0.0,0.0,0.0,0.0,0.0,0.0,0.0,0.0,0.0,0.0,0.0,0.0,0.0,0.0,0.0,0.0,0.0,-2.4326,-2.4121,-2.4554,-2.6249,-2.6476,-2.7024,-2.8276,-2.761,-2.7146,-2.7105,0.0,0.0,0.0,0.0,0.0,0.0,0.0,0.0,0.0,0.0,0.0,0.0,0.0,0.0,0.0,0.0,0.0,0.0,0.0,0.0,0.0,0.0,0.0,0.0,0.0,0.0,0.0,0.0,0.0,0.0,0.0,0.0,0.0,0.0,0.0,0.0,0.0,0.0,0.0,0.0,0.0,0.0,0.0,0.0,0.0,0.0,0.0,0.0,0.0,0.0,0.0,0.0,0.0,0.0,0.0,0.0,0.0,0.0,0.0,0.0,-2.059,-2.0223,0.0,0.0,0.0,0.0,0.0,0.0,0.0,0.0,0.0,0.0,0.0,0.0,0.0,0.0,0.0,0.0,0.0,0.0,0.0,0.0,0.0,0.0,0.0,0.0,0.0,0.0,0.0,0.0,0.0,0.0,0.0,0.0,0.0,0.0,0.0,0.0,0.0,0.0,0.0,0.0,-2.4443,-2.4639,-2.4957,-2.5417,-2.5658,-2.6001,-2.6274,-2.6515,-2.6379,-2.6024,-2.6153,0.0,0.0,0.0,0.0,0.0,0.0,0.0,0.0,0.0,0.0,0.0,0.0,0.0,0.0,0.0,0.0,0.0,0.0,0.0,0.0,0.0,0.0,0.0,0.0,0.0,0.0,0.0,0.0,0.0,0.0,0.0,0.0,0.0,0.0,0.0,0.0,0.0,0.0,0.0,0.0,0.0,0.0,0.0,0.0,0.0,0.0,0.0,0.0,0.0,0.0,0.0,0.0,0.0,0.0,0.0,0.0,0.0,0.0,0.0,-2.264,-2.2172,0.0,0.0,0.0,0.0,0.0,0.0,0.0,0.0,0.0,0.0,0.0,0.0,0.0,0.0,0.0,0.0,0.0,0.0,0.0,0.0,0.0,0.0,0.0,0.0,0.0,0.0,0.0,0.0,0.0,0.0,0.0,0.0,0.0,0.0,0.0,0.0,0.0,0.0,0.0,0.0,-2.5029,-2.5059,-2.5146,-2.5371,-2.5791,-2.6055,-2.6055,-2.6445,-2.6592,-2.6367,-2.6377,0.0,0.0,0.0,0.0,0.0,0.0,0.0,0.0,0.0,0.0,0.0,0.0,0.0,0.0,0.0,0.0,0.0,0.0,0.0,0.0,0.0,0.0,0.0,0.0,0.0,0.0,0.0,0.0,0.0,0.0,0.0,0.0,0.0,0.0,0.0,0.0,0.0,0.0,0.0,0.0,0.0,0.0,0.0,0.0,0.0,0.0,0.0,0.0,0.0,0.0,0.0,0.0,0.0,-2.2369,-2.3354,-2.3744,-2.4948,-2.546,-2.5381,-2.483,-2.44,-2.4078,-2.3908,0.0,0.0,0.0,0.0,0.0,0.0,0.0,0.0,0.0,0.0,0.0,0.0,0.0,0.0,0.0,0.0,0.0,0.0,0.0,0.0,0.0,0.0,-2.5226,-2.5557,-2.6029,-2.6092,-2.4889,0.0,0.0,0.0,0.0,0.0,0.0,0.0,0.0,0.0,0.0,0.0,-2.5537,-2.543,-2.5439,-2.581,-2.624,-2.6494,-2.6494,-2.6953,-2.7139,-2.6914,-2.6787,-2.6621,0.0,0.0,0.0,0.0,0.0,0.0,0.0,0.0,0.0,0.0,0.0,0.0,0.0,0.0,0.0,0.0,0.0,0.0,0.0,0.0,0.0,0.0,0.0,0.0,0.0,0.0,0.0,0.0,0.0,0.0,0.0,0.0,0.0198,-0.0797,0.0,0.0,0.0,0.0,0.0,0.0,0.0,0.0,0.0,0.0,0.0,0.0,0.0,-1.7589,-1.9898,-2.1076,-2.22,-2.3362,-2.4811,-2.559,-2.565,-2.6959,-2.7801,-2.8099,-2.8037,0.0,-2.5431,-2.4851,0.0,0.0,0.0,0.0,0.0,0.0,0.0,0.0,0.0,0.0,0.0,0.0,0.0,0.0,0.0,0.0,0.0,0.0,0.0,0.0,0.0,0.0,-2.4967,-2.5518,-2.6014,-2.6357,-2.6141,-2.6209,-2.6141,-2.5655,-2.543,-2.5225,0.0,0.0,0.0,0.0,0.0,0.0,-2.5195,-2.5771,-2.624,-2.6299,-2.668,-2.6934,-2.6934,-2.7666,-2.7656,-2.6543,-2.7461,-2.7539,-2.6435,-2.5409,0.0,0.0,0.0,0.0,0.0,0.0,0.0,0.0,0.0,0.0,0.0,0.0,0.0,0.0,0.0,0.0,0.0,0.0,0.0,0.0,0.0,0.0,0.0,0.0,0.0,0.0,0.0,0.0,0.0,-0.0292,-0.1692,-0.3024,-0.4226,-0.514,0.0,0.0,0.0,0.0,0.0,0.0,0.0,0.0,0.0,-1.894,-1.9543,-2.0687,-2.2628,-2.3731,-2.4538,-2.5053,-2.6963,-2.7874,-2.7884,-2.9321,-3.0156,-3.0248,-3.0248,-2.9812,-2.889,-2.6814,-2.5664,-2.5117,0.0,0.0,0.0,0.0,-2.3438,-2.3547,-2.3925,-2.4179,-2.4339,-2.5015,0.0,0.0,0.0,0.0,0.0,0.0,0.0,-2.4569,-2.4967,-2.5508,-2.6112,-2.6406,-2.6973,-2.7461,-2.7461,-2.7275,-2.6836,-2.5918,-2.5967,-2.6006,-2.5527,-2.5439,0.0,0.0,0.0,-2.5664,-2.5469,-2.5996,-2.6387,-2.6387,-2.6982,-2.7383,-2.7383,-2.7939,-2.8057,-2.749,-2.7529,-2.7432,-2.7119,-2.5806,-2.4808,0.0,0.0,0.0,0.0,0.0,0.0,0.0,0.0,0.0,0.0,0.0,0.0,0.0,0.0,0.0,0.0,0.0,0.0,0.0,0.0,0.0,0.0,0.0,0.0,0.0,0.0,0.0,0.0,-0.2752,-0.4287,-0.541,-0.7042,-0.7986,0.0,0.0,0.0,0.0,0.0,0.0,-1.7728,-1.811,-1.9524,-2.2123,-2.2739,-2.3758,-2.5354,-2.6299,-2.6881,-2.7282,-2.9052,-2.9937,-2.9947,-3.1411,-3.1982,-3.1982,-3.1982,-3.1982,-3.1814,-2.9083,-2.7412,-2.6388,-2.6038,-2.5153,-2.4227,-2.4436,-2.4484,-2.4562,-2.5199,-2.5479,-2.5518,-2.6172,-2.5964,-2.5458,-2.5237,0.0,0.0,0.0,0.0,-2.5039,-2.5333,-2.609,-2.6855,-2.6855,-2.7422,-2.7969,-2.7969,-2.7725,-2.7187,-2.6113,-2.6328,-2.6445,-2.5693,-2.5566,0.0,-2.5566,-2.5664,-2.5693,-2.5586,-2.6055,-2.6426,-2.6533,-2.7217,-2.7715,-2.7822,-2.8213,-2.8359,-2.8028,-2.7734,-2.7282,-2.6855,-2.5463,-2.42,-2.3073,0.0,0.0,0.0,0.0,0.0,0.0,0.0,0.0,0.0,0.0,0.0,0.0,0.0,0.0,0.0,0.0,0.0,0.0,0.0,0.0,0.0,0.0,0.0,0.0,0.0,0.0,0.0,0.0,0.0,-0.8089,-1.0672,0.0,0.0,0.0,0.0,-1.6936,-1.7507,-1.8902,-2.1648,-2.2206,-2.3358,-2.5305,-2.5452,-2.6255,-2.8074,-2.8533,-2.937,-3.0678,-3.12,-3.144,-3.1542,-3.2577,-3.3101,-3.3101,-3.3101,-3.3101,-3.2955,-3.1329,-2.9821,-2.8452,-2.8007,-2.6526,-2.4793,-2.5411,-2.546,-2.5363,-2.5616,-2.5986,-2.6328,-2.6377,-2.6168,-2.5794,-2.4996,-2.4822,0.0,0.0,-2.5235,-2.5333,-2.5635,-2.6074,-2.6426,-2.6426,-2.6758,-2.708,-2.708,-2.706,-2.6914,-2.6445,-2.6055,-2.5654,-2.5176,0.0,-2.5098,-2.5098,-2.5469,-2.5586,-2.5156,-2.585,-2.6543,-2.6943,-2.7393,-2.7822,-2.8232,-2.8643,-2.8427,-2.7295,-2.8174,-2.7511,-2.4754,-2.3939,-2.2634,-2.0901,-1.9085,0.0,0.0,0.0,0.0,0.0,0.0,0.0,0.0,0.0,0.0,0.0,0.0,0.0,0.0,0.0,0.0,0.0,0.0,0.0,0.0,0.0,0.0,0.0,0.0,0.0,0.0,0.0,0.0,-1.1433,-1.3986,0.0,-1.5921,-1.7253,-1.8739,-2.0336,-2.0948,-2.212,-2.3962,-2.4424,-2.5448,-2.7322,-2.6929,-2.7749,-2.9995,-2.9651,-3.019,-3.1323,-3.2197,-3.2588,-3.27,-3.3709,-3.4213,-3.4213,-3.4213,-3.4024,-3.3705,-3.3118,-3.135,-2.897,-2.8514,-2.7279,-2.58,-2.5684,-2.5635,-2.5674,-2.6055,-2.6074,-2.5967,-2.5967,-2.5869,-2.5712,-2.5412,-2.5227,-2.5235,-2.544,-2.543,-2.5333,-2.5635,-2.6064,-2.6387,-2.6387,-2.6709,-2.7012,-2.7012,-2.7012,-2.6894,-2.6465,-2.626,-2.6016,-2.5576,-2.5498,-2.5498,-2.5498,-2.5635,-2.5684,-2.5518,-2.6025,-2.6445,-2.6592,-2.6992,-2.7305,-2.7461,-2.7389,-2.7246,-2.6833,-2.6739,-2.6135,-2.4673,-2.3278,-2.199,-2.0506,-1.9042,-1.8258,0.0,0.0,0.0,0.0,0.0,0.0,0.0,0.0,0.0,0.0,0.0,0.0,0.0,0.0,0.0,0.0,0.0,0.0,0.0,0.0,0.0,0.0,0.0,0.0,0.0,0.0,-1.2399,-1.4594,-1.6952,-1.8683,-1.942,-2.0846,-2.2282,-2.3533,-2.3967,-2.4738,-2.5862,-2.6218,-2.7119,-2.8818,-2.8415,-2.9271,-3.1695,-3.1197,-3.1564,-3.2689,-3.34,-3.3709,-3.3808,-3.4519,-3.4823,-3.4823,-3.4643,-3.4366,-3.403,-3.3861,-3.2298,-2.9995,-2.9377,-2.7918,-2.6172,-2.6172,-2.5986,-2.5801,-2.624,-2.6103,-2.5742,-2.5742,-2.5742,-2.5742,-2.5742,-2.5538,-2.544,-2.5645,-2.5538,-2.544,-2.5635,-2.5947,-2.6172,-2.6172,-2.6377,-2.6582,-2.6582,-2.6582,-2.6504,-2.6221,-2.6289,-2.625,-2.581,-2.5742,-2.5684,-2.5722,-2.5751,-2.5741,-2.5643,-2.5993,-2.6177,-2.6177,-2.6429,-2.6652,-2.6686,-2.6593,-2.6218,-2.5657,-2.5284,-2.4452,-2.2891,-2.1955,-2.0794,-1.9437,-1.8519,-1.8002,-1.7889,0.0,0.0,0.0,0.0,0.0,0.0,0.0,0.0,0.0,0.0,0.0,0.0,0.0,0.0,0.0,0.0,0.0,0.0,0.0,0.0,0.0,0.0,0.0,-0.9548,-1.2972,-1.6014,-1.7522,-1.9678,-2.1813,-2.3848,-2.4257,-2.4896,-2.6305,-2.6411,-2.672,-2.7256,-2.7738,-2.8581,-2.9922,-2.9922,-3.0949,-3.3201,-3.3189,-3.3697,-3.4823,-3.4811,-3.4811,-3.4823,-3.4823,-3.4823,-3.4775,-3.4282,-3.4042,-3.3958,-3.3489,-3.2583,-3.146,-3.05,-2.83,-2.583,-2.665,-2.6426,-2.5771,-2.6182,-2.6055,-2.5713,-2.5703,-2.5693,-2.5693,-2.5693,-2.5703,-2.5713,-2.5713,-2.5732,-2.5645,-2.5645,-2.5645,-2.5645,-2.5645,-2.5645,-2.5645,-2.5742,-2.5742,-2.5742,-2.5645,-2.6074,-2.623,-2.581,-2.5732,-2.5771,-2.5871,-2.5829,0.0,-2.5519,-2.5729,-2.5839,-2.5657,-2.5867,-2.604,-2.6218,-2.6134,-2.5423,-2.3785,-2.3826,-2.2605,-1.9517,-1.9598,-1.9095,-1.7569,-1.7301,-1.7301,-1.7582,0.0,0.0,0.0,0.0,0.0,0.0,0.0,0.0,0.0,0.0,0.0,0.0,0.0,0.0,0.0,0.0,0.0,0.0,0.0,0.0,0.0,0.0,-1.348,-1.3437,-1.5982,-1.8635,-2.043,-2.3001,-2.48,-2.5275,-2.5922,-2.6491,-2.684,-2.7046,-2.7261,-2.768,-2.8009,-2.9102,-3.1062,-3.0338,-3.1359,-3.4323,-3.3238,-3.3348,-3.4823,-3.4438,-3.4451,-3.4823,-3.4823,-3.4619,-3.427,-3.4511,-3.397,-3.2935,-3.3188,-3.2239,-3.0526,-2.9869,-2.8487,-2.6723,-2.5905,-2.5459,-2.5225,-2.5029,-2.5088,-2.5195,-2.4883,-2.4775,-2.4691,-2.4598,-2.4726,-2.4986,-2.4957,-2.5189,-2.544,-2.544,-2.544,-2.544,-2.544,-2.544,-2.544,-2.5635,-2.5742,-2.5635,-2.544,-2.5527,-2.5575,-2.5655,-2.5538,-2.5381,-2.5487,-2.5309,-2.5102,-2.5102,-2.5102,-2.5315,-2.5519,-2.5547,-2.5695,-2.5708,-2.462,-2.3672,-2.2874,-2.179,-2.0408,-1.874,-1.874,-1.8347,-1.7365,-1.7402,-1.7502,0.0,0.0,0.0,0.0,0.0,0.0,0.0,0.0,0.0,0.0,0.0,0.0,0.0,0.0,0.0,0.0,0.0,0.0,0.0,0.0,0.0,0.0,-1.367,-1.5581,-1.7028,-1.8732,-2.0894,-2.3466,-2.5286,-2.6364,-2.6839,-2.7191,-2.7363,-2.7287,-2.7309,-2.753,-2.7853,-2.8174,-2.9323,-3.1575,-3.0959,-3.1971,-3.4726,-3.3608,-3.3502,-3.4487,-3.397,-3.3885,-3.4186,-3.4186,-3.4126,-3.4054,-3.4138,-3.3669,-3.2815,-3.2671,-3.1812,-3.043,0.0,0.0,0.0,0.0,-2.4891,-2.4502,-2.4238,-2.4316,-2.4492,-2.4238,-2.4185,-2.4268,-2.4368,-2.4421,-2.4555,-2.491,-2.514,-2.5333,-2.5333,-2.5333,-2.5235,-2.5137,-2.5137,-2.5137,-2.5333,-2.5333,-2.5333,-2.5137,-2.5137,0.0,-2.5333,-2.5235,-2.5194,-2.5159,-2.4681,-2.4272,-2.4172,-2.4272,-2.4299,-2.4263,-2.4783,-2.5092,-2.4992,-2.3663,0.0,0.0,0.0,-1.8972,-1.7989,-1.8016,0.0,0.0,0.0,-1.7582,-1.7582,-1.7716,0.0,0.0,-1.7776,-1.7936,0.0,0.0,0.0,0.0,0.0,0.0,0.0,0.0,0.0,0.0,0.0,0.0,0.0,0.0,0.0,0.0,-1.5314,-1.6937,-2.0005,-2.1028,-2.2805,-2.615,-2.671,-2.7217,-2.8217,-2.7985,-2.7694,-2.7595,-2.7431,-2.753,-2.7853,0.0,0.0,0.0,0.0,-3.2566,-3.4545,-3.4114,-3.3958,-3.3945,-3.344,-3.3236,-3.3284,-3.3284,-3.3501,-3.3837,-3.3392,-3.3164,-3.3032,-3.1997,-3.1228,-3.0613,-2.9683,-2.8408,-2.6866,-2.557,-2.4563,-2.3779,-2.373,0.0,0.0,-2.373,-2.3793,-2.3986,-2.4381,-2.4241,-2.4269,-2.488,-2.5091,-2.5101,-2.5149,-2.5168,-2.5168,-2.4865,-2.4796,-2.4833,-2.4932,-2.4932,-2.4922,-2.4777,-2.4805,-2.4815,-2.4777,-2.4805,-2.4857,-2.5004,-2.4242,-2.3425,-2.3117,-2.3323,-2.3312,-2.2621,-2.3591,0.0,-2.4108,-2.2846,-2.1644,-2.0277,-1.922,-1.8101,-1.7203,-1.7382,-1.7528,-1.7528,-1.7562,-1.7582,-1.7582,-1.7862,-1.8029,-1.8096,-1.813,-1.827,0.0,0.0,0.0,0.0,0.0,0.0,0.0,0.0,0.0,0.0,0.0,0.0,0.0,0.0,0.0,-1.4529,-1.6254,-1.8104,-2.0751,-2.2306,-2.3908,-2.5925,-2.7505,-2.8364,-2.7948,-2.7811,-2.7575,-2.7166,-2.7253,-2.753,-2.7853,-2.8174,-2.891,-3.0235,-3.1165,-3.1995,-3.2897,-3.3197,-3.344,-3.3428,-3.2899,0.0,-3.3284,-3.3284,-3.3116,-3.2791,-3.2695,-3.2394,-3.1925,-3.1288,-3.0458,-2.9558,-2.9106,-2.7544,-2.5539,-2.5367,-2.4652,-2.374,-2.3389,-2.3496,-2.373,-2.3379,-2.3144,-2.3053,-2.2872,-2.2947,0.0,-2.3523,-2.3824,-2.4004,-2.4153,-2.4343,-2.4449,-2.415,-2.4296,-2.4637,-2.4833,-2.4932,-2.4739,-2.4216,-2.4315,-2.4436,-2.3906,-2.4217,-2.4557,-2.4641,-2.4253,-2.3754,-2.273,-2.3444,-2.3743,-2.3049,-2.3177,-2.3382,-2.3279,-2.1242,-1.9706,-1.9179,-1.7816,-1.6988,-1.6794,-1.7074,-1.7235,-1.7235,-1.7462,-1.7582,-1.7582,-1.7642,-1.7929,-1.841,-1.8644,-1.8657,0.0,0.0,0.0,0.0,0.0,0.0,0.0,0.0,0.0,0.0,0.0,-0.8913,0.0,0.0,-1.3391,-1.5853,-1.739,-1.8879,-2.0772,-2.2156,-2.3764,-2.5758,-2.741,-2.8132,-2.7526,-2.7471,-2.7335,-2.6837,-2.7107,-2.7314,-2.7422,-2.7853,-2.8581,-2.9702,-3.0724,-3.1606,-3.2357,-3.27,-3.2899,-3.2887,-3.2346,-3.2214,-3.2466,-3.2202,-3.2238,-3.2491,-3.2202,-3.2082,-3.2022,-3.1204,-3.0143,-2.8925,-2.8842,-2.7428,-2.5423,-2.5509,-2.4656,-2.3437,-2.3213,-2.3281,-2.3428,-2.3213,-2.2882,-2.2568,-2.2678,-2.2616,-2.2594,-2.3178,-2.3392,-2.3533,-2.356,-2.371,-2.371,-2.3435,-2.3592,-2.374,-2.3836,-2.3932,-2.3781,-2.3481,-2.3768,-2.3874,-2.3574,-2.3975,-2.4341,-2.4341,-2.3746,-2.3138,-2.2526,-2.3038,-2.2998,-2.2059,-2.2485,-2.2588,-2.2076,-2.0354,-1.8882,-1.8069,-1.7449,-1.7141,-1.7141,-1.7288,-1.7368,-1.7368,-1.7508,-1.7582,-1.7582,-1.7736,-1.7969,-1.8277,-1.8571,-1.8791,0.0,0.0,0.0,0.0,0.0,0.0,0.0,0.0,-0.7443,-0.7605,-0.8265,-0.9464,-1.1802,-1.2791,-1.4129,-1.6881,-1.8108,-1.9142,-2.0155,-2.1464,-2.2923,-2.4879,-2.6558,-2.7455,-2.7224,-2.7178,-2.7013,-2.6619,-2.689,-2.6989,-2.6989,-2.753,-2.8262,-2.9177,-2.9979,-3.091,-3.1916,-3.2101,-3.2249,-3.2334,-3.1877,-3.1661,-3.1649,-3.112,-3.1408,-3.231,-3.1865,-3.1805,-3.1985,-3.1125,-2.9867,-2.8454,-2.8459,-2.7283,-2.5589,-2.5676,-2.456,-2.3135,-2.3135,-2.3135,-2.3135,-2.3135,-2.2784,-2.2498,-2.283,-2.2572,-2.2291,-2.2973,-2.3122,-2.3103,-2.3168,-2.3233,-2.3112,-2.2933,-2.2857,-2.2857,-2.2857,-2.2857,-2.2838,-2.2756,-2.3153,-2.3331,-2.3331,-2.3767,-2.406,-2.4143,-2.3438,-2.2728,-2.2526,-2.2526,-2.2114,-2.0987,-2.1497,-2.1363,-2.0279,-1.9287,-1.8224,-1.7177,-1.7281,-1.7435,-1.7495,-1.7502,-1.7522,-1.7582,-1.7582,-1.7582,-1.7582,-1.7836,-1.7989,-1.8056,-1.829,-1.8657,-0.0,-0.0,-0.0,-0.0,-0.1954,-0.4497,0.0,0.0,-0.759,-0.7941,-0.8567,-0.9496,-1.0798,-1.2491,-1.4193,-1.5875,-1.725,-1.8349,-1.8997,-2.0095,-2.1068,-2.1621,-2.4596,-2.6688,-2.7139,-2.7178,-2.7013,-2.6619,-2.689,-2.6989,-2.6989,-2.7314,-2.7638,-2.8057,-2.8763,-2.9446,-3.0231,-3.0861,-3.1398,-3.1757,-3.1697,-3.1661,-3.1649,-3.112,-3.1204,-3.1757,-3.1697,-3.1168,-3.0325,-3.0313,-2.9362,-2.8057,-2.7631,-2.6336,-2.4711,-2.5204,-2.4415,-2.3135,-2.3135,-2.3135,-2.3135,-2.3135,-2.2784,-2.2451,-2.2489,-2.2152,-2.1887,-2.2282,-2.2325,-2.2314,-2.2852,-2.2862,-2.2769,-2.2868,-2.2857,-2.2857,-2.2857,-2.2857,-2.2747,-2.2465,-2.2731,-2.2921,-2.2921,-2.3345,-2.3739,-2.4097,-2.4053,-2.3646,-2.2627,-2.2526,-2.2114,-2.0987,-2.0055,-1.9015,-1.7729,-1.7252,-1.6888,-1.676,-1.6787,-1.6921,-1.7188,-1.7194,-1.7321,-1.7582,-1.7582,-1.7582,-1.7582,-1.7615,-1.7776,-1.805,-1.8083,-1.813,0.0097,-0.0,-0.0,0.0,-0.1923,-0.438,-0.6842,-0.7595,-0.7875,-0.8057,-0.8671,-0.963,-1.1042,-1.2904,-1.4632,0.0,-1.7702,-1.8857,-1.8614,-1.9529,-2.0369,-2.0874,-2.2929,-2.4746,-2.574,-2.649,-2.6765,-2.66,-2.6691,-2.6791,-2.6791,-2.6999,-2.7093,-2.7072,-2.7968,-2.8428,-2.8575,-2.9648,-3.032,-3.0824,-3.1116,-3.1395,-3.1649,-3.112,-3.0831,-3.0783,-3.1396,-3.0954,-2.9682,-2.9727,-2.8723,-2.7082,-2.6373,-2.5311,-2.4105,-2.4635,-2.4058,-2.3135,-2.3135,-2.3135,-2.3135,-2.3135,-2.2784,-2.2441,-2.2441,-2.2087,-2.1768,-2.1933,-2.1869,-2.1903,-2.2153,-2.2116,-2.2124,-2.2208,-2.2245,-2.2245,-2.2245,-2.2245,-2.219,-2.2016,-2.2418,-2.2857,-2.2857,-2.3483,-2.3754,-2.3311,-2.3746,-2.3746,-2.2627,-2.2526,-2.1802,-2.0055,-1.8923,-1.7901,-1.7029,-1.6934,-1.682,-1.6473,-1.6613,-1.676,-1.6887,-1.6894,-1.6947,-1.7068,-1.7074,-1.7074,-1.7074,-1.7074,-1.7141,-1.7268,-1.7442,-1.7428,0.0484,0.0,0.0,-0.0,-0.1416,-0.3715,-0.6924,-0.7735,-0.7957,-0.8082,-0.869,-0.9423,-1.0634,-1.273,-1.4561,-1.5432,-1.7598,-1.8883,-1.8357,-1.8903,-1.9536,-2.0095,-2.1335,-2.2757,-2.4128,-2.5688,-2.6591,-2.6591,-2.6591,-2.6536,-2.6417,-2.6726,-2.6658,-2.6244,-2.7036,-2.7563,-2.7893,-2.8589,-2.9555,-3.0633,-3.0847,-3.1217,-3.1649,-3.1264,-3.0709,-2.9998,-3.089,-3.0512,-2.9161,-2.8835,-2.7869,-2.6526,-2.5355,-2.4484,-2.383,-2.4068,-2.3647,-2.3057,-2.3057,-2.2969,-2.2872,-2.2872,-2.2618,-2.2353,-2.2353,-2.1998,-2.1741,-2.1741,-2.1741,-2.1768,-2.1869,-2.1814,-2.1768,-2.1878,-2.1814,-2.1741,-2.1741,-2.1741,-2.1741,-2.1741,-2.2217,-2.2592,-2.2434,-2.2937,-2.309,-2.2181,-2.2719,-2.3029,-2.2114,-2.1719,-2.0734,-1.8897,-1.7826,-1.7048,-1.6627,-1.6707,-1.6607,-1.6179,-1.6346,-1.65,-1.6587,-1.6587,-1.662,-1.6707,-1.6707,-1.6707,-1.6707,-1.6707,-1.6707,-1.6707,-1.6927,-1.6914,0.0,0.0,-0.0,-0.0,-0.0108,-0.1467,-0.6662,-0.7748,-0.7616,-0.7845,-0.8332,-0.8798,-0.9056,-1.1518,-1.3596,-1.3967,-1.6183,-1.7936,-1.8022,-1.822,-1.852,-1.8914,-1.9788,-2.1038,0.0,-2.5229,-2.6591,-2.6591,-2.6591,-2.6408,-2.6004,-2.6362,-2.6332,-2.5843,-2.59,-2.6869,-2.8817,-2.8094,-2.898,-3.1661,-3.1128,-3.1217,-3.1661,-3.1649,-3.0885,-2.9424,-3.003,-2.9692,-2.8615,-2.7249,-2.6609,-2.6434,-2.4565,-2.3789,-2.374,-2.3301,-2.2969,-2.2794,-2.2794,-2.2618,-2.2441,-2.2441,-2.2264,-2.2097,-2.2097,-2.1919,-2.1741,-2.1741,-2.1741,-2.1823,-2.2208,-2.2025,-2.1832,-2.2217,-2.2016,-2.1741,-2.1741,-2.1741,-2.1741,-2.1741,-2.1759,-2.1653,-2.1363,-2.1413,-2.1282,-2.0985,-2.0987,-2.0987,-2.0987,-1.9773,-1.847,-1.7367,-1.6753,-1.6306,-1.6286,-1.6025,-1.5858,-1.5845,-1.5852,-1.5985,-1.6273,-1.6286,-1.642,-1.67,-1.6707,-1.6707,-1.6707,-1.6707,-1.6707,-1.6707,-1.6714,-1.6714,0.0,0.0,0.051,0.0106,-0.0996,-0.2169,-0.2539,-0.536,-0.7799,-0.7674,-0.7912,-0.8292,-0.8295,-1.0383,-1.2401,-1.337,-1.5455,-1.7179,-1.7781,-1.8106,-1.8286,-1.8096,-1.9482,0.0,0.0,0.0,0.0,-2.6188,-2.6169,-2.5995,-2.5592,-2.5702,-2.5641,-2.5107,-2.5266,-2.5839,-2.6764,-2.7282,-2.8049,-2.898,-2.9818,-3.0193,-3.0204,-3.0105,-2.9301,-2.8043,-2.811,-2.7455,-2.6272,-2.5668,-2.5087,-2.4414,-2.3306,-2.3005,-2.3084,-2.2754,-2.2608,-2.253,-2.2715,-2.2618,-2.2441,-2.2441,-2.2264,-2.2097,-2.2097,-2.1919,-2.1741,-2.1741,-2.1741,-2.1768,-2.1906,-2.1841,-2.1768,-2.1906,-2.1832,-2.1741,-2.1741,-2.1741,-2.1741,-2.1741,-2.14,-2.1186,-2.1302,-2.0812,-2.0191,-1.9558,-1.9706,-1.9663,-1.9555,-1.8418,-1.7551,-1.725,-1.6974,-1.6774,-1.6573,-1.6466,-1.6246,-1.5852,-1.5832,-1.5872,-1.5972,-1.5979,-1.6025,-1.6119,-1.6126,-1.6126,-1.6126,-1.6126,-1.6126,-1.6126,-1.6326,-1.6313,0.0,0.1788,0.1122,0.0638,-0.0774,-0.1594,-0.0341,-0.3291,-0.6633,-0.7447,-0.7721,-0.7797,-0.7913,-0.9592,-1.1177,-1.2151,-1.4385,-1.6073,-1.6762,-1.7446,-1.7827,-1.7743,-1.8797,-1.9904,0.0,0.0,0.0,-2.521,-2.5736,-2.572,-2.5188,-2.5298,-2.5124,-2.4574,-2.4877,-2.5239,-2.5781,-2.6446,-2.702,-2.7484,-2.8588,-2.9065,-2.8818,-2.8644,-2.7865,-2.664,-2.654,-2.5747,-2.4686,-2.4346,-2.4028,-2.3592,-2.2748,-2.2625,-2.2828,-2.2498,-2.2353,-2.2353,-2.2451,-2.2353,-2.2176,-2.2176,-2.2087,-2.1919,-2.1919,-2.183,-2.1741,-2.1741,-2.1741,-2.1741,-2.1741,-2.1741,-2.1741,-2.1741,-2.1741,-2.1741,-2.1741,-2.1741,-2.1741,-2.1741,-2.111,-2.0695,-2.072,-1.9846,-1.8989,-1.849,-1.8391,-1.8377,-1.828,-1.7557,-1.6987,-1.6987,-1.6987,-1.6914,-1.672,-1.6707,-1.65,-1.6019,-1.5985,-1.5939,-1.5832,-1.5832,-1.5832,-1.5832,-1.5832,-1.5832,-1.5832,-1.5832,-1.5832,-1.5832,-1.6025,-1.6012,0.3683,0.2584,0.1624,0.1654,0.0863,-0.0,-0.0,-0.1718,-0.422,-0.7036,-0.7402,-0.742,0.0,0.0,-1.0085,-1.0359,-1.2883,-1.5015,-1.5134,-1.6269,-1.7329,0.0,0.0,0.0,0.0,0.0,0.0,-2.392,0.0,-2.5564,-2.4794,-2.5106,-2.495,-2.418,-2.4537,-2.513,-2.5935,-2.5548,-2.5925,-2.7148,-2.7578,-2.7708,-2.7543,-2.7238,-2.654,-2.5441,-2.5139,-2.4693,-2.3958,-2.329,-2.3448,-2.3909,-2.2744,-2.2678,-2.2991,-2.2494,-2.2264,-2.2097,-2.2097,-2.1919,-2.1741,-2.1741,-2.1741,-2.1741,-2.1741,-2.1741,-2.1731,-2.1642,-2.1642,-2.1642,-2.1553,-2.1553,-2.1642,-2.1642,-2.1642,-2.1741,-2.1741,-2.1741,-2.1651,-2.1642,-2.0843,-2.0063,-1.9597,-1.8477,-1.7562,-1.7562,-1.7315,-1.7134,-1.725,-1.6894,-1.6707,-1.6707,-1.6707,-1.67,-1.6687,-1.67,-1.6573,-1.6266,-1.6266,-1.6139,-1.5838,-1.5832,-1.5832,-1.5832,-1.5832,-1.5832,-1.5832,-1.5832,-1.5832,-1.5832,-1.5832,-1.5832,0.4369,0.3013,0.1624,0.1654,0.1166,0.054,0.0108,-0.0443,-0.2146,-0.6383,-0.7267,-0.7141,0.0,0.0,0.0,-0.9904,-1.2104,0.0,-1.5274,-1.679,0.0,-1.708,0.0,-1.8173,-1.9057,-2.0535,0.0,0.0,-2.4121,-2.4858,-2.4345,-2.4409,-2.4372,-2.426,-2.4262,-2.474,-2.5479,-2.5073,-2.549,-2.6786,-2.5951,-2.5452,-2.5361,-2.5288,-2.4726,-2.3735,-2.3326,-2.3012,-2.2843,-2.2471,-2.249,-2.2565,-2.2082,-2.2063,-2.2335,-2.2045,-2.2008,-2.2097,-2.183,-2.1741,-2.1741,-2.1741,-2.1741,-2.1741,-2.1741,-2.1741,-2.1553,-2.0808,-2.0628,-2.0439,-1.9712,-2.0076,-2.0628,-2.0628,-2.1177,-2.1741,-2.1741,-2.1741,-2.1463,-2.0808,-1.9584,-1.8394,-1.7357,-1.7264,-1.7261,-1.7261,-1.7007,-1.6901,-1.7121,-1.6894,-1.6707,-1.6707,-1.6707,-1.662,-1.64,-1.6587,-1.6486,-1.5972,-1.6152,-1.6139,-1.5838,-1.5832,-1.5832,-1.5832,-1.5832,-1.5832,-1.5832,-1.5832,-1.5832,-1.5832,-1.5832,-1.5832,0.4804,0.3627,0.2429,0.1843,0.1353,0.0947,0.0209,-0.0,-0.0762,-0.3432,-0.5086,0.0,-0.6646,-0.7048,0.0,0.0,0.0,0.0,-1.4291,-1.572,-1.664,0.0,-1.7256,0.0,-1.8905,-2.026,-2.1494,0.0,-2.4043,-2.4601,-2.417,-2.3978,-2.3886,-2.3886,-2.3712,-2.3814,-2.4277,-2.4051,-2.4306,-2.4943,-2.4316,-2.3919,-2.3756,-2.3586,-2.3214,-2.2612,-2.2279,-2.2176,-2.2264,-2.2008,-2.2008,-2.2097,-2.183,-2.182,-2.1919,-2.1741,-2.183,-2.1919,-2.1731,-2.1741,-2.1741,-2.1741,-2.1454,-2.1087,-2.1087,-2.0817,-2.0357,-1.9795,-1.9613,-1.9521,-1.8972,-1.9247,-1.9613,-1.9613,-2.0076,-2.0447,-2.0447,-2.0486,-2.0322,-1.9398,-1.8722,-1.7996,-1.6711,-1.6847,-1.7148,-1.7148,-1.6894,-1.6767,-1.6934,-1.6807,-1.6653,-1.6526,-1.6627,-1.6693,-1.666,-1.6687,-1.6567,-1.6233,-1.6253,-1.6139,-1.5838,-1.5832,-1.5832,-1.5832,-1.5832,-1.5832,-1.5832,-1.5832,-1.5832,-1.5832,-1.5832,-1.5832,0.5205,0.4429,0.3428,0.1919,0.1637,0.134,0.0203,-0.0,-0.0,-0.0,0.0,-0.484,-0.6403,-0.6922,-0.7226,-0.7672,0.0,-1.1044,-1.2894,-1.4323,-1.554,-1.69,-1.7038,-1.7804,-1.986,-2.021,-2.129,-2.3577,-2.4307,-2.4455,-2.4088,-2.3684,-2.3464,-2.3464,-2.3039,-2.2857,-2.2857,-2.2802,-2.2774,-2.2774,-2.2729,-2.2695,-2.2527,-2.2336,-2.2152,-2.2008,-2.183,-2.183,-2.2008,-2.183,-2.183,-2.2008,-2.182,-2.1741,-2.1741,-2.1741,-2.1741,-2.1741,-2.1741,-2.1741,-2.1741,-2.1741,-2.1177,-2.0439,-2.0339,-1.9704,-1.8972,-1.8703,-1.8603,-1.8611,-1.8419,-1.8511,-1.8603,-1.8603,-1.8703,-1.8788,-1.8788,-1.8871,-1.8743,-1.8001,-1.8094,-1.8009,-1.6847,-1.6887,-1.7163,-1.7141,-1.6894,-1.6693,-1.6653,-1.668,-1.6593,-1.6306,-1.65,-1.674,-1.6954,-1.6774,-1.6633,-1.6593,-1.6393,-1.6139,-1.5838,-1.5832,-1.5832,-1.5832,-1.5832,-1.5832,-1.5832,-1.5832,-1.5832,-1.5832,-1.5832,-1.5832,0.5832,0.4734,0.3428,0.1919,0.1621,0.1319,0.0202,-0.0,0.0,0.0,-0.1823,-0.405,-0.6093,-0.6668,-0.7046,-0.7791,-0.9998,-1.2023,-1.3225,-1.527,-1.6726,0.0,-1.6767,-1.7448,-1.9237,-1.9843,0.0,0.0,-2.3465,-2.373,-2.3657,-2.3272,-2.2957,-2.2957,-2.2902,-2.2857,-2.2857,-2.2612,-2.2437,-2.2428,-2.2107,-2.1906,-2.1841,-2.202,-2.1983,-2.1741,-2.1919,0.0,-2.1741,-2.1741,-2.1741,-2.1741,-2.1741,-2.1741,-2.1741,-2.1741,-2.1741,-2.1741,-2.1741,-2.1741,-2.1741,-2.1741,-2.1553,-2.1275,-2.0529,-2.0158,-1.9704,-1.8064,-1.7606,-1.7326,-1.6574,-1.6951,-1.7606,-1.7606,-1.8241,-1.8788,-1.8788,-1.8417,-1.8001,-1.7816,-1.733,-1.6961,-1.6714,-1.6547,-1.6593,-1.7074,-1.6894,-1.662,-1.638,-1.656,-1.6593,-1.6306,-1.6319,-1.6273,-1.6072,-1.6239,-1.6239,-1.5999,-1.6166,-1.6139,-1.5838,-1.5832,-1.5832,-1.5832,-1.5832,-1.5832,-1.5832,-1.5832,-1.5832,-1.5832,-1.5832,-1.5832,0.6139,0.4931,0.3522,0.2019,0.1212,0.0603,0.0099,0.0,0.0,0.0,-0.0796,-0.2519,-0.5768,-0.6716,0.0,-0.7402,-0.8879,-1.0785,-1.2847,-1.4158,0.0,-1.6396,-1.6489,-1.7188,0.0,-1.9273,-2.0217,-2.2575,-2.2581,-2.2722,-2.3131,-2.285,-2.2529,-2.2236,-2.2318,-2.2318,-2.2318,-2.2116,-2.2016,-2.2016,-2.1823,-2.1741,-2.1741,-2.183,-2.183,-2.1741,-2.183,-2.183,-2.1741,-2.1741,-2.1741,-2.1741,-2.1741,-2.1741,-2.1741,-2.1741,-2.1741,-2.1741,-2.1741,-2.1741,-2.1642,-2.1087,-2.0628,-1.9985,-1.9072,-1.8411,-1.7762,-1.6763,-1.6487,-1.6393,-1.592,-1.6204,-1.6487,-1.6487,-1.6978,-1.7516,-1.7683,-1.7583,-1.7519,-1.7519,-1.7244,-1.6934,-1.6934,-1.6693,-1.6647,-1.7081,-1.6894,-1.6653,-1.6513,-1.6486,-1.6366,-1.6072,-1.6046,-1.6046,-1.6059,-1.6046,-1.6046,-1.6059,-1.6046,-1.5979,-1.5838,-1.5832,-1.5832,-1.5832,-1.5832,-1.5832,-1.5832,-1.5832,-1.5832,-1.5832,-1.5832,-1.5832,0.6542,0.5227,0.3717,0.1715,0.0606,-0.0,-0.0,-0.0,0.0,0.0,-0.0,-0.1008,-0.4448,0.0,-0.6632,0.0,-0.7905,-0.9581,-1.2372,-1.2986,-1.3894,0.0,-1.629,0.0,-1.9044,-1.8891,0.0,-2.2417,-2.196,-2.1886,-2.2583,-2.2382,-2.2061,-2.175,-2.1741,-2.1741,-2.1741,-2.1741,-2.1741,-2.1741,-2.1741,-2.1741,-2.1741,-2.1741,-2.1741,-2.1741,-2.1741,-2.1741,-2.1741,-2.1741,-2.1741,-2.1741,-2.1741,-2.1741,-2.1741,-2.1741,-2.1741,-2.1741,-2.1741,-2.1741,-2.1553,-2.0348,-1.9613,-1.888,-1.7692,-1.6763,-1.6109,-1.5832,-1.5832,-1.5832,-1.5832,-1.5832,-1.5832,-1.5832,-1.6052,-1.6353,-1.6647,-1.6941,-1.7148,-1.7148,-1.7094,-1.7074,-1.7141,-1.6854,-1.6714,-1.7007,-1.6854,-1.6687,-1.662,-1.6466,-1.6273,-1.6039,-1.5905,-1.5925,-1.6159,-1.5965,-1.5925,-1.6166,-1.5959,-1.5832,-1.5832,-1.5832,-1.5832,-1.5832,-1.5832,-1.5832,-1.5832,-1.5832,-1.5832,-1.5832,-1.5832,-1.5832,0.7453,0.6032,0.4012,0.0906,0.0101,-0.0,-0.0,0.0,-0.0,-0.0,-0.0,-0.0101,-0.0504,-0.3021,-0.5578,-0.7144,0.0,-1.0207,-1.2365,-1.3537,-1.47,-1.6144,0.0,0.0,-1.9216,-1.8947,-1.968,-2.2113,-2.1943,-2.1724,-2.1851,-2.1814,-2.1777,-2.1741,-2.1741,-2.1741,-2.1741,-2.1741,-2.1741,-2.1741,-2.1741,-2.1741,-2.1741,-2.1741,-2.1741,-2.1741,-2.1741,-2.1741,0.0,-2.1741,-2.1741,-2.1741,-2.1741,-2.1741,-2.1741,-2.1741,-2.1741,-2.1741,-2.1741,-2.1741,-2.1374,-1.953,-1.9521,-1.9795,-1.7878,-1.7239,-1.6951,-1.6015,-1.5832,-1.5832,-1.5832,-1.5832,-1.5832,-1.5832,-1.6052,-1.6353,-1.6647,-1.6941,-1.7148,-1.7148,-1.6934,-1.6834,-1.7101,-1.6687,-1.6413,-1.67,-1.6727,-1.6613,-1.6346,-1.652,-1.6653,-1.6627,-1.6146,-1.5838,-1.5865,-1.5845,-1.5838,-1.5872,-1.5845,-1.5832,-1.5832,-1.5832,-1.5832,-1.5832,-1.5832,-1.5832,-1.5832,-1.5832,-1.5832,-1.5832,-1.5832,-1.5832,0.7662,0.6807,0.5717,0.4246,0.2798,0.1475,0.0287,0.0,-0.0,-0.0,-0.0,-0.0202,-0.0808,-0.2818,-0.4834,-0.6305,0.0,0.0,-1.17,-1.2368,-1.3386,-1.5327,-1.5572,0.0,0.0,0.0,-1.9024,-2.1354,-2.1635,-2.1741,-2.1741,-2.1741,-2.1741,-2.1741,-2.1741,-2.1741,-2.1741,-2.1741,-2.1741,-2.1741,-2.1741,-2.1741,-2.1741,-2.1741,-2.1741,-2.1741,-2.1741,-2.1741,0.0,-2.1741,-2.1741,-2.1642,-2.1087,-2.1177,-2.1553,-2.0357,-2.0348,-2.0808,-2.0167,-1.9985,-1.9712,-1.8334,-1.8149,-1.8241,-1.685,-1.6393,-1.6298,-1.592,-1.5832,-1.5832,-1.5832,-1.5832,-1.5872,-1.6052,-1.6186,-1.64,-1.6867,-1.7068,-1.7148,-1.7148,-1.7054,-1.7007,-1.723,-1.6954,-1.684,-1.6954,-1.6974,-1.6934,-1.682,-1.6747,-1.6774,-1.6954,-1.6446,-1.6092,-1.6092,-1.5932,-1.5832,-1.5832,-1.5832,-1.5832,-1.5832,-1.6005,-1.6012,-1.5832,-1.6005,-1.6005,-1.5832,-1.5832,-1.5919,-1.6092,-1.5912,-1.5925,0.7496,0.7098,0.687,0.6491,0.5174,0.3506,0.0,0.0,-0.0,-0.0,-0.0295,-0.0707,-0.1415,-0.292,-0.4323,-0.5639,0.0,-0.8378,-1.0746,-1.1377,-1.2339,0.0,0.0,-1.5838,0.0,-1.8419,-1.9127,-2.0826,-2.1454,-2.1741,-2.1741,-2.1741,-2.1741,-2.1741,-2.1741,-2.1741,-2.1741,-2.1741,-2.1741,-2.1741,-2.1741,-2.1741,-2.1741,-2.1741,-2.1741,-2.1741,-2.1741,-2.1741,0.0,-2.1741,-2.1741,-2.1642,-2.0709,-2.0718,-2.1087,-1.943,-1.9247,-1.9795,-1.9063,-1.8788,-1.8611,-1.7606,-1.7326,-1.7145,-1.6109,-1.5832,-1.5832,-1.5832,-1.5832,-1.5832,-1.5832,-1.5832,-1.5879,-1.6092,-1.6273,-1.6493,-1.682,-1.7027,-1.7121,-1.7034,-1.7021,-1.7048,-1.7134,-1.7148,-1.7121,-1.7034,-1.7094,-1.7114,-1.7027,-1.6834,-1.6854,-1.7235,-1.6754,-1.6366,-1.6279,-1.6159,-1.6052,-1.5965,-1.6039,-1.6086,-1.6086,-1.6206,-1.6172,-1.5965,-1.6166,-1.6126,-1.5832,-1.6005,-1.6152,-1.6273,-1.6146,-1.6159,0.7043,0.6747,0.6748,0.6461,0.6273,0.6055,0.0,0.0,-0.0,-0.0,-0.0884,-0.1617,-0.1617,-0.2825,-0.4232,-0.5639,-0.6237,0.0,-0.9641,-1.0974,-1.1979,0.0,0.0,-1.518,-1.6393,-1.8772,-2.0447,-2.0997,-2.1454,0.0,-2.1741,-2.1741,-2.1741,-2.1741,-2.1741,-2.1741,-2.1741,-2.1741,-2.1741,-2.1741,-2.1741,-2.1741,-2.1741,-2.1741,-2.1741,-2.1741,-2.1741,-2.1741,0.0,-2.1741,-2.1741,-2.1642,-2.0709,-2.0348,-2.0158,-1.9155,-1.8796,-1.8788,-1.8788,-1.8788,-1.8611,-1.7606,-1.7326,-1.7145,-1.6109,-1.5832,-1.5832,-1.5832,-1.5832,-1.5832,-1.5832,-1.5832,-1.5832,-1.5832,-1.6279,-1.662,-1.6339,-1.674,-1.7061,-1.6767,-1.6707,-1.6807,-1.7094,-1.7148,-1.7048,-1.6754,-1.6961,-1.7041,-1.6747,-1.6707,-1.6927,-1.7515,-1.7054,-1.6587,-1.6299,-1.6533,-1.6573,-1.6286,-1.6533,-1.67,-1.67,-1.6426,-1.6273,-1.6266,-1.6273,-1.6126,-1.5832,-1.6413,-1.6553,-1.6279,-1.6567,-1.6547,0.7557,0.6903,0.6404,0.6225,0.6113,0.6015,0.5893,0.0,0.3068,0.0095,-0.1081,-0.1617,-0.1617,-0.2825,-0.4131,-0.5029,-0.5832,0.0,0.0,0.0,0.0,-1.2959,-1.553,-1.7399,0.0,0.0,-2.1365,-2.1463,-2.1642,-2.1741,-2.1741,-2.1741,-2.1741,-2.1741,-2.1741,-2.1741,-2.1741,-2.1741,-2.1741,-2.1741,-2.1741,-2.1741,-2.1741,-2.1741,-2.1741,-2.1741,-2.1741,-2.1741,-2.1741,-2.1741,-2.1365,-2.0619,-1.9704,-1.9247,-1.9063,-1.7397,-1.7225,-1.7692,-1.7037,-1.6756,-1.6662,-1.6386,-1.6298,-1.6204,-1.592,-1.5832,-1.5832,-1.5832,-1.5832,-1.5832,-1.5832,-1.5832,-1.5879,-1.6086,-1.6119,-1.6192,-1.65,-1.656,-1.652,-1.6426,-1.6734,-1.6907,-1.6607,-1.6881,-1.6981,-1.648,-1.666,-1.6814,-1.6714,-1.6881,-1.7161,-1.7542,-1.7415,-1.7188,-1.6901,-1.6767,-1.6667,-1.6573,-1.6653,-1.6707,-1.6707,-1.6814,-1.6774,-1.6573,-1.6767,-1.6727,-1.6426,-1.6613,-1.666,-1.6573,-1.6874,-1.6854,0.0,0.6576,0.6181,0.6105,0.5994,0.0,0.0,0.0,0.0,0.0665,-0.0884,-0.1617,-0.1617,-0.2322,-0.3325,-0.4624,-0.5327,0.0,0.0,0.0,0.0,-1.4196,0.0,0.0,0.0,-2.0253,-2.1365,-2.1642,-2.1741,-2.1741,-2.1741,-2.1741,-2.1741,-2.1741,-2.1741,-2.1741,-2.1741,-2.1741,-2.1741,-2.1741,-2.1741,-2.1741,-2.1741,-2.1741,-2.1741,-2.1741,-2.1741,-2.1741,0.0,-2.1365,-2.0808,-2.0158,-1.8788,-1.8241,-1.8056,-1.6386,-1.6204,-1.6669,-1.6015,-1.5832,-1.5832,-1.5832,-1.5832,-1.5832,-1.5832,-1.5832,-1.5832,-1.5832,-1.5832,-1.5832,-1.5832,-1.5832,-1.5879,-1.6059,-1.6052,-1.6066,-1.6319,-1.6319,-1.6239,-1.6126,-1.6493,-1.6734,-1.648,-1.6834,-1.7027,-1.666,-1.6854,-1.6961,-1.6734,-1.6867,-1.7094,-1.7388,-1.7321,-1.7268,-1.7308,-1.7141,-1.6994,-1.6881,-1.6974,-1.7041,-1.7041,-1.7108,-1.7007,-1.6714,-1.7001,-1.6947,-1.6547,-1.6767,-1.6927,-1.7041,-1.7228,-1.7154,0.0,0.0,0.0,0.0,0.0,0.0,0.0,0.0,0.0,0.0,0.0,0.0,-0.1611,-0.161,-0.2411,-0.4407,-0.4804,0.0,0.0,-1.1123,0.0,0.0,-1.6671,0.0,-1.9314,-2.0026,-2.0718,-2.1642,-2.1741,-2.1741,-2.1741,-2.1741,-2.1741,-2.1741,-2.1741,-2.1741,-2.1741,-2.1741,-2.1741,-2.1741,-2.1741,-2.1741,-2.1741,-2.1741,-2.1741,-2.1741,-2.1642,-2.1642,-2.1553,-2.0619,-2.0158,-1.9886,-1.8064,-1.7239,-1.7044,-1.6109,-1.5832,-1.5832,-1.5832,-1.5832,-1.5832,-1.5832,-1.5832,-1.5832,-1.5832,-1.5832,-1.5832,-1.5832,-1.5832,-1.5832,-1.5832,-1.5832,-1.5832,-1.5832,-1.6039,-1.6166,-1.5885,-1.6046,-1.6159,-1.5885,-1.6072,-1.6359,-1.6627,-1.6921,-1.7114,-1.7114,-1.7348,-1.7328,-1.6807,-1.674,-1.6847,-1.7148,-1.6934,-1.6987,-1.7535,-1.7582,-1.7468,-1.7194,-1.7435,-1.7582,-1.7582,-1.7301,-1.7021,-1.674,-1.7007,-1.6874,-1.6306,-1.6894,-1.7308,-1.7555,-1.7569,-1.7428,0.5218,0.0,0.5265,0.5265,0.5245,0.5046,0.0,0.0,0.0,0.0,0.0,0.0,0.0,0.0,0.0,0.0,0.0,0.0,-0.9372,0.0,0.0,-1.6466,-1.8241,-1.9462,-1.9638,-2.0678,-2.1454,-2.1651,-2.1741,-2.1741,-2.1741,-2.1741,-2.1741,-2.1741,-2.1741,-2.1741,-2.1741,-2.1741,-2.1741,-2.1741,-2.1741,-2.1741,-2.1741,-2.1741,-2.1741,-2.1651,-2.0907,-2.0619,-2.0529,-1.9521,-1.8703,-1.7971,-1.7512,-1.6864,-1.6109,-1.5927,-1.5832,-1.5832,-1.5832,-1.5832,-1.5832,-1.5832,-1.5832,-1.5832,-1.5832,-1.5832,-1.5832,-1.5832,-1.5832,-1.5832,-1.5832,-1.5832,-1.5832,-1.5832,-1.5879,-1.5912,-1.5845,-1.5885,-1.5912,-1.5845,-1.6072,-1.6293,-1.6359,-1.662,-1.6807,-1.6807,-1.6867,-1.6941,-1.7034,-1.7048,-1.7161,-1.7448,-1.7422,-1.7435,-1.7569,-1.7582,-1.7555,-1.7482,-1.7549,-1.7582,-1.7582,-1.7301,-1.7114,-1.7048,-1.7114,-1.6967,-1.6607,-1.7194,-1.7402,-1.7255,-1.7475,-1.7428,0.4028,0.4474,0.501,0.501,0.4652,0.4204,0.0,0.0,0.0,0.0,0.0,0.0,0.0,0.0,0.0,0.0,-0.6484,0.0,0.0,0.0,-1.6118,-1.7546,-1.91,-2.0171,0.0,-2.1239,-2.1741,-2.1741,-2.1741,-2.1741,-2.1741,-2.1741,-2.1741,-2.1741,-2.1741,-2.1741,-2.1741,-2.1741,-2.1741,-2.1741,-2.1741,-2.1741,-2.1651,-2.1266,-2.1087,-2.0997,-2.0068,-1.9613,-1.9521,-1.8519,-1.7785,-1.7232,-1.6763,-1.6298,-1.5832,-1.5832,-1.5832,-1.5832,-1.5832,-1.5832,-1.5832,-1.5832,-1.5832,-1.5832,-1.5832,-1.5832,-1.5832,-1.5832,-1.5832,-1.5832,-1.5832,-1.5832,-1.5832,-1.5832,-1.5832,-1.5832,-1.5832,-1.5832,-1.5832,-1.5832,-1.6072,-1.6319,-1.6446,-1.6714,-1.6954,-1.7088,-1.7108,-1.7121,-1.7148,-1.7148,-1.7161,-1.7174,-1.7181,-1.7235,-1.7375,-1.7382,-1.7382,-1.7382,-1.7508,-1.7522,-1.7388,-1.7235,-1.7148,-1.7148,-1.7014,-1.7001,-1.7108,-1.7428,-1.7502,-1.7355,-1.7508,-1.7502,0.2688,0.3499,0.4491,0.4654,0.3935,0.3221,0.0,0.0,0.0,0.0,0.0,0.0,0.0,0.0,0.0,0.0,0.0,0.0,-1.385,-1.5586,-1.7198,-1.8736,-1.9583,0.0,-2.1523,-2.1695,-2.1741,-2.1741,-2.1741,-2.1741,-2.1741,-2.1741,-2.1741,-2.1741,-2.1741,-2.1741,-2.1741,-2.1741,-2.1741,-2.1741,-2.1741,-2.1741,-2.1642,-2.0718,-2.0339,-2.0249,-1.9063,-1.8611,-1.8519,-1.7505,-1.7044,-1.6958,-1.6109,-1.5832,-1.5832,-1.5832,-1.5832,-1.5832,-1.5832,-1.5832,-1.5832,-1.5832,-1.5832,-1.5832,-1.5832,-1.5832,-1.5832,-1.5832,-1.5832,-1.5832,-1.5832,-1.5832,-1.5832,-1.5832,-1.5832,-1.5832,-1.5832,-1.5832,-1.5832,-1.5832,-1.6032,-1.6299,-1.6587,-1.6887,-1.7181,-1.7475,-1.7555,-1.7495,-1.7248,-1.7215,-1.7101,-1.6807,-1.6774,-1.6874,-1.723,-1.7108,-1.7081,-1.7081,-1.7355,-1.7368,-1.7027,-1.7061,-1.7041,-1.6954,-1.6787,-1.6927,-1.7382,-1.7515,-1.7562,-1.7515,-1.7562,-1.7555,0.1611,0.1813,0.2196,0.2969,0.2506,0.1522,0.0,0.0,0.0,0.0,0.0,0.0,0.0,0.0,0.0,0.0,0.0,-1.4282,0.0,0.0,-1.9642,-1.9546,0.0,-2.1344,-2.1236,-2.153,-2.1741,-2.1741,-2.1741,-2.1741,-2.1741,-2.1741,-2.1741,-2.1741,-2.1741,-2.1741,-2.1741,-2.1741,-2.1741,-2.1741,-2.1741,-2.1741,-2.1642,-2.0718,-2.0339,-2.0158,-1.8334,-1.7512,-1.7412,-1.6487,-1.6015,-1.6015,-1.5832,-1.5832,-1.5832,-1.5832,-1.5832,-1.5832,-1.5832,-1.5832,-1.5832,-1.5832,-1.5832,-1.5832,-1.5832,-1.5832,-1.5832,-1.5832,-1.5832,-1.5832,-1.5832,-1.5832,-1.5832,-1.5832,-1.5832,-1.5832,-1.5832,-1.5832,-1.5832,-1.5832,-1.5865,-1.5992,-1.6293,-1.658,-1.6874,-1.7168,-1.7422,-1.7569,-1.7522,-1.7515,-1.7402,-1.7114,-1.7081,-1.7101,-1.725,-1.6921,-1.6774,-1.6774,-1.7054,-1.6974,-1.6433,-1.664,-1.654,-1.6039,-1.6473,-1.6627,-1.648,-1.7221,-1.7455,-1.7221,-1.7468,-1.7455,0.0627,0.0631,0.0634,0.0627,0.0546,0.0369,0.0,0.0,0.0,0.0,0.0,0.0,0.0,0.0,-0.8605,-1.1135,0.0,-1.6588,-1.7445,-1.875,-1.9746,0.0,0.0,-2.1319,-2.1126,-2.1282,-2.1392,-2.1392,-2.1392,-2.1493,-2.1722,-2.1741,-2.1741,-2.1741,-2.1741,-2.1741,-2.1741,-2.1741,-2.1741,-2.1741,-2.1741,-2.1454,-2.0898,-1.9886,-1.9155,-1.8603,-1.7131,-1.648,-1.6487,-1.6015,-1.5832,-1.5832,-1.5832,-1.5832,-1.5832,-1.5832,-1.5832,-1.5832,-1.5832,-1.5832,-1.5832,-1.5832,-1.5832,-1.5832,-1.5832,-1.5832,-1.5832,-1.5832,-1.5832,-1.5832,-1.5832,-1.5832,-1.5832,-1.5832,-1.5832,-1.5832,-1.5832,-1.5832,-1.5832,-1.5832,-1.5959,-1.6159,-1.6453,-1.6754,-1.7048,-1.7341,-1.7495,-1.7582,-1.7582,-1.7582,-1.7468,-1.7181,-1.7007,-1.6907,-1.6907,-1.664,-1.654,-1.6693,-1.6687,-1.6553,-1.6286,-1.64,-1.6346,-1.6072,-1.6486,-1.672,-1.6747,-1.7308,-1.7515,-1.7388,-1.7522,-1.7508,-0.0359,-0.054,-0.0812,-0.1531,0.0,0.0,0.0,0.0,0.0,0.0,0.0,0.0,0.0,-0.8808,0.0,-1.509,-1.6994,-1.8208,-1.8838,-1.9434,-1.9791,-1.9983,-2.0611,-2.1071,-2.0979,-2.1053,-2.1108,-2.1108,-2.12,-2.1392,-2.1722,-2.1741,-2.1741,-2.1741,-2.1741,-2.1741,-2.1741,-2.1741,-2.1741,-2.1741,-2.1741,-2.1177,-2.0257,-1.9247,-1.8241,-1.7232,-1.6204,-1.5832,-1.5832,-1.5832,-1.5832,-1.5832,-1.5832,-1.5832,-1.5832,-1.5832,-1.5832,-1.5832,-1.5832,-1.5832,-1.5832,-1.5832,-1.5832,-1.5832,-1.5832,-1.5832,-1.5832,-1.5832,-1.5832,-1.5832,-1.5832,-1.5832,-1.5832,-1.5832,-1.5832,-1.5832,-1.5832,-1.5832,-1.5832,-1.5832,-1.6072,-1.6346,-1.6567,-1.6907,-1.7228,-1.7448,-1.7542,-1.7582,-1.7582,-1.7582,-1.7468,-1.7181,-1.6947,-1.678,-1.6714,-1.6567,-1.6513,-1.66,-1.6393,-1.6246,-1.6172,-1.6299,-1.6306,-1.6172,-1.652,-1.682,-1.7048,-1.7341,-1.7515,-1.7582,-1.7582,-1.7582,-0.1256,-0.2001,-0.2675,-0.2766,-0.2732,0.0,0.0,-0.4514,0.0,-0.6267,0.0,0.0,0.0,-1.1598,-1.4222,-1.7218,-1.8456,-1.9522,-2.0697,0.0,-2.1286,-2.0565,-2.0793,-2.0961,-2.0594,-2.0897,-2.1108,-2.1108,-2.1475,-2.1704,-2.1741,-2.1741,-2.1741,-2.1741,-2.1741,-2.1741,-2.1741,-2.1741,-2.1741,-2.1741,-2.1741,-2.1177,-2.0257,-1.9247,-1.8241,-1.7232,-1.6204,-1.5832,-1.5832,-1.5832,-1.5832,-1.5832,-1.5832,-1.5832,-1.5832,-1.5832,-1.5832,-1.5832,-1.5832,-1.5832,-1.5832,-1.5832,-1.5832,-1.5832,-1.5832,-1.5832,-1.5832,-1.5832,-1.5832,-1.5832,-1.5832,-1.5832,-1.5832,-1.5832,-1.5832,-1.5832,-1.5832,-1.5832,-1.5832,-1.5832,-1.6072,-1.6279,-1.6299,-1.6774,-1.7257,-1.7181,-1.7408,-1.7582,-1.7582,-1.7582,-1.7468,-1.7181,-1.7134,-1.7007,-1.6727,-1.6941,-1.686,-1.6339,-1.6286,-1.6152,-1.5872,-1.6386,-1.642,-1.5872,-1.642,-1.6714,-1.674,-1.7034,-1.7321,-1.7582,-1.7582,-1.7582,-0.1436,-0.2164,-0.3082,-0.3621,0.0,0.0,0.0,-0.6632,-0.7263,-0.8869,-0.9722,0.0,0.0,0.0,-1.6736,-1.8407,-1.9592,-2.0499,-2.0665,-2.1089,-2.1145,-2.0585,-2.0649,-2.0585,-2.0191,-2.0292,-2.0374,-2.0374,-2.0521,-2.0833,-2.1319,-2.1346,-2.1465,-2.1722,-2.1741,-2.1741,-2.1741,-2.1741,-2.1374,-2.0808,-2.0808,-2.0348,-1.9338,-1.8334,-1.7318,-1.6393,-1.6015,-1.5832,-1.5832,-1.5832,-1.5832,-1.5832,-1.5832,-1.5832,-1.5832,-1.5832,-1.5832,-1.5832,-1.5832,-1.5832,-1.5832,-1.5832,-1.5832,-1.5832,-1.5832,-1.5832,-1.5832,-1.5832,-1.5832,-1.5832,-1.5832,-1.5832,-1.5832,-1.5832,-1.5832,-1.5832,-1.5832,-1.5832,-1.5832,-1.5832,-1.5919,-1.6112,-1.648,-1.6727,-1.6994,-1.7361,-1.7515,-1.7582,-1.7582,-1.7582,-1.7542,-1.7428,-1.7255,-1.7027,-1.6734,-1.664,-1.6513,-1.6286,-1.6273,-1.6139,-1.5838,-1.6039,-1.6146,-1.6106,-1.6319,-1.6526,-1.6707,-1.7007,-1.7208,-1.7321,-1.7502,-1.7582,-0.2418,-0.3044,-0.403,0.0,0.0,0.0,0.0,-0.9169,-0.9477,-1.1162,-1.2298,0.0,0.0,0.0,0.0,0.0,-1.9956,-2.064,-2.0365,-2.0677,-2.0723,-2.0191,-2.0255,-2.0173,-1.9769,-1.9852,-1.9934,-1.9934,-2.0044,-2.0356,-2.0897,-2.1034,-2.1236,-2.153,-2.1667,-2.1553,-2.1275,-2.1425,-2.09,-1.9709,-1.9583,-1.9109,-1.8334,-1.7598,-1.6763,-1.5832,-1.5832,-1.5832,-1.5832,-1.5832,-1.5832,-1.5832,-1.5832,-1.5832,-1.5832,-1.5832,-1.5832,-1.5832,-1.5832,-1.5832,-1.5832,-1.5832,-1.5832,-1.5832,-1.5832,-1.5832,-1.5832,-1.5832,-1.5832,-1.5832,-1.5832,-1.5832,-1.5832,-1.5832,-1.5832,-1.5832,-1.5832,-1.5832,-1.5858,-1.5952,-1.6039,-1.6266,-1.676,-1.6921,-1.7121,-1.7522,-1.7582,-1.7582,-1.7582,-1.7582,-1.7582,-1.7582,-1.7408,-1.7208,-1.7001,-1.6714,-1.6513,-1.6413,-1.6326,-1.6139,-1.5838,-1.6005,-1.6159,-1.6273,-1.6453,-1.6647,-1.6847,-1.7048,-1.7194,-1.7288,-1.7488,-1.7582,-0.4559,-0.5184,0.0,0.0,0.0,0.0,0.0,-1.2281,-1.1713,-1.3153,0.0,-1.6416,-1.6668,-1.744,0.0,-1.8519,-1.9333,-1.9934,-1.9925,-2.0264,-2.0209,-1.9393,-1.9668,-1.976,-1.9347,-1.9677,-1.9925,-1.9925,-2.0292,-2.0512,-2.0512,-2.0879,-2.1099,-2.1099,-2.1502,-2.1257,-2.0331,-2.0853,-2.0123,-1.8247,-1.789,-1.7563,-1.7326,-1.7326,-1.6763,-1.5832,-1.5832,-1.5832,-1.5832,-1.5832,-1.5832,-1.5832,-1.5825,-1.5825,-1.5832,-1.5825,-1.5825,-1.5832,-1.5832,-1.5832,-1.5832,-1.5832,-1.5832,-1.5832,-1.5832,-1.5832,-1.5832,-1.5832,-1.5832,-1.5832,-1.5832,-1.5832,-1.5832,-1.5832,-1.5832,-1.5832,-1.5832,-1.5832,-1.5919,-1.6213,-1.6506,-1.68,-1.7094,-1.7388,-1.7582,-1.7582,-1.7582,-1.7582,-1.7582,-1.7582,-1.7582,-1.7582,-1.7582,-1.7582,-1.7582,-1.7315,-1.7021,-1.6727,-1.6433,-1.6139,-1.5838,-1.6386,-1.6567,-1.6286,-1.6847,-1.7141,-1.7148,-1.7148,-1.7295,-1.7575,-1.7575,-1.7582,-0.4559,0.0,0.0,0.0,0.0,0.0,0.0,0.0,0.0,0.0,-1.6736,-1.7597,-1.8253,-1.843,0.0,-1.9021,-1.957,-1.9824,-1.9531,-1.9842,-1.9907,-1.9366,-1.9412,-1.9439,-1.9311,-1.9421,-1.9494,-1.9494,-1.9595,-1.9797,-2.009,-2.0218,-2.0411,-2.0686,-2.0814,-2.044,-1.9557,-1.9704,-1.8849,-1.6921,-1.6815,-1.6907,-1.6974,-1.6253,-1.5912,-1.5832,-1.5832,-1.5832,-1.5832,-1.5832,-1.5832,-1.5805,-1.5605,-1.5651,-1.5805,-1.5598,-1.5651,-1.5832,-1.5832,-1.5832,-1.5832,-1.5832,-1.5832,-1.5832,-1.5832,-1.5832,-1.5832,-1.5832,-1.5832,-1.5832,-1.5832,-1.5832,-1.5832,-1.5832,-1.5832,-1.5832,-1.5832,-1.5832,-1.5919,-1.6213,-1.6339,-1.656,-1.7061,-1.7221,-1.7348,-1.7549,-1.7582,-1.7582,-1.7582,-1.7582,-1.7582,-1.7582,-1.7582,-1.7582,-1.7582,-1.7121,-1.68,-1.6714,-1.6233,-1.5919,-1.5832,-1.5999,-1.6239,-1.6573,-1.6547,-1.674,-1.7148,-1.6304,-1.5921,-1.6008,-1.5447,-1.5102,-0.6567,0.0,0.0,0.0,0.0,0.0,0.0,0.0,0.0,0.0,0.0,-1.8746,-1.9321,-1.9252,0.0,-1.9286,-1.9512,-1.9595,-1.9338,-1.9522,-1.9586,-1.9329,-1.9301,-1.9301,-1.9301,-1.9301,-1.9301,-1.9301,-1.9301,-1.9412,-1.9668,-1.9842,-2.0035,-2.0273,-2.0438,-1.9911,-1.8612,-1.882,-1.7884,-1.5637,-1.585,-1.5959,-1.5927,-1.5558,-1.5491,-1.5665,-1.5778,-1.5765,-1.5665,-1.5785,-1.5691,-1.5478,-1.5418,-1.5504,-1.5625,-1.5331,-1.5478,-1.5812,-1.5698,-1.5732,-1.5832,-1.5832,-1.5832,-1.5832,-1.5832,-1.5832,-1.5832,-1.5832,-1.5832,-1.5832,-1.5832,-1.5832,-1.5832,-1.5832,-1.5832,-1.5832,-1.5832,-1.5832,-1.5919,-1.6213,-1.6273,-1.646,-1.715,-1.7148,-1.7248,-1.7542,-1.7582,-1.7582,-1.7582,-1.7582,-1.7582,-1.7582,-1.7582,-1.7582,-1.7582,-1.7048,-1.6707,-1.6707,-1.6266,-1.6005,-1.6005,-1.6005,-1.6172,-1.6526,-1.6473,-1.6673,-1.7148,-1.651,-1.594,-1.562,-1.5033,-1.4567,0.0,0.0,0.0,0.0,0.0,0.0,0.0,0.0,-1.884,-1.9525,0.0,-1.9878,-1.9961,-1.998,-1.9833,-1.9375,-1.9301,-1.9301,-1.9301,-1.9301,-1.9301,-1.9301,-1.9301,-1.932,-1.9356,-1.9356,-1.9356,-1.9356,-1.9356,-1.9347,-1.9301,-1.9668,-1.987,-1.987,-2.0218,-1.9466,-1.766,-1.8187,-1.7099,-1.4476,-1.5035,-1.4965,-1.4496,-1.5064,-1.5331,-1.5371,-1.5631,-1.5605,-1.5378,-1.5645,-1.5438,-1.499,-1.5224,-1.5337,-1.5317,-1.503,-1.5271,-1.5712,-1.5444,-1.5545,-1.5792,-1.5792,-1.5805,-1.5832,-1.5832,-1.5832,-1.5832,-1.5832,-1.5832,-1.5832,-1.5832,-1.5832,-1.5832,-1.5832,-1.5832,-1.5832,-1.5832,-1.5832,-1.5919,-1.6213,-1.6273,-1.646,-1.715,-1.7148,-1.7248,-1.7542,-1.7582,-1.7582,-1.7582,-1.7582,-1.7582,-1.7582,-1.7582,-1.7582,-1.7582,-1.7068,-1.6747,-1.6747,-1.6473,-1.6313,-1.6313,-1.6313,-1.6313,-1.6313,-1.6573,-1.6854,-1.7148,-1.7045,-1.6665,-1.5861,-1.5755,-1.5108,0.0,0.0,0.0,0.0,0.0,0.0,0.0,0.0,-2.0784,-1.9929,-2.0563,-2.1083,-2.0455,-2.0393,-2.0154,-1.9421,-1.9301,-1.9301,-1.9301,-1.9301,-1.9301,-1.9301,-1.9301,-1.943,-1.976,-1.9797,-1.9797,-1.9797,-1.9797,-1.965,-1.932,-1.9384,-1.9439,-1.9439,-1.9522,-1.8742,-1.6921,-1.7014,-1.6156,-1.4175,-1.4277,-1.4284,-1.4195,-1.4549,-1.4836,-1.5064,-1.5124,-1.5117,-1.5064,-1.5124,-1.5077,-1.4943,-1.4776,-1.485,-1.5023,-1.4723,-1.4843,-1.5137,-1.5077,-1.5244,-1.5491,-1.5491,-1.5645,-1.5832,-1.5832,-1.5832,-1.5832,-1.5832,-1.5832,-1.5832,-1.5832,-1.5832,-1.5832,-1.5832,-1.5832,-1.5832,-1.5832,-1.5832,-1.5919,-1.6213,-1.6273,-1.646,-1.715,-1.7148,-1.7248,-1.7542,-1.7582,-1.7582,-1.7582,-1.7582,-1.7582,-1.7582,-1.7582,-1.7582,-1.7582,-1.7255,-1.7054,-1.7054,-1.678,-1.6613,-1.6613,-1.6613,-1.6613,-1.6613,-1.6673,-1.6854,-1.7148,-1.6304,-1.5811,-1.5861,-1.4888,-1.3922,0.0,0.0,0.0,0.0,0.0,0.0,0.0,0.0,0.0,-2.082,-2.1221,-2.1548,-2.0915,-2.0649,-2.0319,-1.9705,-1.943,-1.9301,-1.9301,-1.9301,-1.9301,-1.9301,-1.9301,-1.9384,-1.9604,-1.9815,-1.9934,-1.9934,-2.0108,-2.0118,-1.9897,-1.9291,-1.894,-1.894,-1.8342,-1.7432,-1.6124,-1.6049,-1.5394,-1.4088,-1.4088,-1.4088,-1.4095,-1.4389,-1.4683,-1.4963,-1.4867,-1.4698,-1.4674,-1.4724,-1.4612,-1.4361,-1.4442,-1.4616,-1.4716,-1.4422,-1.4589,-1.4943,-1.4803,-1.4943,-1.5211,-1.5351,-1.5498,-1.5651,-1.5785,-1.5832,-1.5832,-1.5832,-1.5832,-1.5832,-1.5832,-1.5832,-1.5832,-1.5832,-1.5832,-1.5832,-1.5832,-1.5832,-1.5872,-1.6032,-1.6059,-1.6199,-1.6653,-1.6961,-1.7248,-1.7542,-1.7582,-1.7582,-1.7582,-1.7582,-1.7582,-1.7582,-1.7582,-1.7582,-1.7582,-1.7315,-1.7148,-1.7148,-1.7007,-1.6914,-1.6914,-1.7048,-1.6994,-1.6714,-1.6567,-1.6714,-1.7148,-1.662,-1.6131,-1.5861,-1.5215,-1.403,0.0,0.0,0.0,0.0,0.0,0.0,0.0,0.0,0.0,-2.1741,-2.1741,-2.1603,-2.1181,-2.0842,-2.0493,-2.0099,-1.9677,-1.9412,-1.9412,-1.9347,-1.9301,-1.9301,-1.9301,-1.9329,-1.9402,-1.9787,-2.0035,-2.0035,-2.0338,-2.04,-2.0159,-1.9108,-1.8402,-1.832,-1.7261,-1.6288,-1.5394,-1.5394,-1.4985,-1.4088,-1.4088,-1.4088,-1.4095,-1.4335,-1.4583,-1.481,-1.4537,-1.4311,-1.4115,-1.4343,-1.4161,-1.3756,-1.417,-1.4356,-1.4416,-1.4175,-1.4396,-1.4776,-1.4529,-1.4636,-1.4923,-1.5164,-1.5311,-1.5438,-1.5678,-1.5792,-1.5832,-1.5832,-1.5832,-1.5832,-1.5832,-1.5832,-1.5832,-1.5832,-1.5832,-1.5832,-1.5832,-1.5832,-1.5832,-1.5832,-1.5872,-1.5985,-1.6233,-1.676,-1.7235,-1.7468,-1.7549,-1.7582,-1.7582,-1.7582,-1.7582,-1.7582,-1.7582,-1.7582,-1.7582,-1.7361,-1.7228,-1.7228,-1.7228,-1.7201,-1.7154,-1.7382,-1.7281,-1.6794,-1.6547,-1.6667,-1.7148,-1.7148,-1.6873,-1.618,-1.618,-1.4888,0.0,0.0,0.0,0.0,0.0,0.0,0.0,0.0,0.0,0.0,-2.1741,-2.1603,-2.1181,-2.1062,-2.0897,-2.0503,-2.0108,-1.9842,-1.9842,-1.9531,-1.9301,-1.9301,-1.9301,-1.9439,-1.9815,-2.02,-2.0438,-2.0438,-2.0484,-2.0021,-1.8924,-1.837,-1.775,-1.7016,-1.6804,-1.6288,-1.5394,-1.5394,-1.4985,-1.4088,-1.4088,-1.4088,-1.4088,-1.4128,-1.4168,-1.4202,-1.394,-1.3828,-1.3796,-1.3579,-1.3632,-1.3737,-1.3776,-1.3965,-1.4142,-1.4102,-1.4135,-1.4202,-1.4162,-1.4335,-1.4583,-1.4623,-1.4977,-1.5404,-1.5444,-1.5631,-1.5832,-1.5832,-1.5832,-1.5832,-1.5832,-1.5832,-1.5832,-1.5832,-1.5832,-1.5832,-1.5832,-1.5832,-1.5832,-1.5832,-1.6039,-1.6226,-1.6266,-1.676,-1.7161,-1.7201,-1.7422,-1.7582,-1.7582,-1.7582,-1.7582,-1.7582,-1.7582,-1.7582,-1.7582,-1.7549,-1.7522,-1.7522,-1.7522,-1.7415,-1.7161,-1.7188,-1.7174,-1.7088,-1.7054,-1.7074,-1.7148,-1.7148,-1.7301,-1.7364,-1.7364,-1.6074,0.0,0.0,0.0,0.0,0.0,0.0,0.0,0.0,0.0,-2.1741,-2.1741,-2.1676,-2.1493,-2.1264,-2.1044,-2.0879,-2.0521,-2.0264,-2.0264,-2.0099,-1.9907,-1.9677,-1.965,-1.9723,-1.9916,-2.0292,-2.0613,-2.0833,-2.0851,-2.0418,-1.9299,-1.8205,-1.7234,-1.6324,-1.5649,-1.5068,-1.4657,-1.4664,-1.4496,-1.4088,-1.4088,-1.4001,-1.3841,-1.4008,-1.4088,-1.4088,-1.3822,-1.3652,-1.3568,-1.3568,-1.3568,-1.3568,-1.3822,-1.4004,-1.4088,-1.4088,-1.4088,-1.4088,-1.4088,-1.4168,-1.4302,-1.4469,-1.481,-1.5184,-1.5344,-1.5598,-1.5832,-1.5832,-1.5832,-1.5832,-1.5832,-1.5832,-1.5832,-1.5832,-1.5832,-1.5832,-1.5832,-1.5832,-1.5832,-1.5832,-1.5939,-1.6126,-1.646,-1.6727,-1.7014,-1.7341,-1.7502,-1.7582,-1.7582,-1.7582,-1.7582,-1.7582,-1.7582,-1.7582,-1.7582,-1.7582,-1.7582,-1.7582,-1.7582,-1.7522,-1.7402,-1.7388,-1.7388,-1.7388,-1.7235,-1.7228,-1.7388,-1.7388,-1.7455,-1.7582,-1.6935,-1.5749,0.0,0.0,0.0,0.0,0.0,0.0,0.0,0.0,0.0,0.0,-2.1741,-2.1741,-2.1741,-2.1475,-2.1264,-2.1264,-2.0924,-2.0668,-2.0668,-2.0585,-2.0411,-2.0118,-1.9989,-1.9934,-1.9934,-2.02,-2.0493,-2.0787,-2.0549,-2.0101,-1.9219,-1.7661,-1.6415,-1.5575,-1.4613,-1.4088,-1.4088,-1.4088,-1.4088,-1.4088,-1.4008,-1.3854,-1.3654,-1.3874,-1.3975,-1.3975,-1.3789,-1.3652,-1.3476,-1.3568,-1.3561,-1.3476,-1.3828,-1.4004,-1.4088,-1.4088,-1.4088,-1.4088,-1.4088,-1.4088,-1.4122,-1.4342,-1.4663,-1.5003,-1.5217,-1.5538,-1.5832,-1.5832,-1.5832,-1.5832,-1.5832,-1.5832,-1.5832,-1.5832,-1.5832,-1.5832,-1.5832,-1.5832,-1.5832,-1.5832,-1.5832,-1.5965,-1.6406,-1.6607,-1.6854,-1.7295,-1.7488,-1.7582,-1.7582,-1.7582,-1.7582,-1.7582,-1.7582,-1.7582,-1.7582,-1.7582,-1.7582,-1.7582,-1.7582,-1.7549,-1.7475,-1.7542,-1.7549,-1.7475,-1.7335,-1.7368,-1.7582,-1.7582,-1.747,-1.7147,-1.6287,-1.5108,0.0,0.0,0.0,0.0,0.0,0.0,0.0,0.0,0.0,0.0,-2.1741,-2.1741,-2.1741,-2.1722,-2.1704,-2.1704,-2.1355,-2.1071,-2.1071,-2.075,-2.0512,-2.0493,-2.0163,-1.9934,-1.9934,-1.9943,-1.9971,-1.9989,-1.923,-1.838,-1.7516,-1.6179,-1.509,-1.4193,-1.4095,-1.4088,-1.4088,-1.4088,-1.4088,-1.4082,-1.3801,-1.3661,-1.3559,-1.3661,-1.3667,-1.3599,-1.3703,-1.3652,-1.3652,-1.3483,-1.3483,-1.3652,-1.3737,-1.3913,-1.4088,-1.4088,-1.4088,-1.4088,-1.4088,-1.4088,-1.4088,-1.4108,-1.4496,-1.497,-1.4983,-1.5384,-1.5832,-1.5832,-1.5832,-1.5832,-1.5832,-1.5832,-1.5832,-1.5832,-1.5832,-1.5832,-1.5832,-1.5832,-1.5832,-1.5832,-1.5832,-1.5838,-1.5872,-1.6339,-1.6714,-1.6747,-1.7221,-1.7582,-1.7582,-1.7582,-1.7582,-1.7582,-1.7582,-1.7582,-1.7582,-1.7582,-1.7582,-1.7582,-1.7582,-1.7462,-1.7181,-1.7435,-1.7455,-1.7181,-1.7428,-1.7569,-1.7582,-1.7582,-1.7041,-1.5968,-1.5968,-1.4674,0.0,0.0,0.0,0.0,0.0,0.0,0.0,0.0,0.0,-2.1741,-2.1741,-2.1741,-2.1741,-2.1741,-2.1741,-2.1741,-2.1612,-2.1511,-2.1511,-2.1392,-2.12,-2.0934,-2.0769,-2.0686,-2.0686,-2.0166,-1.9824,-1.9815,-1.8709,-1.7531,-1.6545,-1.5814,-1.4985,-1.4173,-1.4088,-1.4088,-1.4088,-1.4088,-1.3988,-1.3801,-1.3694,-1.344,-1.3073,-1.3273,-1.3367,-1.3373,-1.3393,-1.3487,-1.3737,-1.3828,-1.3822,-1.3737,-1.3913,-1.3997,-1.4088,-1.4088,-1.4088,-1.4088,-1.4088,-1.4208,-1.4362,-1.4362,-1.4763,-1.5244,-1.5244,-1.5518,-1.5832,-1.5832,-1.5832,-1.5832,-1.5832,-1.5832,-1.5832,-1.5832,-1.5832,-1.5879,-1.6072,-1.5965,-1.5635,-1.4968,-1.4914,-1.5089,-1.5369,-1.5702,-1.59,-1.6179,-1.638,-1.6505,-1.6505,-1.6505,-1.6829,-1.7477,-1.7582,-1.7582,-1.7582,-1.7582,-1.7582,-1.7582,-1.7582,-1.7535,-1.7428,-1.7528,-1.7528,-1.7428,-1.7528,-1.7582,-1.7582,-1.7582,-1.7041,-1.5861,-1.5102,-1.3922,0.0,0.0,0.0,0.0,0.0,0.0,0.0,0.0,0.0,-2.1741,-2.1741,-2.1741,-2.1741,-2.1741,-2.1741,-2.1741,-2.1741,-2.1741,-2.1741,-2.1741,-2.163,-2.1355,-2.0929,-2.0665,-2.0665,-1.9669,-1.8971,-1.905,-1.7946,-1.6888,-1.5963,-1.5418,-1.4761,-1.4088,-1.4088,-1.4088,-1.4088,-1.4088,-1.3941,-1.3559,-1.3547,-1.3287,-1.2906,-1.3006,-1.3113,-1.322,-1.3313,-1.3546,-1.3815,-1.3898,-1.3911,-1.3822,-1.4004,-1.4088,-1.4088,-1.4088,-1.4088,-1.4088,-1.4088,-1.4215,-1.4389,-1.4489,-1.4856,-1.5271,-1.5364,-1.5598,-1.5832,-1.5832,-1.5832,-1.5832,-1.5832,-1.5832,-1.5832,-1.5832,-1.5832,-1.5885,-1.6079,-1.5972,-1.5695,-1.5208,-1.512,-1.5264,-1.5645,-1.5915,-1.605,-1.6342,-1.6449,-1.6505,-1.6505,-1.6505,-1.6723,-1.7477,-1.7582,-1.7477,-1.7041,-1.7041,-1.6829,-1.6499,-1.6399,-1.6399,-1.6399,-1.6399,-1.6399,-1.6399,-1.6399,-1.6399,-1.6399,-1.7259,-1.6829,-1.5316,-1.446,-1.3275,0.0,0.0,0.0,0.0,0.0,0.0,0.0,0.0,0.0,-2.1741,-2.1741,-2.1741,-2.1741,-2.1741,-2.1741,-2.1741,-2.1741,-2.1741,-2.1741,-2.1741,-2.1741,-2.1741,-2.0572,-1.9718,-1.9718,-1.8409,-1.7589,-1.7581,-1.68,-1.614,-1.5813,-1.495,-1.4402,-1.4122,-1.4108,-1.4102,-1.4102,-1.4088,-1.3935,-1.3627,-1.3347,-1.3206,-1.3186,-1.2886,-1.2919,-1.324,-1.35,-1.3794,-1.4048,-1.3761,-1.3814,-1.4075,-1.4068,-1.4068,-1.4075,-1.4075,-1.4082,-1.4088,-1.4088,-1.4095,-1.4148,-1.4436,-1.4736,-1.503,-1.5317,-1.5605,-1.5832,-1.5832,-1.5832,-1.5832,-1.5825,-1.5832,-1.5832,-1.5832,-1.5832,-1.5832,-1.5838,-1.5845,-1.6012,-1.658,-1.648,-1.6386,-1.6573,-1.6967,-1.7161,-1.7161,-1.7402,-1.7582,-1.7582,-1.7582,-1.7582,-1.7582,-1.7582,-1.7153,-1.5968,-1.5861,-1.5429,-1.4137,-1.4132,-1.4132,-1.4132,-1.4132,-1.4132,-1.4132,-1.4132,-1.4132,-1.4137,-1.6393,-1.6287,-1.4024,-1.4024,-1.2847,-2.2092,0.0,0.0,0.0,0.0,0.0,0.0,0.0,0.0,-2.1741,-2.1741,-2.1741,-2.1741,-2.1741,-2.1741,-2.1741,-2.1741,-2.1741,-2.1741,-2.1741,-2.1741,-2.1741,-2.081,-2.0103,-2.0103,-1.8474,-1.7318,0.0,-1.6161,-1.5499,-1.5205,-1.5014,-1.4803,-1.4723,-1.4516,-1.4402,-1.4402,-1.4195,-1.3828,-1.3327,-1.3253,-1.3093,-1.2872,-1.2862,-1.3026,-1.35,-1.3146,-1.3287,-1.3761,-1.3674,-1.3687,-1.3741,-1.3534,-1.3581,-1.3768,-1.3768,-1.3901,-1.4088,-1.4088,-1.4222,-1.4449,-1.4743,-1.5037,-1.5331,-1.5618,-1.5765,-1.5832,-1.5832,-1.5933,-1.6123,-1.6305,-1.6109,-1.5832,-1.6028,-1.5927,-1.5885,-1.6106,-1.6152,-1.5998,-1.5363,-1.5444,-1.5685,-1.5869,-1.6216,-1.6497,-1.6287,-1.6461,-1.6617,-1.6617,-1.6505,-1.6723,-1.7799,-1.7694,-1.7153,-1.5968,-1.5861,-1.5429,-1.4137,-1.4132,-1.4132,-1.4132,-1.4132,-1.4132,-1.4132,-1.4132,-1.4132,-1.4132,-1.4776,-1.4347,-1.2847,-1.1982,-1.1341,0.0,0.0,0.0,0.0,0.0,0.0,-2.1909,-2.1919,-2.1919,0.0,-2.1741,-2.1731,-2.183,-2.1741,-2.1741,-2.1741,-2.1741,-2.1741,-2.1741,-2.1741,-2.1741,-2.1741,-2.0538,-1.9704,-1.9704,-1.787,-1.6591,-1.6494,-1.5937,-1.5451,-1.5157,-1.503,-1.4963,-1.4963,-1.4676,-1.4522,-1.4522,-1.4229,-1.3794,-1.3213,-1.3213,-1.3046,-1.2822,-1.2694,-1.2893,-1.3434,-1.2953,-1.3019,-1.3454,-1.332,-1.3347,-1.3447,-1.3273,-1.3387,-1.3559,-1.3559,-1.3834,-1.4088,-1.4088,-1.4282,-1.4569,-1.487,-1.5157,-1.5451,-1.5745,-1.5927,-1.5933,-1.5933,-1.6123,-1.6407,-1.6588,-1.6305,-1.6028,-1.613,-1.6028,-1.5879,-1.6052,-1.6279,-1.6289,-1.5808,-1.5979,-1.6238,-1.6573,-1.6832,-1.6942,-1.6929,-1.7035,-1.7147,-1.7047,-1.6836,-1.7047,-1.7799,-1.7259,-1.6393,-1.5215,-1.4674,-1.3922,-1.2738,-1.263,-1.263,-1.263,-1.263,-1.263,-1.263,-1.263,-1.263,-1.263,-1.3599,-1.3491,-1.2417,-1.1232,-1.0692,0.0,0.0,0.0,0.0,-2.1919,0.0,-2.2008,-2.1919,-2.183,-2.2008,-2.183,-2.1731,-2.2008,-2.183,-2.1741,-2.1741,-2.1741,-2.1651,-2.1553,-2.1553,-2.1463,-2.1374,-1.9712,-1.8611,-1.8611,-1.6943,-1.5832,-1.5832,-1.5832,-1.5718,-1.5458,-1.5204,-1.5064,-1.5064,-1.4743,-1.4569,-1.4569,-1.4249,-1.3794,-1.3213,-1.3213,-1.3046,-1.2815,-1.2472,-1.2665,-1.3193,-1.2879,-1.2906,-1.3133,-1.2826,-1.2879,-1.316,-1.3126,-1.3307,-1.3594,-1.3594,-1.3801,-1.4088,-1.4122,-1.4302,-1.4576,-1.4993,-1.5281,-1.5544,-1.5839,-1.6028,-1.6224,-1.6319,-1.6407,-1.6588,-1.6683,-1.6407,-1.6224,-1.6224,-1.6028,-1.5832,-1.5832,-1.6286,-1.678,-1.7048,-1.7257,-1.7488,-1.7871,-1.8016,-1.8122,-1.8318,-1.8422,-1.8325,-1.8122,-1.8016,-1.7911,-1.7477,-1.6505,-1.5322,-1.4024,-1.2955,-1.1878,-1.0802,-1.0692,-1.0692,-1.0692,-1.0692,-1.0692,-1.0692,-1.0692,-1.0692,-1.0692,-1.2738,-1.3275,-1.22,-1.1232,-1.0814,0.0,0.0,0.0,0.0,-2.2097,0.0,-2.183,-2.1919,-2.2008,0.0,-2.1741,-2.1741,-2.1741,-2.1741,-2.1741,-2.1741,-2.1741,-2.1454,-2.0718,-2.0529,-2.0257,-1.943,-1.8334,-1.7598,-1.7598,-1.648,-1.5832,-1.5832,-1.5832,-1.5805,-1.5745,-1.5691,-1.5658,-1.5658,-1.515,-1.4877,-1.4877,-1.4355,-1.3794,-1.3213,-1.3213,-1.3046,-1.2822,-1.2761,-1.2859,-1.3193,-1.2879,-1.2856,-1.2812,-1.2512,-1.2565,-1.2812,-1.2572,-1.2812,-1.3293,-1.3293,-1.3627,-1.4122,-1.4355,-1.4476,-1.4609,-1.5422,-1.564,-1.5828,-1.631,-1.6494,-1.6588,-1.6784,-1.669,-1.6683,-1.6878,-1.6602,-1.6224,-1.6224,-1.6028,-1.5832,-1.5832,-1.6286,-1.6727,-1.678,-1.7387,-1.7843,-1.801,-1.8443,-1.8653,-1.8429,-1.8646,-1.8653,-1.8325,-1.8115,-1.7589,-1.6617,-1.6187,-1.4995,-1.2955,-1.2521,-1.1878,-1.0802,-1.0692,-1.0692,-1.0692,-1.0692,-1.0692,-1.0692,-1.0692,-1.0692,-1.0692,-1.1341,-1.1559,-1.1341,-1.1345,-1.1542,0.0,0.0,0.0,-2.2176,-2.2185,0.0,0.0,-2.2008,-2.2097,-2.2087,-2.1998,-2.1919,-2.1998,-2.182,-2.1741,-2.1741,-2.1741,-2.1186,-1.9704,-1.9977,-2.0068,-1.9613,-1.8241,-1.7326,-1.7326,-1.6393,-1.5832,-1.5832,-1.5832,-1.5832,-1.5832,-1.5832,-1.5832,-1.5832,-1.5264,-1.4963,-1.4963,-1.3937,-1.3367,-1.3206,-1.2724,-1.2648,-1.2822,-1.2822,-1.2919,-1.3193,-1.2879,-1.2822,-1.2802,-1.2425,-1.2392,-1.2512,-1.2365,-1.2672,-1.3213,-1.3213,-1.3749,-1.4487,-1.4469,-1.4886,-1.5363,-1.5677,-1.5968,-1.6206,-1.6539,-1.6683,-1.6878,-1.7059,-1.7052,-1.6958,-1.7153,-1.6777,-1.6407,-1.6407,-1.6116,-1.5832,-1.5832,-1.6286,-1.6707,-1.6914,-1.7599,-1.822,-1.822,-1.8436,-1.875,-1.8848,-1.8862,-1.8757,-1.8422,-1.8122,-1.7477,-1.6293,-1.5429,-1.4352,-1.2521,-1.1878,-1.1341,-1.0692,-1.0692,-1.0692,-1.0692,-1.0692,-1.0692,-1.0692,-1.0692,-1.0692,-1.0692,-1.1017,-1.1021,-1.0911,-1.1449,-1.1659,0.0,0.0,-2.2185,-2.2264,-2.2176,-2.2008,0.0,0.0,0.0,0.0,0.0,0.0,0.0,0.0,0.0,0.0,0.0,0.0,0.0,-1.9613,0.0,-1.9611,-1.8039,-1.7095,-1.7122,-1.6367,-1.5832,-1.5832,-1.5832,-1.5832,-1.5832,-1.5832,-1.5832,-1.5832,-1.5264,-1.4867,-1.4687,-1.3411,-1.2773,-1.2889,-1.2209,-1.2213,-1.2829,-1.2882,-1.2973,-1.3193,-1.2879,-1.2856,-1.2882,-1.2452,-1.2371,-1.2472,-1.2412,-1.2726,-1.322,-1.3346,-1.3966,-1.4863,-1.4757,-1.5301,-1.6134,-1.6026,-1.6392,-1.677,-1.677,-1.6871,-1.7066,-1.7239,-1.7326,-1.7333,-1.7239,-1.6965,-1.6683,-1.6588,-1.6211,-1.5832,-1.5832,-1.6286,-1.6807,-1.7021,-1.7804,-1.8325,-1.8429,-1.8534,-1.8743,-1.9272,-1.9071,-1.8653,-1.8101,-1.7793,-1.7047,-1.5429,-1.4347,-1.3275,-1.22,-1.1232,-1.0692,-1.0692,-1.0692,-1.0692,-1.0692,-1.0692,-1.0708,-1.0745,-1.0712,-1.0724,-1.0794,-1.1092,-1.1054,-1.0802,-1.1513,-1.1608,0.0,0.0,0.0,-2.2097,-2.1919,-2.1741,-2.1741,0.0,-2.2097,-2.2097,0.0,0.0,0.0,0.0,0.0,0.0,0.0,0.0,-2.0348,-1.943,-1.8551,-1.7218,-1.6429,-1.6224,-1.6751,-1.6132,-1.5832,-1.5832,-1.5832,-1.5832,-1.5832,-1.5832,-1.5832,-1.5832,-1.5264,-1.4591,-1.3767,-1.3057,-1.2439,-1.1994,-1.2155,-1.2401,-1.2835,-1.3033,-1.318,-1.3193,-1.2879,-1.2906,-1.3113,-1.2538,-1.2625,-1.308,-1.2806,-1.2906,-1.324,-1.3729,-1.4302,-1.4977,-1.5429,-1.584,-1.6267,-1.6743,-1.7037,-1.7232,-1.7232,-1.7239,-1.7239,-1.7326,-1.7326,-1.7239,-1.7066,-1.6979,-1.6791,-1.6312,-1.6218,-1.6123,-1.5832,-1.6286,-1.6807,-1.7021,-1.7606,-1.8227,-1.8764,-1.9071,-1.9168,-1.9272,-1.9071,-1.8436,-1.7028,-1.6611,-1.5541,-1.3063,-1.263,-1.2091,-1.1017,-1.0802,-1.0692,-1.0692,-1.0692,-1.0692,-1.0692,-1.0692,-1.0769,-1.0936,-1.0773,-1.0846,-1.1159,-1.1235,-1.1295,-1.1017,-1.1481,-1.1696,0.0,0.0,0.0,0.0,-2.2176,-2.2087,-2.2087,-2.2353,-2.2539,-2.2539,0.0,0.0,0.0,0.0,0.0,0.0,-2.2292,0.0,0.0,0.0,-1.8773,0.0,0.0,0.0,-1.6172,-1.5972,-1.5832,-1.5832,-1.5832,-1.5832,-1.5832,-1.5832,-1.5832,-1.5832,-1.5431,-1.4949,-1.4411,-1.3385,-1.2923,-1.28,-1.2505,-1.2606,-1.3273,-1.34,-1.346,-1.3454,-1.332,-1.3247,-1.3193,-1.3081,-1.3121,-1.3358,-1.3557,-1.3659,-1.3709,-1.4075,-1.4783,-1.5578,-1.5623,-1.6168,-1.6879,-1.7109,-1.7239,-1.7326,-1.7326,-1.7326,-1.7326,-1.7326,-1.7326,-1.7232,-1.7246,-1.7066,-1.6885,-1.6494,-1.645,-1.6388,-1.6182,-1.6547,-1.7164,-1.7576,-1.7922,-1.8429,-1.9071,-1.9078,-1.9071,-1.9279,-1.8311,-1.7351,-1.681,-1.5855,-1.4572,-1.263,-1.2526,-1.2096,-1.0802,-1.0692,-1.0692,-1.0692,-1.0692,-1.0692,-1.0692,-1.0692,-1.0777,-1.0964,-1.0891,-1.0928,-1.1074,-1.1444,-1.1477,-1.13,-1.1855,-1.1888,-2.2185,0.0,0.0,0.0,-2.2264,-2.2264,-2.2264,-2.253,-2.2706,-2.2803,-2.2794,0.0,0.0,0.0,0.0,0.0,0.0,-2.198,0.0,-1.9857,0.0,0.0,0.0,0.0,0.0,-1.5999,-1.5952,-1.5952,-1.5872,-1.5832,-1.5832,-1.5832,-1.5832,-1.5832,-1.5471,-1.5086,-1.4597,-1.3516,-1.3107,-1.3225,-1.2723,-1.28,-1.3559,-1.3559,-1.3559,-1.3641,-1.3561,-1.3447,-1.34,-1.3457,-1.3598,-1.3842,-1.423,-1.4384,-1.4455,-1.462,-1.5191,-1.6042,-1.6031,-1.6591,-1.7326,-1.7326,-1.7326,-1.7326,-1.7326,-1.7326,-1.7326,-1.7326,-1.7326,-1.7326,-1.7326,-1.7153,-1.6994,-1.6788,-1.6793,-1.669,-1.6471,-1.6794,-1.7353,-1.7865,-1.8212,-1.8527,-1.8743,-1.8966,-1.9078,-1.9175,-1.7772,-1.6592,-1.6168,-1.5001,-1.3604,-1.2091,-1.2205,-1.1991,-1.0802,-1.0692,-1.0692,-1.0692,-1.0802,-1.0826,-1.0765,-1.0769,-1.0854,-1.1033,-1.1037,-1.115,-1.115,-1.1507,-1.1642,-1.1688,-1.2138,-1.2125,0.0,0.0,0.0,-2.2097,0.0,-2.182,-2.2008,-2.2264,-2.253,-2.2715,-2.2969,-2.3057,-2.3057,0.0,0.0,0.0,0.0,0.0,0.0,0.0,0.0,0.0,0.0,0.0,0.0,-1.6426,-1.6259,-1.6259,-1.5992,-1.5832,-1.5832,-1.5832,-1.5832,-1.5832,-1.5277,-1.4604,-1.3676,-1.3069,-1.2584,-1.2318,-1.2572,-1.2981,-1.3559,-1.3559,-1.3559,-1.3627,-1.3347,-1.3534,-1.3919,-1.3618,-1.3925,-1.4678,-1.4643,-1.4989,-1.5533,-1.5533,-1.5748,-1.607,-1.6642,-1.7055,-1.7326,-1.7326,-1.7326,-1.7326,-1.7326,-1.7326,-1.7326,-1.7326,-1.7326,-1.7326,-1.7326,-1.7326,-1.7218,-1.7049,-1.7029,-1.6926,-1.6726,-1.6934,-1.7353,-1.7865,-1.8212,-1.8213,-1.7687,-1.8534,-1.9175,-1.8974,-1.7674,-1.6168,-1.4787,-1.3609,-1.2422,-1.0907,-1.1017,-1.1021,-1.0692,-1.0692,-1.0692,-1.0692,-1.0911,-1.1101,-1.0952,-1.096,-1.1041,-1.1212,-1.1212,-1.1331,-1.1676,-1.168,-1.1893,-1.2416,-1.224,-1.2157,0.0,0.0,-2.2097,-2.1919,0.0,-2.2008,-2.2097,-2.2274,-2.2441,-2.253,-2.2618,-2.2608,-2.2608,0.0,0.0,0.0,0.0,0.0,0.0,0.0,0.0,0.0,0.0,0.0,0.0,0.0,-1.5979,-1.5979,-1.5705,-1.5625,-1.5818,-1.5832,-1.5832,-1.5832,-1.5451,-1.5066,-1.4508,-1.4125,-1.3795,-1.351,-1.3607,-1.3691,-1.3935,-1.3935,-1.3935,-1.3928,-1.3987,-1.4069,-1.4241,-1.4475,-1.4724,-1.5006,-1.5288,-1.5631,-1.5827,-1.5827,-1.6155,-1.665,-1.7055,-1.7238,-1.7326,-1.7326,-1.7326,-1.7326,-1.7326,-1.7326,-1.7326,-1.7326,-1.7326,-1.7239,-1.716,-1.7217,-1.7309,-1.6933,-1.7069,-1.7285,-1.7076,-1.7228,-1.7539,-1.7963,-1.762,-1.7259,-1.7252,-1.714,-1.6922,-1.6605,-1.5316,-1.425,-1.3496,-1.2639,-1.1673,-1.0802,-1.1131,-1.124,-1.0692,-1.0911,-1.1071,-1.1201,-1.1432,-1.163,-1.1473,-1.1368,-1.1334,-1.1399,-1.1405,-1.1334,-1.1339,-1.2029,-1.2232,-1.2065,-1.258,-1.2748,-2.1741,-2.183,-2.1919,-2.1741,-2.1553,-2.1445,-2.1535,-2.1436,-2.1239,-2.1329,-2.1329,-2.1329,-2.1329,0.0,0.0,0.0,0.0,0.0,0.0,-1.8195,0.0,0.0,0.0,0.0,0.0,-1.6253,-1.6099,-1.5992,-1.5718,-1.5631,-1.5818,-1.5832,-1.5832,-1.5832,-1.5545,-1.5304,-1.5117,-1.4716,-1.4429,-1.4242,-1.4135,-1.4088,-1.4082,-1.3975,-1.4011,-1.4088,-1.4158,-1.4324,-1.4497,-1.4956,-1.5238,-1.5452,-1.5747,-1.6052,-1.625,-1.625,-1.6579,-1.7055,-1.726,-1.7326,-1.7326,-1.7326,-1.7326,-1.7326,-1.7326,-1.7326,-1.7326,-1.7326,-1.7413,-1.7414,-1.7239,-1.738,-1.7449,-1.7069,-1.7285,-1.749,-1.7385,-1.7448,-1.7582,-1.7371,-1.7054,-1.6511,-1.5968,-1.5429,-1.5108,-1.5209,-1.4143,-1.3181,-1.2743,-1.1882,-1.124,-1.0802,-1.1131,-1.127,-1.0785,-1.1059,-1.1321,-1.1405,-1.1685,-1.1876,-1.1791,-1.1574,-1.1574,-1.1704,-1.1537,-1.1409,-1.1335,-1.1959,-1.2243,-1.2194,-1.2706,-1.2952]},{"header":{"parameterUnit":"m.s-1","parameterCategory":1,"la1":30.6,"la2":29.2853,"lo1":-89.7004,"lo2":-87.6739,"dy":0.0162,"dx":0.0183,"nx":112,"ny":82,"refTime":"2023-03-31T06:00:00:Z","depth":0,"parameterNumber":3,"parameterNumberName":"V-component_of_WINDS"},"data":[0.0,0.0,0.0,0.0,0.0,0.0,0.0,0.0,0.0,0.0,0.0,0.0,0.0,0.0,0.0,0.0,0.0,0.0,0.0,0.0,0.0,0.0,0.0,0.0,0.0,0.0,0.0,0.0,0.0,0.0,0.0,0.0,0.0,0.0,0.0,0.0,0.0,0.0,0.0,0.0,0.0,0.0,0.0,0.0,0.0,0.0,0.0,0.0,0.0,0.0,0.0,0.0,0.0,0.0,0.0,0.0,0.0,0.0,0.0,0.0,0.0,0.0,0.0,0.0,0.0,0.0,0.0,0.0,0.0,0.0,0.0,0.0,0.0,0.0,0.0,0.0,0.0,0.0,0.0,0.0,0.0,0.0,0.0,0.0,0.0,0.0,0.0,0.0,0.0,0.0,-4.4008,-4.3404,-4.3955,-4.4638,-4.525,-4.4134,-4.3804,-4.4638,0.0,0.0,0.0,0.0,0.0,0.0,0.0,0.0,0.0,0.0,0.0,0.0,0.0,0.0,0.0,0.0,0.0,0.0,0.0,0.0,0.0,0.0,0.0,0.0,0.0,0.0,0.0,0.0,0.0,0.0,0.0,0.0,0.0,0.0,0.0,0.0,0.0,0.0,0.0,0.0,0.0,0.0,0.0,0.0,0.0,0.0,0.0,0.0,0.0,0.0,0.0,0.0,0.0,0.0,0.0,0.0,0.0,0.0,0.0,0.0,0.0,0.0,0.0,0.0,0.0,0.0,0.0,0.0,0.0,0.0,0.0,0.0,0.0,0.0,0.0,0.0,0.0,0.0,0.0,0.0,0.0,0.0,0.0,0.0,0.0,0.0,0.0,0.0,0.0,0.0,0.0,0.0,0.0,0.0,0.0,0.0,0.0,0.0,0.0,0.0,0.0,0.0,0.0,0.0,-4.3248,-4.2639,-4.2272,-4.2388,-4.3049,-4.1738,-4.1741,-4.3685,0.0,0.0,0.0,0.0,0.0,0.0,0.0,0.0,0.0,0.0,0.0,0.0,0.0,0.0,0.0,0.0,0.0,0.0,0.0,0.0,0.0,0.0,0.0,0.0,0.0,0.0,0.0,0.0,0.0,0.0,0.0,0.0,0.0,0.0,0.0,0.0,0.0,0.0,0.0,0.0,0.0,0.0,0.0,0.0,0.0,0.0,0.0,0.0,0.0,0.0,0.0,0.0,0.0,0.0,0.0,0.0,0.0,0.0,0.0,0.0,0.0,0.0,0.0,0.0,0.0,0.0,0.0,0.0,0.0,0.0,0.0,0.0,0.0,0.0,0.0,0.0,0.0,0.0,0.0,0.0,0.0,0.0,0.0,0.0,0.0,0.0,0.0,0.0,0.0,0.0,0.0,0.0,0.0,0.0,0.0,0.0,0.0,0.0,0.0,0.0,0.0,0.0,0.0,-4.3414,-4.2761,-4.1851,-4.16,-4.148,-4.1464,-4.0485,-4.0795,-4.2894,-4.2834,0.0,0.0,0.0,0.0,0.0,0.0,0.0,0.0,0.0,0.0,0.0,0.0,0.0,0.0,0.0,0.0,0.0,0.0,0.0,0.0,0.0,0.0,0.0,0.0,0.0,0.0,0.0,0.0,0.0,0.0,0.0,0.0,0.0,0.0,0.0,0.0,0.0,0.0,0.0,0.0,0.0,0.0,0.0,0.0,0.0,0.0,0.0,0.0,0.0,0.0,0.0,0.0,0.0,0.0,0.0,0.0,0.0,0.0,0.0,0.0,0.0,0.0,0.0,0.0,0.0,0.0,0.0,0.0,0.0,0.0,0.0,0.0,0.0,0.0,0.0,0.0,0.0,0.0,0.0,0.0,0.0,0.0,0.0,0.0,0.0,0.0,0.0,0.0,0.0,0.0,0.0,0.0,0.0,0.0,0.0,0.0,0.0,0.0,0.0,0.0,0.0,0.0,-4.2454,-4.1846,-4.0915,-4.0885,-4.0751,-4.0289,-3.9967,-4.0478,-4.2173,-4.194,0.0,0.0,0.0,0.0,0.0,0.0,0.0,0.0,0.0,0.0,0.0,0.0,0.0,0.0,0.0,0.0,0.0,0.0,0.0,0.0,0.0,0.0,0.0,0.0,0.0,0.0,0.0,0.0,0.0,0.0,0.0,0.0,0.0,0.0,0.0,0.0,0.0,0.0,0.0,0.0,0.0,0.0,0.0,0.0,0.0,0.0,0.0,0.0,0.0,0.0,0.0,0.0,0.0,0.0,0.0,0.0,0.0,0.0,0.0,0.0,0.0,0.0,0.0,0.0,0.0,0.0,0.0,0.0,0.0,0.0,0.0,0.0,0.0,0.0,0.0,0.0,0.0,0.0,0.0,0.0,0.0,0.0,0.0,0.0,0.0,0.0,0.0,0.0,0.0,0.0,0.0,0.0,0.0,0.0,0.0,0.0,0.0,0.0,0.0,0.0,0.0,0.0,-4.0989,-4.0036,-3.9633,-3.9566,-3.9565,-3.9596,-4.0093,-4.0789,-4.1509,-4.2093,0.0,0.0,0.0,0.0,0.0,0.0,0.0,0.0,0.0,0.0,0.0,0.0,0.0,0.0,0.0,0.0,0.0,0.0,0.0,0.0,0.0,0.0,0.0,0.0,0.0,0.0,0.0,0.0,0.0,0.0,0.0,0.0,0.0,0.0,0.0,0.0,0.0,0.0,0.0,0.0,0.0,0.0,0.0,0.0,0.0,0.0,0.0,0.0,0.0,0.0,0.0,0.0,0.0,0.0,0.0,0.0,0.0,0.0,0.0,0.0,0.0,0.0,0.0,0.0,0.0,0.0,0.0,0.0,0.0,0.0,0.0,0.0,0.0,0.0,0.0,0.0,0.0,0.0,0.0,0.0,0.0,0.0,0.0,0.0,0.0,0.0,0.0,0.0,0.0,0.0,0.0,0.0,0.0,0.0,0.0,0.0,0.0,0.0,0.0,0.0,0.0,0.0,-4.1078,-4.0288,-3.8909,-3.9125,-3.9266,-3.8928,-3.9893,-4.0956,-4.2078,0.0,0.0,0.0,0.0,0.0,0.0,0.0,0.0,0.0,0.0,0.0,0.0,0.0,0.0,0.0,0.0,0.0,0.0,0.0,0.0,0.0,0.0,0.0,0.0,0.0,0.0,0.0,0.0,0.0,0.0,0.0,0.0,0.0,0.0,0.0,0.0,0.0,0.0,0.0,0.0,0.0,0.0,0.0,0.0,0.0,0.0,0.0,0.0,0.0,0.0,0.0,0.0,0.0,0.0,0.0,0.0,0.0,0.0,0.0,0.0,0.0,0.0,0.0,0.0,0.0,0.0,0.0,0.0,0.0,0.0,0.0,0.0,0.0,0.0,0.0,0.0,0.0,0.0,0.0,0.0,0.0,0.0,0.0,0.0,0.0,0.0,0.0,0.0,0.0,0.0,0.0,0.0,0.0,0.0,0.0,0.0,0.0,0.0,0.0,0.0,0.0,0.0,-4.122,-4.0808,-4.011,-3.8748,-3.9093,-3.9234,-3.8866,-4.0065,-4.1209,-4.2141,0.0,0.0,0.0,0.0,0.0,0.0,0.0,0.0,0.0,0.0,0.0,0.0,0.0,0.0,0.0,0.0,0.0,0.0,0.0,0.0,0.0,0.0,0.0,0.0,0.0,0.0,0.0,0.0,0.0,0.0,0.0,0.0,0.0,0.0,0.0,0.0,0.0,0.0,0.0,0.0,0.0,0.0,0.0,0.0,0.0,0.0,0.0,0.0,0.0,0.0,0.0,0.0,0.0,0.0,0.0,0.0,0.0,0.0,0.0,0.0,0.0,0.0,0.0,0.0,0.0,0.0,0.0,0.0,0.0,0.0,0.0,0.0,0.0,0.0,0.0,0.0,0.0,0.0,0.0,0.0,0.0,0.0,0.0,0.0,0.0,0.0,0.0,0.0,0.0,0.0,0.0,0.0,0.0,0.0,0.0,0.0,0.0,0.0,0.0,0.0,0.0,0.0,-4.0903,-3.9919,-3.9254,-3.9324,-3.9396,-3.9422,-3.9514,-4.0751,-4.1525,0.0,0.0,0.0,0.0,0.0,0.0,0.0,0.0,0.0,0.0,0.0,0.0,0.0,0.0,0.0,0.0,0.0,0.0,0.0,0.0,0.0,0.0,0.0,0.0,0.0,0.0,0.0,0.0,0.0,0.0,0.0,0.0,0.0,0.0,0.0,0.0,0.0,0.0,0.0,0.0,0.0,0.0,0.0,0.0,0.0,0.0,0.0,0.0,0.0,0.0,0.0,0.0,0.0,0.0,0.0,0.0,0.0,0.0,0.0,0.0,0.0,0.0,0.0,0.0,0.0,0.0,0.0,0.0,0.0,0.0,0.0,0.0,0.0,0.0,0.0,0.0,0.0,0.0,0.0,0.0,0.0,0.0,0.0,0.0,0.0,0.0,0.0,0.0,0.0,0.0,0.0,0.0,0.0,0.0,0.0,0.0,0.0,0.0,0.0,0.0,0.0,0.0,0.0,-4.06,-4.0167,-3.9963,-4.0012,-4.0534,-4.0858,-4.0895,-4.174,-4.2395,-4.2892,0.0,0.0,0.0,0.0,0.0,0.0,0.0,0.0,0.0,0.0,0.0,0.0,0.0,0.0,0.0,0.0,0.0,0.0,0.0,0.0,0.0,0.0,0.0,0.0,0.0,0.0,0.0,0.0,0.0,0.0,0.0,0.0,0.0,0.0,0.0,0.0,0.0,0.0,0.0,0.0,0.0,0.0,0.0,0.0,0.0,0.0,0.0,0.0,0.0,0.0,0.0,0.0,0.0,0.0,0.0,0.0,0.0,0.0,0.0,0.0,0.0,0.0,0.0,0.0,0.0,0.0,0.0,0.0,0.0,0.0,0.0,0.0,0.0,0.0,0.0,0.0,0.0,0.0,0.0,0.0,0.0,0.0,0.0,0.0,0.0,0.0,0.0,0.0,0.0,0.0,0.0,0.0,0.0,0.0,0.0,0.0,0.0,0.0,0.0,0.0,0.0,0.0,-4.1104,-4.086,-4.0788,-4.1077,-4.1559,-4.1885,-4.1918,-4.2509,-4.3075,-4.3453,0.0,0.0,0.0,0.0,0.0,0.0,0.0,0.0,0.0,0.0,0.0,0.0,0.0,0.0,0.0,0.0,0.0,0.0,0.0,0.0,0.0,0.0,0.0,0.0,0.0,0.0,0.0,0.0,0.0,0.0,0.0,0.0,0.0,0.0,0.0,0.0,0.0,0.0,0.0,0.0,0.0,0.0,0.0,0.0,0.0,0.0,0.0,0.0,0.0,0.0,0.0,0.0,0.0,0.0,0.0,0.0,0.0,0.0,0.0,0.0,0.0,0.0,0.0,0.0,0.0,0.0,0.0,0.0,0.0,0.0,0.0,0.0,0.0,0.0,0.0,0.0,0.0,0.0,0.0,0.0,0.0,0.0,0.0,0.0,0.0,0.0,0.0,0.0,0.0,0.0,0.0,0.0,0.0,0.0,0.0,0.0,0.0,0.0,0.0,0.0,0.0,0.0,-4.2134,-4.1779,-4.1685,-4.2418,-4.2576,-4.2624,-4.272,-4.3339,-4.3654,-4.3588,0.0,0.0,0.0,0.0,0.0,0.0,0.0,0.0,0.0,0.0,0.0,0.0,0.0,0.0,0.0,0.0,0.0,0.0,0.0,0.0,0.0,0.0,0.0,0.0,0.0,0.0,0.0,0.0,0.0,0.0,0.0,0.0,0.0,0.0,0.0,0.0,0.0,0.0,0.0,0.0,0.0,0.0,0.0,0.0,0.0,0.0,0.0,0.0,0.0,0.0,0.0,0.0,0.0,0.0,0.0,0.0,0.0,0.0,0.0,0.0,-4.1523,-4.1464,0.0,0.0,0.0,0.0,0.0,0.0,0.0,0.0,0.0,0.0,0.0,0.0,0.0,0.0,0.0,0.0,0.0,0.0,0.0,0.0,0.0,0.0,0.0,0.0,0.0,0.0,0.0,0.0,0.0,0.0,0.0,0.0,0.0,0.0,0.0,0.0,0.0,0.0,0.0,0.0,-4.2337,-4.2675,-4.301,-4.3149,-4.3777,-4.4142,-4.4162,-4.4791,-4.5007,-4.44,-4.5071,0.0,0.0,0.0,0.0,0.0,0.0,0.0,0.0,0.0,0.0,0.0,0.0,0.0,0.0,0.0,0.0,0.0,0.0,0.0,0.0,0.0,0.0,0.0,0.0,0.0,0.0,0.0,0.0,0.0,0.0,0.0,0.0,0.0,0.0,0.0,0.0,0.0,0.0,0.0,0.0,0.0,0.0,0.0,0.0,0.0,0.0,0.0,0.0,0.0,0.0,0.0,0.0,0.0,0.0,0.0,0.0,0.0,0.0,0.0,-4.2135,-4.1919,0.0,0.0,0.0,0.0,0.0,0.0,0.0,0.0,0.0,0.0,0.0,0.0,0.0,0.0,0.0,0.0,0.0,0.0,0.0,0.0,0.0,0.0,0.0,0.0,0.0,0.0,0.0,0.0,0.0,0.0,0.0,0.0,0.0,0.0,0.0,0.0,0.0,0.0,0.0,0.0,-4.3352,-4.3403,-4.3555,-4.3944,-4.4671,-4.5128,-4.5128,-4.5805,-4.6058,-4.5669,-4.5686,0.0,0.0,0.0,0.0,0.0,0.0,0.0,0.0,0.0,0.0,0.0,0.0,0.0,0.0,0.0,0.0,0.0,0.0,0.0,0.0,0.0,0.0,0.0,0.0,0.0,0.0,0.0,0.0,0.0,0.0,0.0,0.0,0.0,0.0,0.0,0.0,0.0,0.0,0.0,0.0,0.0,0.0,0.0,0.0,0.0,0.0,0.0,0.0,0.0,0.0,0.0,0.0,0.0,-4.2743,-4.3237,-4.2398,-4.4096,-4.4546,-4.3961,-4.3444,-4.3127,-4.2994,-4.291,0.0,0.0,0.0,0.0,0.0,0.0,0.0,0.0,0.0,0.0,0.0,0.0,0.0,0.0,0.0,0.0,0.0,0.0,0.0,0.0,0.0,0.0,-4.4814,-4.5636,-4.5773,-4.5422,-4.4443,0.0,0.0,0.0,0.0,0.0,0.0,0.0,0.0,0.0,0.0,0.0,-4.4231,-4.4045,-4.4062,-4.4705,-4.5449,-4.5889,-4.5889,-4.6684,-4.7005,-4.6616,-4.6397,-4.6109,0.0,0.0,0.0,0.0,0.0,0.0,0.0,0.0,0.0,0.0,0.0,0.0,0.0,0.0,0.0,0.0,0.0,0.0,0.0,0.0,0.0,0.0,0.0,0.0,0.0,0.0,0.0,0.0,0.0,0.0,0.0,0.0,-4.5468,-4.5657,0.0,0.0,0.0,0.0,0.0,0.0,0.0,0.0,0.0,0.0,0.0,0.0,0.0,-4.1187,-4.1253,-4.2503,-4.2874,-4.2364,-4.4531,-4.5461,-4.5337,-4.4867,-4.4926,-4.5407,-4.5308,0.0,-4.427,-4.3702,0.0,0.0,0.0,0.0,0.0,0.0,0.0,0.0,0.0,0.0,0.0,0.0,0.0,0.0,0.0,0.0,0.0,0.0,0.0,0.0,0.0,0.0,-4.3905,-4.4648,-4.5286,-4.5652,-4.5506,-4.5625,-4.5506,-4.466,-4.4045,-4.369,0.0,0.0,0.0,0.0,0.0,0.0,-4.3639,-4.4637,-4.5449,-4.5551,-4.621,-4.665,-4.665,-4.7919,-4.7902,-4.5974,-4.7564,-4.7699,-4.5788,-4.6075,0.0,0.0,0.0,0.0,0.0,0.0,0.0,0.0,0.0,0.0,0.0,0.0,0.0,0.0,0.0,0.0,0.0,0.0,0.0,0.0,0.0,0.0,0.0,0.0,0.0,0.0,0.0,0.0,0.0,-4.4628,-4.5594,-4.4644,-4.4919,-4.4253,0.0,0.0,0.0,0.0,0.0,0.0,0.0,0.0,0.0,-4.2044,-4.2392,-4.265,-4.2783,-4.4165,-4.4727,-4.4507,-4.5774,-4.6391,-4.6407,-4.6024,-4.5996,-4.6356,-4.6356,-4.6126,-4.5788,-4.5522,-4.4677,-4.3504,0.0,0.0,0.0,0.0,-4.1852,-4.2262,-4.2722,-4.2736,-4.2802,-4.399,0.0,0.0,0.0,0.0,0.0,0.0,0.0,-4.4553,-4.4354,-4.4856,-4.5456,-4.5737,-4.6718,-4.7564,-4.7564,-4.7242,-4.6481,-4.4891,-4.4976,-4.5043,-4.4215,-4.4062,0.0,0.0,0.0,-4.4451,-4.4113,-4.5026,-4.5703,-4.5703,-4.6735,-4.7428,-4.7428,-4.8392,-4.8595,-4.7614,-4.7682,-4.7513,-4.6972,-4.7038,-4.7153,0.0,0.0,0.0,0.0,0.0,0.0,0.0,0.0,0.0,0.0,0.0,0.0,0.0,0.0,0.0,0.0,0.0,0.0,0.0,0.0,0.0,0.0,0.0,0.0,0.0,0.0,0.0,0.0,-4.4994,-4.556,-4.4064,-4.5098,-4.4722,0.0,0.0,0.0,0.0,0.0,0.0,-4.2019,-4.2153,-4.2594,-4.3419,-4.3915,-4.4216,-4.4359,-4.5551,-4.6094,-4.5857,-4.6493,-4.6766,-4.6782,-4.6568,-4.6534,-4.6534,-4.6534,-4.6534,-4.6507,-4.6543,-4.5848,-4.4798,-4.3984,-4.3348,-4.2821,-4.2971,-4.3056,-4.3192,-4.4313,-4.4355,-4.4198,-4.5331,-4.5428,-4.4997,-4.4606,0.0,0.0,0.0,0.0,-4.494,-4.4776,-4.5648,-4.6515,-4.6515,-4.7496,-4.8443,-4.8443,-4.802,-4.709,-4.5229,-4.5602,-4.5805,-4.4502,-4.4282,0.0,-4.4282,-4.4451,-4.4502,-4.4316,-4.5128,-4.5771,-4.5957,-4.7141,-4.8003,-4.8189,-4.8866,-4.912,-4.8792,-4.8037,-4.7734,-4.7953,-4.7889,-4.7753,-4.7571,0.0,0.0,0.0,0.0,0.0,0.0,0.0,0.0,0.0,0.0,0.0,0.0,0.0,0.0,0.0,0.0,0.0,0.0,0.0,0.0,0.0,0.0,0.0,0.0,0.0,0.0,0.0,0.0,0.0,-4.5299,-4.6225,0.0,0.0,0.0,0.0,-4.2449,-4.3061,-4.3471,-4.3418,-4.4056,-4.487,-4.5887,-4.5917,-4.5936,-4.5813,-4.6562,-4.6548,-4.5696,-4.6475,-4.6831,-4.6763,-4.6095,-4.5769,-4.5769,-4.5769,-4.5769,-4.5778,-4.5798,-4.5701,-4.5533,-4.4821,-4.4147,-4.36,-4.4236,-4.4546,-4.4601,-4.4592,-4.501,-4.5602,-4.5686,-4.5784,-4.5592,-4.4181,-4.4323,0.0,0.0,-4.4831,-4.4776,-4.4626,-4.5162,-4.5771,-4.5771,-4.6346,-4.6904,-4.6904,-4.687,-4.6616,-4.5805,-4.5128,-4.4434,-4.3606,0.0,-4.347,-4.347,-4.4113,-4.4316,-4.3572,-4.4773,-4.5974,-4.6667,-4.7445,-4.8189,-4.89,-4.961,-4.9486,-4.8243,-4.9294,-4.9376,-4.8062,-4.8277,-4.8817,-4.9541,-4.8761,0.0,0.0,0.0,0.0,0.0,0.0,0.0,0.0,0.0,0.0,0.0,0.0,0.0,0.0,0.0,0.0,0.0,0.0,0.0,0.0,0.0,0.0,0.0,0.0,0.0,0.0,0.0,0.0,-4.7169,-4.7984,0.0,-4.5912,-4.524,-4.4687,-4.4112,-4.4668,-4.5102,-4.5303,-4.5455,-4.5674,-4.5924,-4.6878,-4.6875,-4.5751,-4.6994,-4.7161,-4.6439,-4.6196,-4.6111,-4.6056,-4.5348,-4.4993,-4.4993,-4.4993,-4.4744,-4.4324,-4.4351,-4.519,-4.6361,-4.5632,-4.5176,-4.4914,-4.471,-4.4626,-4.4694,-4.5128,-4.5162,-4.4976,-4.4976,-4.5032,-4.4987,-4.4461,-4.4589,-4.4831,-4.4737,-4.472,-4.4776,-4.4626,-4.5145,-4.5703,-4.5703,-4.6261,-4.6786,-4.6786,-4.6786,-4.6583,-4.5838,-4.5483,-4.506,-4.4299,-4.4164,-4.4164,-4.4164,-4.4401,-4.4485,-4.4198,-4.5077,-4.5805,-4.6058,-4.6752,-4.7293,-4.7564,-4.792,-4.7912,-4.7427,-4.7503,-4.7638,-4.7906,-4.7992,-4.8253,-4.8902,-4.8967,-4.916,0.0,0.0,0.0,0.0,0.0,0.0,0.0,0.0,0.0,0.0,0.0,0.0,0.0,0.0,0.0,0.0,0.0,0.0,0.0,0.0,0.0,0.0,0.0,0.0,0.0,0.0,-4.8378,-4.8109,-4.9233,-4.9314,-4.747,-4.7097,-4.6716,-4.6186,-4.6534,-4.6771,-4.6896,-4.7056,-4.6972,-4.657,-4.7524,-4.7301,-4.5688,-4.6689,-4.6795,-4.604,-4.5551,-4.5348,-4.5274,-4.4783,-4.4572,-4.4572,-4.4341,-4.3987,-4.3556,-4.334,-4.4252,-4.5751,-4.5454,-4.5336,-4.5331,-4.5331,-4.501,-4.4688,-4.5449,-4.5213,-4.4587,-4.4587,-4.4587,-4.4587,-4.4587,-4.4682,-4.4737,-4.4643,-4.4682,-4.4737,-4.4626,-4.4942,-4.5331,-4.5331,-4.5686,-4.6041,-4.6041,-4.6041,-4.5906,-4.5415,-4.5534,-4.5466,-4.4705,-4.4587,-4.471,-4.5004,-4.5055,-4.5038,-4.5094,-4.5479,-4.5801,-4.5801,-4.6242,-4.6632,-4.6927,-4.7003,-4.7056,-4.7009,-4.6567,-4.6723,-4.7724,-4.7624,-4.7823,-4.8412,-4.8561,-4.8797,-4.915,0.0,0.0,0.0,0.0,0.0,0.0,0.0,0.0,0.0,0.0,0.0,0.0,0.0,0.0,0.0,0.0,0.0,0.0,0.0,0.0,0.0,0.0,0.0,-4.6411,-4.7175,-4.7861,-4.8141,-4.9955,-5.0468,-4.8627,-4.9188,-4.9393,-4.8701,-4.8644,-4.8453,-4.8175,-4.8778,-4.8765,-4.7885,-4.7885,-4.7204,-4.5697,-4.5681,-4.5332,-4.4572,-4.4556,-4.4556,-4.4572,-4.4572,-4.4572,-4.451,-4.3879,-4.3571,-4.3464,-4.2863,-4.3043,-4.3701,-4.4377,-4.4636,-4.4739,-4.616,-4.5771,-4.4637,-4.5348,-4.5128,-4.4536,-4.4519,-4.4502,-4.4502,-4.4502,-4.4519,-4.4536,-4.4536,-4.457,-4.4643,-4.4643,-4.4643,-4.4643,-4.4643,-4.4643,-4.4643,-4.4587,-4.4587,-4.4587,-4.4643,-4.5162,-4.5432,-4.4705,-4.457,-4.4863,-4.5728,-4.5886,0.0,-4.6037,-4.5942,-4.5903,-4.6049,-4.5954,-4.626,-4.7056,-4.7147,-4.7069,-4.6934,-4.676,-4.6864,-4.7409,-4.7313,-4.756,-4.8269,-4.7535,-4.7535,-4.8306,0.0,0.0,0.0,0.0,0.0,0.0,0.0,0.0,0.0,0.0,0.0,0.0,0.0,0.0,0.0,0.0,0.0,0.0,0.0,0.0,0.0,0.0,-4.6626,-4.7248,-4.9187,-5.0853,-5.1863,-5.2273,-5.2288,-5.1821,-5.115,-5.0351,-4.9433,-4.9299,-4.918,-4.8923,-4.9006,-4.8433,-4.7153,-4.7622,-4.6932,-4.4933,-4.4919,-4.4862,-4.4572,-4.4079,-4.4095,-4.4572,-4.4572,-4.431,-4.3864,-4.4172,-4.3479,-4.2155,-4.2479,-4.2396,-4.2208,-4.346,-4.3866,-4.3823,-4.4198,-4.4096,-4.369,-4.3352,-4.3453,-4.3639,-4.3098,-4.2912,-4.2983,-4.3037,-4.3481,-4.3939,-4.3888,-4.4296,-4.4737,-4.4737,-4.4737,-4.4737,-4.4737,-4.4737,-4.4737,-4.4626,-4.4587,-4.4626,-4.4737,-4.489,-4.4975,-4.466,-4.4682,-4.4861,-4.5048,-4.5192,-4.5285,-4.5285,-4.5285,-4.5435,-4.6037,-4.6088,-4.6118,-4.6379,-4.6303,-4.5961,-4.5381,-4.5176,-4.5303,-4.5807,-4.5807,-4.6281,-4.7387,-4.781,-4.8086,0.0,0.0,0.0,0.0,0.0,0.0,0.0,0.0,0.0,0.0,0.0,0.0,0.0,0.0,0.0,0.0,0.0,0.0,0.0,0.0,0.0,0.0,-4.7282,-4.8311,-4.9104,-5.0776,-5.2372,-5.3647,-5.3614,-5.3462,-5.3247,-5.2233,-5.1193,-5.0257,-4.9778,-4.9411,-4.9229,-4.9046,-4.8322,-4.6811,-4.7221,-4.6518,-4.4648,-4.4398,-4.4257,-4.4141,-4.3479,-4.3371,-4.3756,-4.3756,-4.3679,-4.3587,-4.3694,-4.3094,-4.2001,-4.1817,-4.1272,-4.0751,0.0,0.0,0.0,0.0,-4.2257,-4.2439,-4.1982,-4.2117,-4.2422,-4.1982,-4.2102,-4.246,-4.2853,-4.3384,-4.3846,-4.4028,-4.4436,-4.4776,-4.4776,-4.4776,-4.4831,-4.4886,-4.4886,-4.4886,-4.4776,-4.4776,-4.4776,-4.4886,-4.4886,0.0,-4.4776,-4.4831,-4.4988,-4.5388,-4.5694,-4.589,-4.5943,-4.589,-4.5942,-4.6116,-4.5883,-4.5737,-4.5792,-4.5944,0.0,0.0,0.0,-4.5521,-4.596,-4.6327,0.0,0.0,0.0,-4.8306,-4.8306,-4.8673,0.0,0.0,-4.8838,-4.9279,0.0,0.0,0.0,0.0,0.0,0.0,0.0,0.0,0.0,0.0,0.0,0.0,0.0,0.0,0.0,0.0,-4.9318,-5.062,-5.1442,-5.2045,-5.2763,-5.3914,-5.4163,-5.3997,-5.3349,-5.2632,-5.1813,-5.0824,-5.0001,-4.9411,-4.9229,0.0,0.0,0.0,0.0,-4.608,-4.4615,-4.3861,-4.3464,-4.3448,-4.2802,-4.254,-4.2602,-4.2602,-4.2879,-4.331,-4.274,-4.2448,-4.2279,-4.0955,-3.997,-3.936,-4.0114,-4.0384,-4.0398,-4.0331,-4.0679,-4.1187,-4.1102,0.0,0.0,-4.1102,-4.1629,-4.2396,-4.3093,-4.3507,-4.3782,-4.4426,-4.4575,-4.4593,-4.4678,-4.4712,-4.4712,-4.4858,-4.4964,-4.5032,-4.4978,-4.4978,-4.4961,-4.493,-4.4981,-4.4998,-4.493,-4.4981,-4.5309,-4.6052,-4.6568,-4.6984,-4.7136,-4.7035,-4.6757,-4.6379,-4.5805,0.0,-4.558,-4.6073,-4.6153,-4.5811,-4.6116,-4.6546,-4.6947,-4.7755,-4.8159,-4.8159,-4.8251,-4.8306,-4.8306,-4.9077,-4.9536,-4.9719,-4.9811,-5.0196,0.0,0.0,0.0,0.0,0.0,0.0,0.0,0.0,0.0,0.0,0.0,0.0,0.0,0.0,0.0,-4.8658,-5.0023,-5.148,-5.3017,-5.287,-5.2766,-5.3155,-5.3982,-5.3912,-5.2563,-5.2304,-5.1589,-5.0034,-4.9675,-4.9411,-4.9229,-4.9046,-4.8593,-4.7688,-4.7085,-4.6121,-4.4661,-4.3459,-4.2802,-4.2786,-4.2109,0.0,-4.2602,-4.2602,-4.2386,-4.1971,-4.1848,-4.1463,-4.0863,-4.0047,-3.8985,-3.8003,-3.9156,-3.9891,-4.0282,-4.0205,-4.0625,-4.1119,-4.051,-4.0696,-4.1102,-4.0493,-4.0493,-4.0747,-4.105,-4.1612,0.0,-4.31,-4.3202,-4.3304,-4.4025,-4.4143,-4.4107,-4.4249,-4.4747,-4.514,-4.5032,-4.4978,-4.4861,-4.4369,-4.4782,-4.5005,-4.4492,-4.4835,-4.5228,-4.5383,-4.5613,-4.5875,-4.6347,-4.6012,-4.61,-4.6996,-4.6998,-4.6897,-4.6947,-4.7155,-4.6993,-4.6302,-4.6111,-4.6048,-4.614,-4.6911,-4.7352,-4.7352,-4.7976,-4.8306,-4.8306,-4.8471,-4.926,-5.0582,-5.1224,-5.1261,0.0,0.0,0.0,0.0,0.0,0.0,0.0,0.0,0.0,0.0,0.0,-4.7511,0.0,0.0,-4.9975,-5.0664,-5.1972,-5.2946,-5.3072,-5.3821,-5.4007,-5.3106,-5.3219,-5.2908,-5.177,-5.1666,-5.1141,-4.9946,-4.9666,-4.953,-4.9471,-4.9229,-4.8765,-4.7998,-4.6861,-4.5773,-4.474,-4.3003,-4.2109,-4.2094,-4.1401,-4.1232,-4.1555,-4.1217,-4.1263,-4.1586,-4.1217,-4.1063,-4.0986,-3.9939,-3.9106,-3.856,-3.9157,-3.9354,-3.9335,-3.928,-3.9844,-4.0595,-4.0206,-4.0324,-4.0578,-4.0206,-4.0238,-4.0504,-4.0912,-4.1437,-4.2049,-4.2688,-4.286,-4.2894,-4.3391,-4.3443,-4.3443,-4.3614,-4.3907,-4.4182,-4.413,-4.4078,-4.4027,-4.37,-4.4234,-4.4664,-4.4337,-4.4854,-4.53,-4.53,-4.5615,-4.5905,-4.6186,-4.5955,-4.6127,-4.7037,-4.6878,-4.6829,-4.7073,-4.7375,-4.7329,-4.6767,-4.6981,-4.7095,-4.7095,-4.7498,-4.7719,-4.7719,-4.8104,-4.8306,-4.8306,-4.8728,-4.937,-5.0215,-5.1022,-5.1628,0.0,0.0,0.0,0.0,0.0,0.0,0.0,0.0,-4.6992,-4.8015,-4.9391,-5.0448,-5.0615,-5.1783,-5.273,-5.2735,-5.373,-5.4054,-5.285,-5.4143,-5.4665,-5.305,-5.2689,-5.2183,-5.12,-5.1114,-5.0804,-5.0062,-4.9784,-4.9708,-4.9708,-4.9411,-4.8951,-4.8319,-4.6832,-4.5611,-4.4744,-4.2794,-4.165,-4.1386,-4.0801,-4.0524,-4.0509,-3.9831,-4.0201,-4.1355,-4.0786,-4.0709,-4.094,-4.0198,-3.9635,-3.9344,-3.9532,-3.9145,-3.8479,-3.8609,-3.9305,-4.007,-4.007,-4.007,-4.007,-4.007,-4.0271,-4.0588,-4.1186,-4.1572,-4.1923,-4.2532,-4.2585,-4.255,-4.2893,-4.2791,-4.279,-4.313,-4.3214,-4.3214,-4.3214,-4.3214,-4.318,-4.3024,-4.3544,-4.4112,-4.4112,-4.4699,-4.5251,-4.5406,-4.5752,-4.6087,-4.6186,-4.6186,-4.6363,-4.6863,-4.6631,-4.6607,-4.6918,-4.7145,-4.7168,-4.6874,-4.748,-4.7902,-4.8067,-4.8086,-4.8141,-4.8306,-4.8306,-4.8306,-4.8306,-4.9003,-4.9426,-4.9609,-5.0251,-5.1261,-4.3828,-4.4824,-4.6328,-4.7031,-4.7108,-4.7797,0.0,0.0,-5.0784,-5.235,-5.334,-5.3857,-5.3671,-5.4104,-5.439,-5.4024,-5.3888,-5.3669,-5.3277,-5.304,-5.2808,-5.2521,-5.3353,-5.3236,-5.1312,-5.1114,-5.0804,-5.0062,-4.9784,-4.9708,-4.9708,-4.953,-4.935,-4.909,-4.7634,-4.6222,-4.482,-4.3266,-4.1856,-4.0647,-4.057,-4.0524,-4.0509,-3.9831,-3.9939,-4.0647,-4.057,-3.9893,-3.899,-4.0595,-4.0229,-3.8618,-3.9831,-3.9789,-3.9164,-3.9754,-4.0037,-4.007,-4.007,-4.007,-4.007,-4.007,-4.0271,-4.0502,-4.0571,-4.08,-4.1164,-4.1905,-4.155,-4.1312,-4.2752,-4.2548,-4.2154,-4.3009,-4.3214,-4.3214,-4.3214,-4.3214,-4.3007,-4.225,-4.275,-4.3335,-4.3335,-4.3906,-4.4647,-4.532,-4.5476,-4.5667,-4.6137,-4.6186,-4.6363,-4.6863,-4.7248,-4.736,-4.7106,-4.645,-4.6085,-4.6049,-4.6122,-4.6489,-4.7223,-4.7241,-4.759,-4.8306,-4.8306,-4.8306,-4.8306,-4.8398,-4.8838,-4.9591,-4.9682,-4.9811,-4.4414,-4.5351,-4.6621,0.0,-4.8946,-5.0063,-5.1973,-5.2382,-5.2696,-5.3913,-5.4747,-5.532,-5.5514,-5.5893,-5.6071,0.0,-5.6143,-5.5951,-5.4445,-5.4767,-5.4481,-5.2654,-5.305,-5.2767,-5.1067,-5.0616,-5.0338,-5.0028,-4.9935,-4.986,-4.986,-4.9725,-4.9384,-4.8839,-4.7244,-4.5939,-4.4854,-4.3138,-4.1923,-4.1091,-4.0919,-4.073,-4.0509,-3.9831,-3.9462,-3.94,-4.0185,-4.0158,-3.975,-4.0543,-4.0831,-4.0723,-4.0418,-4.031,-4.0316,-3.981,-3.9843,-4.007,-4.007,-4.007,-4.007,-4.007,-4.0271,-4.0485,-4.0485,-4.068,-4.094,-4.125,-4.1129,-4.0978,-4.1664,-4.1595,-4.1392,-4.1767,-4.1836,-4.1836,-4.1836,-4.1836,-4.1733,-4.1405,-4.2386,-4.3214,-4.3214,-4.4165,-4.5148,-4.5751,-4.5615,-4.5615,-4.6137,-4.6186,-4.6489,-4.7248,-4.7733,-4.7563,-4.647,-4.6526,-4.6214,-4.5259,-4.5645,-4.6049,-4.6397,-4.6416,-4.6562,-4.6893,-4.6911,-4.6911,-4.6911,-4.6911,-4.7095,-4.7443,-4.7921,-4.7884,-4.4353,0.0,0.0,-4.8164,-4.9902,-5.1507,-5.2593,-5.3348,-5.4046,-5.4896,-5.5654,-5.6307,-5.6687,-5.6834,-5.6816,-5.6606,-5.7116,-5.6848,-5.4862,-5.5688,-5.5552,-5.304,-5.2806,-5.2337,-5.1158,-5.0415,-5.0011,-5.0011,-5.0011,-4.9907,-4.9683,-4.9739,-4.9354,-4.8335,-4.7065,-4.5872,-4.4638,-4.3193,-4.2013,-4.1209,-4.1122,-4.0867,-4.0509,-4.0016,-3.9483,-3.9094,-4.0256,-4.0861,-4.1072,-4.0991,-4.1513,-4.2245,-4.0973,-4.0749,-4.1067,-3.9859,-3.9747,-4.0138,-4.0138,-4.0188,-4.0221,-4.0221,-4.0387,-4.0534,-4.0534,-4.0728,-4.0888,-4.0888,-4.0888,-4.094,-4.1129,-4.1026,-4.094,-4.1147,-4.1026,-4.0888,-4.0888,-4.0888,-4.0888,-4.0888,-4.1785,-4.2714,-4.3325,-4.4297,-4.5316,-4.6244,-4.607,-4.5938,-4.6363,-4.6312,-4.6569,-4.7366,-4.7362,-4.6838,-4.5681,-4.5902,-4.5626,-4.4452,-4.4911,-4.5333,-4.5571,-4.5571,-4.5663,-4.5902,-4.5902,-4.5902,-4.5902,-4.5902,-4.5902,-4.5902,-4.6507,-4.6471,0.0,0.0,-4.6523,-4.7422,-4.9472,-5.1717,-5.3296,-5.4274,-5.5062,-5.5818,-5.6597,-5.7159,-5.7178,-5.6613,-5.6091,-5.6019,-5.5522,-5.4795,-5.3862,-5.4454,-5.4559,-5.341,-5.2926,-5.2399,0.0,-5.0602,-5.0011,-5.0011,-5.0011,-4.9666,-4.8907,-4.9579,-4.9263,-4.7597,-4.7455,-4.6304,-4.3954,-4.3469,-4.2364,-4.0524,-4.0935,-4.0867,-4.0524,-4.0509,-4.0432,-4.0498,-4.1144,-4.182,-4.2423,-4.2364,-4.2377,-4.2303,-4.1496,-4.1204,-4.1119,-4.0358,-4.0188,-4.0288,-4.0288,-4.0387,-4.0485,-4.0485,-4.0583,-4.0697,-4.0697,-4.0793,-4.0888,-4.0888,-4.0888,-4.1043,-4.1767,-4.1423,-4.106,-4.1785,-4.1405,-4.0888,-4.0888,-4.0888,-4.0888,-4.0888,-4.0922,-4.1596,-4.3559,-4.3904,-4.4618,-4.6585,-4.6863,-4.6863,-4.6863,-4.6582,-4.659,-4.7074,-4.5718,-4.48,-4.4745,-4.403,-4.3571,-4.3534,-4.3552,-4.392,-4.4709,-4.4745,-4.5112,-4.5883,-4.5902,-4.5902,-4.5902,-4.5902,-4.5902,-4.5902,-4.592,-4.592,0.0,0.0,-4.6774,-4.8769,-5.0713,-5.2299,-5.2849,-5.4424,-5.549,-5.46,-5.4566,-5.4668,-5.4687,-5.4687,-5.4806,-5.516,-5.5729,-5.5753,-5.4723,-5.5315,-5.505,-5.2929,-5.3164,0.0,0.0,0.0,0.0,-4.9252,-4.9217,-4.889,-4.8131,-4.8338,-4.7972,-4.6973,-4.6777,-4.5903,-4.4323,-4.3661,-4.2986,-4.2364,-4.1803,-4.1557,-4.1573,-4.0871,-4.0515,-4.0424,-4.071,-4.0896,-4.1042,-4.1077,-4.1343,-4.1654,-4.0985,-4.0662,-4.0595,-4.0423,-4.037,-4.0436,-4.0355,-4.0387,-4.0485,-4.0485,-4.0583,-4.0697,-4.0697,-4.0793,-4.0888,-4.0888,-4.0888,-4.094,-4.1198,-4.1078,-4.094,-4.1198,-4.106,-4.0888,-4.0888,-4.0888,-4.0888,-4.0888,-4.1551,-4.2492,-4.3676,-4.4127,-4.4822,-4.6356,-4.6993,-4.718,-4.6632,-4.6757,-4.6943,-4.7075,-4.6636,-4.6085,-4.5535,-4.5241,-4.4635,-4.3552,-4.3497,-4.3608,-4.3883,-4.3901,-4.403,-4.4287,-4.4305,-4.4305,-4.4305,-4.4305,-4.4305,-4.4305,-4.4856,-4.4819,0.0,-4.5512,-4.6764,-4.8726,-5.0697,-5.2163,-5.2147,-5.3806,-5.5012,-5.3843,-5.3252,-5.2964,-5.2947,-5.3046,-5.3154,-5.316,-5.4157,-5.4699,-5.3981,-5.4502,-5.4461,-5.3028,-5.3451,-5.3237,0.0,0.0,0.0,-4.9211,-4.8916,-4.8372,-4.7372,-4.7579,-4.7251,-4.6217,-4.6298,-4.5768,-4.4429,-4.4013,-4.3663,-4.335,-4.2583,-4.2093,-4.1931,-4.1291,-4.0926,-4.0827,-4.0869,-4.1005,-4.1084,-4.0922,-4.1201,-4.1699,-4.0829,-4.0607,-4.0762,-4.0588,-4.0534,-4.0534,-4.0502,-4.0534,-4.0631,-4.0631,-4.068,-4.0793,-4.0793,-4.084,-4.0888,-4.0888,-4.0888,-4.0888,-4.0888,-4.0888,-4.0888,-4.0888,-4.0888,-4.0888,-4.0888,-4.0888,-4.0888,-4.0888,-4.1655,-4.2668,-4.3933,-4.5104,-4.6127,-4.6939,-4.7292,-4.7256,-4.6706,-4.6649,-4.6673,-4.6673,-4.6673,-4.6471,-4.5938,-4.5902,-4.5333,-4.4011,-4.392,-4.3791,-4.3497,-4.3497,-4.3497,-4.3497,-4.3497,-4.3497,-4.3497,-4.3497,-4.3497,-4.3497,-4.403,-4.3993,-4.432,-4.5513,-4.6515,-4.7373,-4.9445,-5.1269,-5.1191,-5.2472,-5.3623,-5.3445,-5.2666,-5.1973,0.0,0.0,-5.1283,-5.0352,-5.1197,-5.1935,-5.1921,-5.2395,-5.2939,0.0,0.0,0.0,0.0,0.0,0.0,-4.9591,0.0,-4.8079,-4.6631,-4.7217,-4.6924,-4.5475,-4.6148,-4.5805,-4.4249,-4.4473,-4.4232,-4.3446,-4.3081,-4.2463,-4.1613,-4.1743,-4.1659,-4.1516,-4.1632,-4.192,-4.2345,-4.1801,-4.1869,-4.226,-4.1032,-4.0912,-4.1476,-4.0791,-4.0583,-4.0697,-4.0697,-4.0793,-4.0888,-4.0888,-4.0888,-4.0888,-4.0888,-4.0888,-4.0871,-4.0918,-4.0918,-4.0918,-4.0965,-4.0965,-4.0918,-4.0918,-4.0918,-4.0888,-4.0888,-4.0888,-4.0935,-4.0918,-4.1353,-4.23,-4.4275,-4.6608,-4.8251,-4.8251,-4.7572,-4.7076,-4.7075,-4.6416,-4.5902,-4.5902,-4.5902,-4.5883,-4.5847,-4.5883,-4.5535,-4.469,-4.469,-4.4342,-4.3516,-4.3497,-4.3497,-4.3497,-4.3497,-4.3497,-4.3497,-4.3497,-4.3497,-4.3497,-4.3497,-4.3497,-4.5376,-4.5975,-4.6515,-4.7373,-4.858,-4.9528,-4.9511,-5.0779,-5.1733,-5.1067,-5.012,-4.9251,0.0,0.0,0.0,-5.0363,-5.2429,0.0,-5.371,-5.4074,0.0,-5.2178,0.0,-5.2779,-5.03,-4.9884,0.0,0.0,-4.7596,-4.6751,-4.5786,-4.5906,-4.5837,-4.5388,-4.563,-4.5329,-4.458,-4.4092,-4.349,-4.2659,-4.2349,-4.215,-4.1999,-4.1266,-4.1151,-4.1528,-4.1019,-4.0882,-4.0999,-4.0959,-4.0994,-4.1131,-4.0882,-4.0848,-4.0923,-4.0814,-4.0745,-4.0697,-4.084,-4.0888,-4.0888,-4.0888,-4.0888,-4.0888,-4.0888,-4.0888,-4.0965,-4.1283,-4.1373,-4.1445,-4.1796,-4.1622,-4.1373,-4.1373,-4.1117,-4.0888,-4.0888,-4.0888,-4.1012,-4.1283,-4.2974,-4.4407,-4.4634,-4.6175,-4.7425,-4.7425,-4.6728,-4.6434,-4.704,-4.6416,-4.5902,-4.5902,-4.5902,-4.5663,-4.5057,-4.5571,-4.5296,-4.3883,-4.4378,-4.4342,-4.3516,-4.3497,-4.3497,-4.3497,-4.3497,-4.3497,-4.3497,-4.3497,-4.3497,-4.3497,-4.3497,-4.3497,-4.5705,-4.6088,-4.6343,-4.6897,-4.7676,-4.8233,-4.7851,-4.9004,-4.9916,-4.9079,-4.8386,0.0,-4.7289,-4.8613,0.0,0.0,0.0,0.0,-5.3333,-5.35,-5.318,0.0,-5.2716,0.0,-4.9898,-4.9216,-4.8561,0.0,-4.6934,-4.6268,-4.5458,-4.5096,-4.4923,-4.4923,-4.4596,-4.432,-4.4023,-4.3613,-4.318,-4.277,-4.2545,-4.2277,-4.1988,-4.1477,-4.124,-4.1216,-4.082,-4.0631,-4.0583,-4.0745,-4.0745,-4.0697,-4.084,-4.0823,-4.0793,-4.0888,-4.084,-4.0793,-4.0871,-4.0888,-4.0888,-4.0888,-4.0995,-4.1163,-4.1163,-4.13,-4.1507,-4.1735,-4.1821,-4.1864,-4.2115,-4.199,-4.1821,-4.1821,-4.1622,-4.1463,-4.1463,-4.177,-4.2132,-4.2565,-4.4376,-4.5685,-4.5297,-4.6287,-4.7113,-4.7113,-4.6416,-4.6067,-4.6526,-4.6177,-4.5755,-4.5406,-4.5681,-4.5865,-4.5773,-4.5847,-4.5516,-4.4599,-4.4654,-4.4342,-4.3516,-4.3497,-4.3497,-4.3497,-4.3497,-4.3497,-4.3497,-4.3497,-4.3497,-4.3497,-4.3497,-4.3497,-4.5681,-4.5998,-4.6123,-4.6269,-4.6866,-4.7227,-4.6464,-4.7383,-4.8183,-4.748,0.0,-4.7037,-4.7047,-4.7743,-4.835,-4.8439,0.0,-5.0866,-5.22,-5.209,-5.2046,-5.2401,-5.2438,-5.1708,-4.9778,-4.8792,-4.7818,-4.6777,-4.6446,-4.5992,-4.5303,-4.4544,-4.413,-4.413,-4.356,-4.3214,-4.3214,-4.3111,-4.3059,-4.3059,-4.2973,-4.246,-4.1707,-4.1788,-4.1443,-4.0745,-4.084,-4.084,-4.0745,-4.084,-4.084,-4.0745,-4.0823,-4.0888,-4.0888,-4.0888,-4.0888,-4.0888,-4.0888,-4.0888,-4.0888,-4.0888,-4.1117,-4.1445,-4.1472,-4.1778,-4.2115,-4.2257,-4.2279,-4.2297,-4.236,-4.232,-4.2279,-4.2279,-4.2257,-4.2198,-4.2198,-4.2887,-4.3625,-4.3999,-4.5352,-4.6309,-4.5975,-4.6397,-4.6837,-4.7095,-4.6416,-4.5865,-4.5755,-4.5828,-4.559,-4.48,-4.5333,-4.5993,-4.6581,-4.6085,-4.57,-4.559,-4.5039,-4.4342,-4.3516,-4.3497,-4.3497,-4.3497,-4.3497,-4.3497,-4.3497,-4.3497,-4.3497,-4.3497,-4.3497,-4.3497,-4.5841,-4.6007,-4.6123,-4.6269,-4.6417,-4.6485,-4.6328,-4.6523,0.0,0.0,-4.639,-4.6288,-4.628,-4.7444,-4.8593,-4.9191,-5.0265,-5.1566,-5.3044,-5.2817,-5.2251,0.0,-5.1602,-5.0674,-4.8218,-4.7612,0.0,0.0,-4.4836,-4.463,-4.4492,-4.3768,-4.3404,-4.3404,-4.3301,-4.3214,-4.3214,-4.2526,-4.2199,-4.2181,-4.1578,-4.1198,-4.1078,-4.0982,-4.0913,-4.0888,-4.0793,0.0,-4.0888,-4.0888,-4.0888,-4.0888,-4.0888,-4.0888,-4.0888,-4.0888,-4.0888,-4.0888,-4.0888,-4.0888,-4.0888,-4.0888,-4.0965,-4.1088,-4.1401,-4.1561,-4.1778,-4.2555,-4.2768,-4.2882,-4.3178,-4.3032,-4.2768,-4.2768,-4.2458,-4.2198,-4.2198,-4.3126,-4.3999,-4.4095,-4.5147,-4.5975,-4.592,-4.5461,-4.559,-4.6911,-4.6416,-4.5663,-4.5002,-4.5498,-4.559,-4.48,-4.4837,-4.4709,-4.4158,-4.4617,-4.4617,-4.3956,-4.4415,-4.4342,-4.3516,-4.3497,-4.3497,-4.3497,-4.3497,-4.3497,-4.3497,-4.3497,-4.3497,-4.3497,-4.3497,-4.3497,-4.586,-4.5947,-4.6037,-4.6245,-4.6293,-4.6051,-4.5156,0.0,0.0,0.0,-4.5598,-4.6142,-4.6145,-4.7042,0.0,-4.8797,-4.9721,-5.0741,-5.2011,-5.1933,0.0,-5.0839,-5.0748,-4.9917,0.0,-4.7108,-4.6221,-4.4788,-4.3843,-4.3417,-4.3732,-4.2975,-4.2371,-4.204,-4.1974,-4.1974,-4.1974,-4.1595,-4.1405,-4.1405,-4.1043,-4.0888,-4.0888,-4.084,-4.084,-4.0888,-4.084,-4.084,-4.0888,-4.0888,-4.0888,-4.0888,-4.0888,-4.0888,-4.0888,-4.0888,-4.0888,-4.0888,-4.0888,-4.0888,-4.0918,-4.1163,-4.1373,-4.1666,-4.2092,-4.2342,-4.2619,-4.3105,-4.3232,-4.3268,-4.3444,-4.3339,-4.3232,-4.3232,-4.3378,-4.3627,-4.4044,-4.4924,-4.564,-4.564,-4.612,-4.6526,-4.6526,-4.5865,-4.5736,-4.6929,-4.6416,-4.5755,-4.5369,-4.5296,-4.4966,-4.4158,-4.4085,-4.4085,-4.4121,-4.4085,-4.4085,-4.4121,-4.4085,-4.3901,-4.3516,-4.3497,-4.3497,-4.3497,-4.3497,-4.3497,-4.3497,-4.3497,-4.3497,-4.3497,-4.3497,-4.3497,-4.5824,-4.5875,-4.5944,-4.6218,-4.6285,-4.582,-4.4082,-4.5058,0.0,0.0,-4.5039,-4.62,-4.6192,0.0,-4.7192,0.0,-4.854,-4.9292,-5.0559,-5.0667,-5.0527,0.0,-5.0135,0.0,-4.7433,-4.6757,0.0,-4.4234,-4.2867,-4.2267,-4.2696,-4.2095,-4.1492,-4.0905,-4.0888,-4.0888,-4.0888,-4.0888,-4.0888,-4.0888,-4.0888,-4.0888,-4.0888,-4.0888,-4.0888,-4.0888,-4.0888,-4.0888,-4.0888,-4.0888,-4.0888,-4.0888,-4.0888,-4.0888,-4.0888,-4.0888,-4.0888,-4.0888,-4.0888,-4.0888,-4.0965,-4.149,-4.1821,-4.2157,-4.2711,-4.3105,-4.3375,-4.3497,-4.3497,-4.3497,-4.3497,-4.3497,-4.3497,-4.3497,-4.4103,-4.4929,-4.5736,-4.6544,-4.7113,-4.7113,-4.6966,-4.6911,-4.7095,-4.6305,-4.592,-4.6728,-4.6305,-4.5847,-4.5663,-4.5241,-4.4709,-4.4066,-4.3699,-4.3754,-4.4397,-4.3864,-4.3754,-4.4415,-4.3846,-4.3497,-4.3497,-4.3497,-4.3497,-4.3497,-4.3497,-4.3497,-4.3497,-4.3497,-4.3497,-4.3497,-4.3497,-4.3497,-4.5764,-4.5815,-4.586,-4.6143,-4.6211,-4.5762,-4.4082,0.0,-4.5801,-4.4062,-4.5039,-4.6191,-4.6208,-4.6092,-4.6266,-4.7098,0.0,-4.751,-4.9595,-4.9653,-4.9626,-5.0059,0.0,0.0,-4.6392,-4.6313,-4.5262,-4.2479,-4.1488,-4.1073,-4.1095,-4.1026,-4.0957,-4.0888,-4.0888,-4.0888,-4.0888,-4.0888,-4.0888,-4.0888,-4.0888,-4.0888,-4.0888,-4.0888,-4.0888,-4.0888,-4.0888,-4.0888,0.0,-4.0888,-4.0888,-4.0888,-4.0888,-4.0888,-4.0888,-4.0888,-4.0888,-4.0888,-4.0888,-4.0888,-4.1059,-4.1881,-4.1864,-4.1735,-4.2634,-4.2938,-4.3032,-4.341,-4.3497,-4.3497,-4.3497,-4.3497,-4.3497,-4.3497,-4.4103,-4.4929,-4.5736,-4.6544,-4.7113,-4.7113,-4.6526,-4.625,-4.6985,-4.5847,-4.5094,-4.5883,-4.5957,-4.5645,-4.4911,-4.5388,-4.5755,-4.5681,-4.436,-4.3516,-4.3589,-4.3534,-4.3516,-4.3608,-4.3534,-4.3497,-4.3497,-4.3497,-4.3497,-4.3497,-4.3497,-4.3497,-4.3497,-4.3497,-4.3497,-4.3497,-4.3497,-4.3497,-4.5789,-4.624,-4.6564,-4.6211,-4.5754,-4.5054,-4.3905,0.0,-4.5117,-4.3945,-4.5078,-4.6269,-4.6262,-4.6066,-4.5997,-4.6331,0.0,0.0,-4.7365,-4.7397,-4.7465,-4.788,-4.7924,0.0,0.0,0.0,-4.4014,-4.1685,-4.1121,-4.0888,-4.0888,-4.0888,-4.0888,-4.0888,-4.0888,-4.0888,-4.0888,-4.0888,-4.0888,-4.0888,-4.0888,-4.0888,-4.0888,-4.0888,-4.0888,-4.0888,-4.0888,-4.0888,0.0,-4.0888,-4.0888,-4.0918,-4.1163,-4.1117,-4.0965,-4.1507,-4.149,-4.1283,-4.1578,-4.1666,-4.1796,-4.2418,-4.2498,-4.2458,-4.305,-4.3268,-4.3304,-4.3444,-4.3497,-4.3497,-4.3497,-4.3497,-4.3608,-4.4103,-4.447,-4.5057,-4.6342,-4.6893,-4.7113,-4.7113,-4.6856,-4.6728,-4.702,-4.6581,-4.6269,-4.6581,-4.6636,-4.6526,-4.6214,-4.6012,-4.6085,-4.6581,-4.5186,-4.4213,-4.4213,-4.3773,-4.3497,-4.3497,-4.3497,-4.3497,-4.3497,-4.3975,-4.3993,-4.3497,-4.3975,-4.3975,-4.3497,-4.3497,-4.3736,-4.4213,-4.3718,-4.3754,-4.5401,-4.6117,-4.6665,-4.6187,-4.5409,-4.455,0.0,0.0,-4.4668,-4.3848,-4.5077,-4.6303,-4.6306,-4.6099,-4.5949,-4.5925,0.0,-4.5763,-4.6088,-4.6057,-4.6051,0.0,0.0,-4.5672,0.0,-4.3656,-4.2709,-4.1318,-4.0995,-4.0888,-4.0888,-4.0888,-4.0888,-4.0888,-4.0888,-4.0888,-4.0888,-4.0888,-4.0888,-4.0888,-4.0888,-4.0888,-4.0888,-4.0888,-4.0888,-4.0888,-4.0888,-4.0888,0.0,-4.0888,-4.0888,-4.0918,-4.1311,-4.1328,-4.1163,-4.1906,-4.199,-4.1735,-4.2074,-4.2198,-4.2297,-4.2768,-4.2882,-4.2975,-4.3375,-4.3497,-4.3497,-4.3497,-4.3497,-4.3497,-4.3497,-4.3497,-4.3626,-4.4213,-4.4709,-4.5314,-4.6214,-4.6783,-4.704,-4.6801,-4.6764,-4.6838,-4.7076,-4.7113,-4.704,-4.6801,-4.6966,-4.7021,-4.6783,-4.625,-4.6305,-4.7352,-4.603,-4.4966,-4.4727,-4.4397,-4.4103,-4.3864,-4.4066,-4.4195,-4.4195,-4.4525,-4.4433,-4.3864,-4.4415,-4.4305,-4.3497,-4.3975,-4.4378,-4.4709,-4.436,-4.4397,-4.4465,-4.5143,-4.5834,-4.5974,-4.5349,-4.4492,0.0,0.0,-4.4648,-4.3789,-4.503,-4.63,-4.63,-4.6183,-4.6056,-4.5925,-4.5827,0.0,-4.6352,-4.6155,-4.5904,0.0,0.0,-4.472,-4.3268,-4.2162,-4.1463,-4.1209,-4.0995,0.0,-4.0888,-4.0888,-4.0888,-4.0888,-4.0888,-4.0888,-4.0888,-4.0888,-4.0888,-4.0888,-4.0888,-4.0888,-4.0888,-4.0888,-4.0888,-4.0888,-4.0888,-4.0888,0.0,-4.0888,-4.0888,-4.0918,-4.1311,-4.149,-4.1561,-4.2032,-4.2216,-4.2198,-4.2198,-4.2198,-4.2297,-4.2768,-4.2882,-4.2975,-4.3375,-4.3497,-4.3497,-4.3497,-4.3497,-4.3497,-4.3497,-4.3497,-4.3497,-4.3497,-4.4727,-4.5663,-4.4892,-4.5993,-4.6874,-4.6067,-4.5902,-4.6177,-4.6966,-4.7113,-4.6838,-4.603,-4.6599,-4.6819,-4.6012,-4.5902,-4.6507,-4.8122,-4.6856,-4.5571,-4.4782,-4.5424,-4.5535,-4.4745,-4.5424,-4.5883,-4.5883,-4.5131,-4.4709,-4.469,-4.4709,-4.4305,-4.3497,-4.5094,-4.548,-4.4727,-4.5516,-4.5461,-4.341,-4.421,-4.4858,-4.4291,-4.3498,-4.2802,-4.2602,0.0,-4.3877,-4.3652,-4.5046,-4.63,-4.63,-4.6183,-4.6065,-4.5917,-4.5841,0.0,0.0,0.0,0.0,-4.4824,-4.3855,-4.3063,0.0,0.0,-4.1041,-4.1012,-4.0918,-4.0888,-4.0888,-4.0888,-4.0888,-4.0888,-4.0888,-4.0888,-4.0888,-4.0888,-4.0888,-4.0888,-4.0888,-4.0888,-4.0888,-4.0888,-4.0888,-4.0888,-4.0888,-4.0888,-4.0888,-4.0888,-4.1041,-4.1356,-4.1778,-4.199,-4.2074,-4.279,-4.2902,-4.2711,-4.2976,-4.3087,-4.3124,-4.325,-4.3304,-4.3339,-4.3444,-4.3497,-4.3497,-4.3497,-4.3497,-4.3497,-4.3497,-4.3497,-4.3626,-4.4195,-4.4287,-4.4488,-4.5333,-4.5498,-4.5388,-4.5131,-4.5975,-4.6452,-4.5626,-4.6379,-4.6654,-4.5278,-4.5773,-4.6195,-4.592,-4.6379,-4.715,-4.8196,-4.7847,-4.7223,-4.6434,-4.6067,-4.5792,-4.5535,-4.5755,-4.5902,-4.5902,-4.6195,-4.6085,-4.5535,-4.6067,-4.5957,-4.5131,-4.5645,-4.5773,-4.5535,-4.6361,-4.6305,0.0,-4.3352,-4.3982,-4.344,-4.2647,0.0,0.0,0.0,0.0,-4.355,-4.5011,-4.63,-4.63,-4.6231,-4.6111,-4.592,-4.5863,0.0,0.0,0.0,0.0,-4.4017,0.0,0.0,0.0,-4.1297,-4.1041,-4.0918,-4.0888,-4.0888,-4.0888,-4.0888,-4.0888,-4.0888,-4.0888,-4.0888,-4.0888,-4.0888,-4.0888,-4.0888,-4.0888,-4.0888,-4.0888,-4.0888,-4.0888,-4.0888,-4.0888,-4.0888,0.0,-4.1041,-4.1283,-4.1561,-4.2198,-4.2458,-4.2537,-4.325,-4.3339,-4.3142,-4.341,-4.3497,-4.3497,-4.3497,-4.3497,-4.3497,-4.3497,-4.3497,-4.3497,-4.3497,-4.3497,-4.3497,-4.3497,-4.3497,-4.3626,-4.4121,-4.4103,-4.414,-4.4837,-4.4837,-4.4617,-4.4305,-4.5314,-4.5975,-4.5278,-4.625,-4.6783,-4.5773,-4.6305,-4.6599,-4.5975,-4.6342,-4.6966,-4.7774,-4.759,-4.7443,-4.7553,-4.7095,-4.6691,-4.6379,-4.6636,-4.6819,-4.6819,-4.7003,-4.6728,-4.592,-4.6709,-4.6562,-4.5461,-4.6067,-4.6507,-4.6819,-4.7333,-4.7131,0.0,0.0,0.0,0.0,0.0,0.0,0.0,0.0,0.0,0.0,0.0,0.0,-4.6124,-4.6105,-4.6011,-4.5765,-4.5705,0.0,0.0,-4.5456,0.0,0.0,-4.2323,0.0,-4.0493,-4.106,-4.1328,-4.0918,-4.0888,-4.0888,-4.0888,-4.0888,-4.0888,-4.0888,-4.0888,-4.0888,-4.0888,-4.0888,-4.0888,-4.0888,-4.0888,-4.0888,-4.0888,-4.0888,-4.0888,-4.0888,-4.0918,-4.0918,-4.0965,-4.1356,-4.1561,-4.1692,-4.2555,-4.2938,-4.2995,-4.3375,-4.3497,-4.3497,-4.3497,-4.3497,-4.3497,-4.3497,-4.3497,-4.3497,-4.3497,-4.3497,-4.3497,-4.3497,-4.3497,-4.3497,-4.3497,-4.3497,-4.3497,-4.3497,-4.4066,-4.4415,-4.3644,-4.4085,-4.4397,-4.3644,-4.4158,-4.4947,-4.5681,-4.6489,-4.7021,-4.7021,-4.7664,-4.7609,-4.6177,-4.5993,-4.6287,-4.7113,-4.6526,-4.6673,-4.8177,-4.8306,-4.7994,-4.7241,-4.7902,-4.8306,-4.8306,-4.7535,-4.6764,-4.5993,-4.6728,-4.6361,-4.48,-4.6416,-4.7553,-4.8233,-4.8269,-4.7884,-4.1017,0.0,-4.1385,-4.1385,-4.123,-4.1098,0.0,0.0,0.0,0.0,0.0,0.0,0.0,0.0,0.0,0.0,0.0,0.0,-4.4093,0.0,0.0,-4.3178,-4.2203,-4.1266,-4.0489,-4.0802,-4.0995,-4.0935,-4.0888,-4.0888,-4.0888,-4.0888,-4.0888,-4.0888,-4.0888,-4.0888,-4.0888,-4.0888,-4.0888,-4.0888,-4.0888,-4.0888,-4.0888,-4.0888,-4.0888,-4.0935,-4.1255,-4.1356,-4.1401,-4.1864,-4.2257,-4.2595,-4.2806,-4.3087,-4.3375,-4.3463,-4.3497,-4.3497,-4.3497,-4.3497,-4.3497,-4.3497,-4.3497,-4.3497,-4.3497,-4.3497,-4.3497,-4.3497,-4.3497,-4.3497,-4.3497,-4.3497,-4.3497,-4.3497,-4.3626,-4.3718,-4.3534,-4.3644,-4.3718,-4.3534,-4.4158,-4.4764,-4.4947,-4.5663,-4.6177,-4.6177,-4.6342,-4.6544,-4.6801,-4.6838,-4.715,-4.7939,-4.7865,-4.7902,-4.8269,-4.8306,-4.8233,-4.8031,-4.8214,-4.8306,-4.8306,-4.7535,-4.7021,-4.6838,-4.7021,-4.6617,-4.5626,-4.7241,-4.781,-4.7407,-4.8012,-4.7884,-4.0896,-4.0849,-4.0807,-4.0807,-4.0829,-4.0858,0.0,0.0,0.0,0.0,0.0,0.0,0.0,0.0,0.0,0.0,-4.3385,0.0,0.0,0.0,-4.2265,-4.2623,-4.1671,-4.0902,0.0,-4.0799,-4.0888,-4.0888,-4.0888,-4.0888,-4.0888,-4.0888,-4.0888,-4.0888,-4.0888,-4.0888,-4.0888,-4.0888,-4.0888,-4.0888,-4.0888,-4.0888,-4.0935,-4.1071,-4.1163,-4.1209,-4.1604,-4.1821,-4.1864,-4.2338,-4.2673,-4.292,-4.3105,-4.3304,-4.3497,-4.3497,-4.3497,-4.3497,-4.3497,-4.3497,-4.3497,-4.3497,-4.3497,-4.3497,-4.3497,-4.3497,-4.3497,-4.3497,-4.3497,-4.3497,-4.3497,-4.3497,-4.3497,-4.3497,-4.3497,-4.3497,-4.3497,-4.3497,-4.3497,-4.3497,-4.4158,-4.4837,-4.5186,-4.592,-4.6581,-4.6948,-4.7003,-4.704,-4.7113,-4.7113,-4.715,-4.7186,-4.7205,-4.7352,-4.7737,-4.7755,-4.7755,-4.7755,-4.8104,-4.8141,-4.7774,-4.7352,-4.7113,-4.7113,-4.6746,-4.6709,-4.7003,-4.7884,-4.8086,-4.7682,-4.8104,-4.8086,-4.1006,-4.1023,-4.1005,-4.0849,-4.0866,-4.0928,0.0,0.0,0.0,0.0,0.0,0.0,0.0,0.0,0.0,0.0,0.0,0.0,-4.3595,-4.1965,-4.1013,-4.1836,-4.1057,0.0,-4.0694,-4.0802,-4.0888,-4.0888,-4.0888,-4.0888,-4.0888,-4.0888,-4.0888,-4.0888,-4.0888,-4.0888,-4.0888,-4.0888,-4.0888,-4.0888,-4.0888,-4.0888,-4.0918,-4.1328,-4.1472,-4.1516,-4.2074,-4.2297,-4.2338,-4.2788,-4.2995,-4.305,-4.3375,-4.3497,-4.3497,-4.3497,-4.3497,-4.3497,-4.3497,-4.3497,-4.3497,-4.3497,-4.3497,-4.3497,-4.3497,-4.3497,-4.3497,-4.3497,-4.3497,-4.3497,-4.3497,-4.3497,-4.3497,-4.3497,-4.3497,-4.3497,-4.3497,-4.3497,-4.3497,-4.3497,-4.4048,-4.4782,-4.5571,-4.6397,-4.7205,-4.8012,-4.8233,-4.8067,-4.7388,-4.7297,-4.6985,-4.6177,-4.6085,-4.6361,-4.702,-4.7003,-4.6929,-4.6929,-4.7682,-4.7719,-4.6783,-4.6874,-4.6819,-4.6581,-4.6122,-4.6507,-4.7755,-4.8122,-4.8251,-4.8122,-4.8251,-4.8233,-4.1003,-4.1523,-4.1896,-4.1163,-4.0978,-4.1007,0.0,0.0,0.0,0.0,0.0,0.0,0.0,0.0,0.0,0.0,0.0,-4.1477,0.0,0.0,-4.118,-4.075,0.0,-4.0568,-3.9939,-4.0491,-4.0888,-4.0888,-4.0888,-4.0888,-4.0888,-4.0888,-4.0888,-4.0888,-4.0888,-4.0888,-4.0888,-4.0888,-4.0888,-4.0888,-4.0888,-4.0888,-4.0918,-4.1328,-4.1472,-4.1561,-4.2418,-4.2806,-4.2826,-4.3232,-4.341,-4.341,-4.3497,-4.3497,-4.3497,-4.3497,-4.3497,-4.3497,-4.3497,-4.3497,-4.3497,-4.3497,-4.3497,-4.3497,-4.3497,-4.3497,-4.3497,-4.3497,-4.3497,-4.3497,-4.3497,-4.3497,-4.3497,-4.3497,-4.3497,-4.3497,-4.3497,-4.3497,-4.3497,-4.3497,-4.3589,-4.3938,-4.4764,-4.5553,-4.6361,-4.7168,-4.7865,-4.8269,-4.8141,-4.8122,-4.781,-4.7021,-4.6929,-4.6985,-4.7075,-4.6489,-4.6085,-4.6085,-4.6856,-4.6636,-4.5149,-4.5718,-4.5443,-4.4066,-4.5259,-4.5681,-4.5278,-4.7315,-4.7957,-4.7315,-4.7994,-4.7957,-4.105,-4.1343,-4.1538,-4.105,-4.1715,-4.2323,0.0,0.0,0.0,0.0,0.0,0.0,0.0,0.0,-4.0921,-4.1197,0.0,-4.0547,-4.1099,-4.0671,-4.0262,0.0,0.0,-4.0095,-3.9733,-4.0026,-4.0233,-4.0233,-4.0233,-4.0422,-4.0853,-4.0888,-4.0888,-4.0888,-4.0888,-4.0888,-4.0888,-4.0888,-4.0888,-4.0888,-4.0888,-4.0995,-4.1237,-4.1692,-4.2032,-4.2279,-4.2939,-4.3214,-4.3232,-4.341,-4.3497,-4.3497,-4.3497,-4.3497,-4.3497,-4.3497,-4.3497,-4.3497,-4.3497,-4.3497,-4.3497,-4.3497,-4.3497,-4.3497,-4.3497,-4.3497,-4.3497,-4.3497,-4.3497,-4.3497,-4.3497,-4.3497,-4.3497,-4.3497,-4.3497,-4.3497,-4.3497,-4.3497,-4.3497,-4.3497,-4.3846,-4.4397,-4.5204,-4.603,-4.6838,-4.7645,-4.8067,-4.8306,-4.8306,-4.8306,-4.7994,-4.7205,-4.6728,-4.6452,-4.6452,-4.5718,-4.5443,-4.5865,-4.5847,-4.548,-4.4745,-4.5057,-4.4911,-4.4158,-4.5296,-4.5938,-4.6012,-4.7553,-4.8122,-4.7774,-4.8141,-4.8104,-4.1092,-4.1246,-4.1359,-4.1261,0.0,0.0,0.0,0.0,0.0,0.0,0.0,0.0,0.0,-4.0998,0.0,-4.146,-4.0526,-3.9953,-4.063,-4.0067,-3.9695,-3.9861,-3.9805,-3.9629,-3.9457,-3.9595,-3.9698,-3.9698,-3.9871,-4.0233,-4.0853,-4.0888,-4.0888,-4.0888,-4.0888,-4.0888,-4.0888,-4.0888,-4.0888,-4.0888,-4.0888,-4.1117,-4.1534,-4.199,-4.2458,-4.292,-4.3339,-4.3497,-4.3497,-4.3497,-4.3497,-4.3497,-4.3497,-4.3497,-4.3497,-4.3497,-4.3497,-4.3497,-4.3497,-4.3497,-4.3497,-4.3497,-4.3497,-4.3497,-4.3497,-4.3497,-4.3497,-4.3497,-4.3497,-4.3497,-4.3497,-4.3497,-4.3497,-4.3497,-4.3497,-4.3497,-4.3497,-4.3497,-4.3497,-4.3497,-4.4158,-4.4911,-4.5516,-4.6452,-4.7333,-4.7939,-4.8196,-4.8306,-4.8306,-4.8306,-4.7994,-4.7205,-4.6562,-4.6104,-4.592,-4.5516,-4.5369,-4.5608,-4.5039,-4.4635,-4.4433,-4.4782,-4.48,-4.4433,-4.5388,-4.6214,-4.6838,-4.7645,-4.8122,-4.8306,-4.8306,-4.8306,-4.1094,-4.1651,-4.222,-4.2195,-4.1688,0.0,0.0,-4.2063,0.0,-4.2568,0.0,0.0,0.0,-3.9789,-3.9074,-3.9837,-3.958,-3.9371,-3.9759,0.0,-4.0245,-3.8881,-3.9312,-3.9422,-3.8732,-3.9301,-3.9698,-3.9698,-4.0388,-4.0819,-4.0888,-4.0888,-4.0888,-4.0888,-4.0888,-4.0888,-4.0888,-4.0888,-4.0888,-4.0888,-4.0888,-4.1117,-4.1534,-4.199,-4.2458,-4.292,-4.3339,-4.3497,-4.3497,-4.3497,-4.3497,-4.3497,-4.3497,-4.3497,-4.3497,-4.3497,-4.3497,-4.3497,-4.3497,-4.3497,-4.3497,-4.3497,-4.3497,-4.3497,-4.3497,-4.3497,-4.3497,-4.3497,-4.3497,-4.3497,-4.3497,-4.3497,-4.3497,-4.3497,-4.3497,-4.3497,-4.3497,-4.3497,-4.3497,-4.3497,-4.4158,-4.4727,-4.4782,-4.6085,-4.7094,-4.7205,-4.7829,-4.8306,-4.8306,-4.8306,-4.7994,-4.7205,-4.7076,-4.6728,-4.5957,-4.6544,-4.6324,-4.4892,-4.4745,-4.4378,-4.3608,-4.5021,-4.5112,-4.3608,-4.5112,-4.592,-4.5993,-4.6801,-4.759,-4.8306,-4.8306,-4.8306,-4.1108,-4.1291,-4.1468,-4.1385,0.0,0.0,0.0,-4.2473,-4.2271,-4.1724,-4.1694,0.0,0.0,0.0,-3.9427,-3.9474,-3.9511,-3.9378,-3.9071,-3.9664,-3.9767,-3.8715,-3.8836,-3.8715,-3.7974,-3.8163,-3.8318,-3.8318,-3.8594,-3.9181,-4.0095,-4.0146,-4.0371,-4.0853,-4.0888,-4.0888,-4.0888,-4.0888,-4.1059,-4.1283,-4.1283,-4.149,-4.1948,-4.2418,-4.2864,-4.3268,-4.341,-4.3497,-4.3497,-4.3497,-4.3497,-4.3497,-4.3497,-4.3497,-4.3497,-4.3497,-4.3497,-4.3497,-4.3497,-4.3497,-4.3497,-4.3497,-4.3497,-4.3497,-4.3497,-4.3497,-4.3497,-4.3497,-4.3497,-4.3497,-4.3497,-4.3497,-4.3497,-4.3497,-4.3497,-4.3497,-4.3497,-4.3497,-4.3497,-4.3497,-4.3736,-4.4268,-4.5278,-4.5957,-4.6691,-4.77,-4.8122,-4.8306,-4.8306,-4.8306,-4.8196,-4.7884,-4.7407,-4.6783,-4.5975,-4.5718,-4.5369,-4.4745,-4.4709,-4.4342,-4.3516,-4.4066,-4.436,-4.425,-4.4837,-4.5406,-4.5902,-4.6728,-4.7278,-4.759,-4.8086,-4.8306,-4.1003,-4.0961,-4.0915,0.0,0.0,0.0,0.0,-4.2678,-4.2311,-4.1655,-4.1518,0.0,0.0,0.0,0.0,0.0,-3.8955,-3.8819,-3.8301,-3.8888,-3.8974,-3.7974,-3.8094,-3.7939,-3.718,-3.7335,-3.7491,-3.7491,-3.7698,-3.8284,-3.9301,-3.956,-3.9939,-4.0491,-4.075,-4.0965,-4.1088,-4.0723,-4.0798,-4.1321,-4.1057,-4.1452,-4.2418,-4.275,-4.3105,-4.3497,-4.3497,-4.3497,-4.3497,-4.3497,-4.3497,-4.3497,-4.3497,-4.3497,-4.3497,-4.3497,-4.3497,-4.3497,-4.3497,-4.3497,-4.3497,-4.3497,-4.3497,-4.3497,-4.3497,-4.3497,-4.3497,-4.3497,-4.3497,-4.3497,-4.3497,-4.3497,-4.3497,-4.3497,-4.3497,-4.3497,-4.3497,-4.3497,-4.3571,-4.3828,-4.4066,-4.469,-4.6049,-4.6489,-4.704,-4.8141,-4.8306,-4.8306,-4.8306,-4.8306,-4.8306,-4.8306,-4.7829,-4.7278,-4.6709,-4.592,-4.5369,-4.5094,-4.4856,-4.4342,-4.3516,-4.3975,-4.4397,-4.4709,-4.5204,-4.5736,-4.6287,-4.6838,-4.7241,-4.7498,-4.8049,-4.8306,-4.0801,-4.0746,0.0,0.0,0.0,0.0,0.0,-4.2479,-4.2234,-4.2687,0.0,-3.9878,-3.7882,-3.7188,0.0,-3.797,-3.7739,-3.7491,-3.7473,-3.8112,-3.8008,-3.6473,-3.6991,-3.7163,-3.6387,-3.7008,-3.7473,-3.7473,-3.8163,-3.8577,-3.8577,-3.9267,-3.9681,-3.9681,-4.044,-4.1053,-4.1455,-4.0273,-4.0141,-4.0985,-4.0182,-4.0879,-4.2882,-4.2882,-4.3105,-4.3497,-4.3497,-4.3497,-4.3497,-4.3497,-4.3497,-4.3497,-4.3479,-4.3479,-4.3497,-4.3479,-4.3479,-4.3497,-4.3497,-4.3497,-4.3497,-4.3497,-4.3497,-4.3497,-4.3497,-4.3497,-4.3497,-4.3497,-4.3497,-4.3497,-4.3497,-4.3497,-4.3497,-4.3497,-4.3497,-4.3497,-4.3497,-4.3497,-4.3736,-4.4544,-4.5351,-4.6159,-4.6966,-4.7774,-4.8306,-4.8306,-4.8306,-4.8306,-4.8306,-4.8306,-4.8306,-4.8306,-4.8306,-4.8306,-4.8306,-4.7572,-4.6764,-4.5957,-4.5149,-4.4342,-4.3516,-4.5021,-4.5516,-4.4745,-4.6287,-4.7095,-4.7113,-4.7113,-4.7517,-4.8288,-4.8288,-4.8306,-4.0801,0.0,0.0,0.0,0.0,0.0,0.0,0.0,0.0,0.0,-4.0908,-3.9756,-3.8921,-3.8209,0.0,-3.6932,-3.7197,-3.7284,-3.6732,-3.7318,-3.7439,-3.6422,-3.6508,-3.6559,-3.6318,-3.6525,-3.6663,-3.6663,-3.6853,-3.7232,-3.7784,-3.8025,-3.8387,-3.8905,-3.9146,-3.9475,-3.9876,-3.952,-3.9741,-4.0599,-4.0347,-4.0817,-4.2013,-4.2339,-4.2844,-4.3497,-4.3497,-4.3497,-4.3497,-4.3497,-4.3497,-4.3424,-4.2873,-4.3002,-4.3424,-4.2855,-4.3002,-4.3497,-4.3497,-4.3497,-4.3497,-4.3497,-4.3497,-4.3497,-4.3497,-4.3497,-4.3497,-4.3497,-4.3497,-4.3497,-4.3497,-4.3497,-4.3497,-4.3497,-4.3497,-4.3497,-4.3497,-4.3497,-4.3736,-4.4544,-4.4892,-4.5498,-4.6874,-4.7315,-4.7664,-4.8214,-4.8306,-4.8306,-4.8306,-4.8306,-4.8306,-4.8306,-4.8306,-4.8306,-4.8306,-4.704,-4.6159,-4.592,-4.4599,-4.3736,-4.3497,-4.3956,-4.4617,-4.5535,-4.5461,-4.5993,-4.7113,-4.735,-4.7583,-4.7842,-4.8621,-4.9015,-4.0882,0.0,0.0,0.0,0.0,0.0,0.0,0.0,0.0,0.0,0.0,-3.9746,-3.8751,-3.8196,0.0,-3.6464,-3.6697,-3.6853,-3.637,-3.6715,-3.6835,-3.6353,-3.6301,-3.6301,-3.6301,-3.6301,-3.6301,-3.6301,-3.6301,-3.6508,-3.6991,-3.7318,-3.768,-3.8129,-3.8439,-3.8868,-3.9464,-3.9018,-3.9242,-4.0211,-3.9728,-4.0,-4.0957,-4.1891,-4.2561,-4.3039,-4.3351,-4.3314,-4.3039,-4.3369,-4.3112,-4.2525,-4.2359,-4.2598,-4.2928,-4.2121,-4.2525,-4.3442,-4.313,-4.3222,-4.3497,-4.3497,-4.3497,-4.3497,-4.3497,-4.3497,-4.3497,-4.3497,-4.3497,-4.3497,-4.3497,-4.3497,-4.3497,-4.3497,-4.3497,-4.3497,-4.3497,-4.3497,-4.3736,-4.4544,-4.4709,-4.5223,-4.68,-4.7113,-4.7388,-4.8196,-4.8306,-4.8306,-4.8306,-4.8306,-4.8306,-4.8306,-4.8306,-4.8306,-4.8306,-4.6838,-4.5902,-4.5902,-4.469,-4.3975,-4.3975,-4.3975,-4.4433,-4.5406,-4.5259,-4.581,-4.7113,-4.7278,-4.7638,-4.8073,-4.8791,-4.9177,0.0,0.0,0.0,0.0,0.0,0.0,0.0,0.0,-4.0866,-4.0479,0.0,-3.987,-3.794,-3.7577,-3.7301,-3.6439,-3.6301,-3.6301,-3.6301,-3.6301,-3.6301,-3.6301,-3.6301,-3.6335,-3.6404,-3.6404,-3.6404,-3.6404,-3.6404,-3.6387,-3.6301,-3.6991,-3.737,-3.737,-3.8025,-3.8831,-3.9664,-3.8563,-3.8631,-3.9772,-3.8664,-3.8733,-3.9827,-4.1387,-4.2121,-4.2231,-4.2947,-4.2873,-4.2249,-4.2983,-4.2415,-4.1185,-4.1827,-4.2139,-4.2084,-4.1295,-4.1956,-4.3167,-4.2433,-4.2708,-4.3387,-4.3387,-4.3424,-4.3497,-4.3497,-4.3497,-4.3497,-4.3497,-4.3497,-4.3497,-4.3497,-4.3497,-4.3497,-4.3497,-4.3497,-4.3497,-4.3497,-4.3497,-4.3736,-4.4544,-4.4709,-4.5223,-4.68,-4.7113,-4.7388,-4.8196,-4.8306,-4.8306,-4.8306,-4.8306,-4.8306,-4.8306,-4.8306,-4.8306,-4.8306,-4.6893,-4.6012,-4.6012,-4.5259,-4.4819,-4.4819,-4.4819,-4.4819,-4.4819,-4.5535,-4.6305,-4.7113,-4.715,-4.7721,-4.8816,-4.885,-4.9034,0.0,0.0,0.0,0.0,0.0,0.0,0.0,0.0,-4.0791,-4.0412,-4.0575,-4.0285,-3.8674,-3.8353,-3.7905,-3.6525,-3.6301,-3.6301,-3.6301,-3.6301,-3.6301,-3.6301,-3.6301,-3.6542,-3.7163,-3.7232,-3.7232,-3.7232,-3.7232,-3.6956,-3.6335,-3.6456,-3.6559,-3.6559,-3.6715,-3.7184,-3.8005,-3.777,-3.8061,-3.8946,-3.87,-3.8719,-3.9001,-3.9974,-4.0763,-4.1387,-4.1552,-4.1534,-4.1387,-4.1552,-4.1423,-4.1056,-4.0598,-4.0799,-4.1277,-4.0451,-4.0781,-4.1589,-4.1423,-4.1882,-4.2561,-4.2561,-4.2983,-4.3497,-4.3497,-4.3497,-4.3497,-4.3497,-4.3497,-4.3497,-4.3497,-4.3497,-4.3497,-4.3497,-4.3497,-4.3497,-4.3497,-4.3497,-4.3736,-4.4544,-4.4709,-4.5223,-4.68,-4.7113,-4.7388,-4.8196,-4.8306,-4.8306,-4.8306,-4.8306,-4.8306,-4.8306,-4.8306,-4.8306,-4.8306,-4.7407,-4.6856,-4.6856,-4.6104,-4.5645,-4.5645,-4.5645,-4.5645,-4.5645,-4.581,-4.6305,-4.7113,-4.735,-4.7949,-4.8816,-4.908,-4.9363,0.0,0.0,0.0,0.0,0.0,0.0,0.0,0.0,0.0,-4.0642,-4.0764,-4.0526,-3.9336,-3.8836,-3.8215,-3.706,-3.6542,-3.6301,-3.6301,-3.6301,-3.6301,-3.6301,-3.6301,-3.6456,-3.687,-3.7267,-3.7491,-3.7491,-3.7818,-3.7836,-3.7422,-3.7255,-3.7172,-3.7172,-3.6991,-3.717,-3.7756,-3.7809,-3.8101,-3.8707,-3.8707,-3.8707,-3.8726,-3.9533,-4.0341,-4.1111,-4.1126,-4.0937,-4.0593,-4.1011,-4.0698,-4.0,-3.995,-4.0157,-4.0432,-3.9625,-4.0084,-4.1056,-4.0671,-4.1056,-4.1791,-4.2176,-4.258,-4.3002,-4.3369,-4.3497,-4.3497,-4.3497,-4.3497,-4.3497,-4.3497,-4.3497,-4.3497,-4.3497,-4.3497,-4.3497,-4.3497,-4.3497,-4.3608,-4.4048,-4.4121,-4.4507,-4.5755,-4.6599,-4.7388,-4.8196,-4.8306,-4.8306,-4.8306,-4.8306,-4.8306,-4.8306,-4.8306,-4.8306,-4.8306,-4.7572,-4.7113,-4.7113,-4.6728,-4.6471,-4.6471,-4.6838,-4.6691,-4.592,-4.5516,-4.592,-4.7113,-4.726,-4.7863,-4.8816,-4.9001,-4.9333,0.0,0.0,0.0,0.0,0.0,0.0,0.0,0.0,0.0,-4.0888,-4.0888,-4.0629,-3.9836,-3.9198,-3.8543,-3.7801,-3.7008,-3.6508,-3.6508,-3.6387,-3.6301,-3.6301,-3.6301,-3.6353,-3.649,-3.7215,-3.768,-3.768,-3.8249,-3.857,-3.852,-3.8115,-3.794,-3.7981,-3.7658,-3.7685,-3.8101,-3.8101,-3.8285,-3.8707,-3.8707,-3.8707,-3.8726,-3.9386,-4.0065,-4.0689,-4.0767,-4.0412,-3.986,-4.0504,-3.9989,-3.8847,-3.9467,-3.9711,-3.9606,-3.8946,-3.9551,-4.0598,-3.9918,-4.0212,-4.1001,-4.1662,-4.2066,-4.2415,-4.3075,-4.3387,-4.3497,-4.3497,-4.3497,-4.3497,-4.3497,-4.3497,-4.3497,-4.3497,-4.3497,-4.3497,-4.3497,-4.3497,-4.3497,-4.3497,-4.3608,-4.392,-4.4599,-4.6049,-4.7352,-4.7994,-4.8214,-4.8306,-4.8306,-4.8306,-4.8306,-4.8306,-4.8306,-4.8306,-4.8306,-4.77,-4.7333,-4.7333,-4.7333,-4.726,-4.7131,-4.7755,-4.748,-4.614,-4.5461,-4.5792,-4.7113,-4.7113,-4.7647,-4.8711,-4.8711,-4.908,0.0,0.0,0.0,0.0,0.0,0.0,0.0,0.0,0.0,0.0,-4.0888,-4.0629,-3.9836,-3.9612,-3.9301,-3.856,-3.7818,-3.7318,-3.7318,-3.6732,-3.6301,-3.6301,-3.6301,-3.6559,-3.7267,-3.7991,-3.8439,-3.8439,-3.8525,-3.846,-3.8163,-3.7456,-3.7214,-3.7555,-3.7522,-3.7685,-3.8101,-3.8101,-3.8285,-3.8707,-3.8707,-3.8707,-3.8707,-3.8817,-3.8927,-3.9019,-3.9093,-3.905,-3.8958,-3.9158,-3.9036,-3.8792,-3.8902,-3.8897,-3.8854,-3.8744,-3.8836,-3.9019,-3.8909,-3.9386,-4.0065,-4.0175,-4.1148,-4.2323,-4.2433,-4.2947,-4.3497,-4.3497,-4.3497,-4.3497,-4.3497,-4.3497,-4.3497,-4.3497,-4.3497,-4.3497,-4.3497,-4.3497,-4.3497,-4.3497,-4.4066,-4.458,-4.469,-4.6049,-4.715,-4.726,-4.7865,-4.8306,-4.8306,-4.8306,-4.8306,-4.8306,-4.8306,-4.8306,-4.8306,-4.8214,-4.8141,-4.8141,-4.8141,-4.7847,-4.715,-4.7223,-4.7186,-4.6948,-4.6856,-4.6911,-4.7113,-4.7113,-4.7535,-4.8364,-4.8364,-4.8746,0.0,0.0,0.0,0.0,0.0,0.0,0.0,0.0,0.0,-4.0888,-4.0888,-4.0767,-4.0422,-3.9991,-3.9577,-3.9267,-3.8594,-3.8112,-3.8112,-3.7801,-3.7439,-3.7008,-3.6956,-3.7094,-3.7456,-3.8163,-3.8767,-3.9181,-3.9215,-3.9222,-3.935,-3.8382,-3.8036,-3.8456,-3.8251,-3.8252,-3.8433,-3.8451,-3.8515,-3.8707,-3.8707,-3.8469,-3.8028,-3.8487,-3.8707,-3.8707,-3.8762,-3.8822,-3.8851,-3.8851,-3.8851,-3.8851,-3.8762,-3.8738,-3.8707,-3.8707,-3.8707,-3.8707,-3.8707,-3.8927,-3.9294,-3.9753,-4.0689,-4.1717,-4.2158,-4.2855,-4.3497,-4.3497,-4.3497,-4.3497,-4.3497,-4.3497,-4.3497,-4.3497,-4.3497,-4.3497,-4.3497,-4.3497,-4.3497,-4.3497,-4.3791,-4.4305,-4.5223,-4.5957,-4.6746,-4.7645,-4.8086,-4.8306,-4.8306,-4.8306,-4.8306,-4.8306,-4.8306,-4.8306,-4.8306,-4.8306,-4.8306,-4.8306,-4.8306,-4.8141,-4.781,-4.7774,-4.7774,-4.7774,-4.7352,-4.7333,-4.7774,-4.7774,-4.7957,-4.8306,-4.8495,-4.8832,0.0,0.0,0.0,0.0,0.0,0.0,0.0,0.0,0.0,0.0,-4.0888,-4.0888,-4.0888,-4.0388,-3.9991,-3.9991,-3.9353,-3.887,-3.887,-3.8715,-3.8387,-3.7836,-3.7594,-3.7491,-3.7491,-3.7991,-3.8543,-3.9094,-3.9264,-3.9451,-3.9845,-3.8978,-3.8672,-3.9039,-3.8825,-3.8707,-3.8707,-3.8707,-3.8707,-3.8707,-3.8487,-3.8065,-3.7514,-3.812,-3.8395,-3.8395,-3.867,-3.8822,-3.8862,-3.8851,-3.8833,-3.8862,-3.878,-3.8738,-3.8707,-3.8707,-3.8707,-3.8707,-3.8707,-3.8707,-3.8799,-3.9405,-4.0286,-4.1222,-4.1809,-4.269,-4.3497,-4.3497,-4.3497,-4.3497,-4.3497,-4.3497,-4.3497,-4.3497,-4.3497,-4.3497,-4.3497,-4.3497,-4.3497,-4.3497,-4.3497,-4.3864,-4.5076,-4.5626,-4.6305,-4.7517,-4.8049,-4.8306,-4.8306,-4.8306,-4.8306,-4.8306,-4.8306,-4.8306,-4.8306,-4.8306,-4.8306,-4.8306,-4.8306,-4.8214,-4.8012,-4.8196,-4.8214,-4.8012,-4.7627,-4.7719,-4.8306,-4.8306,-4.8326,-4.8421,-4.8676,-4.9034,0.0,0.0,0.0,0.0,0.0,0.0,0.0,0.0,0.0,0.0,-4.0888,-4.0888,-4.0888,-4.0853,-4.0819,-4.0819,-4.0164,-3.9629,-3.9629,-3.9026,-3.8577,-3.8543,-3.7922,-3.7491,-3.7491,-3.7508,-3.756,-3.7594,-3.7945,-3.832,-3.8658,-3.8348,-3.8307,-3.8731,-3.8726,-3.8707,-3.8707,-3.8707,-3.8707,-3.8689,-3.7918,-3.7533,-3.7507,-3.7533,-3.7551,-3.7617,-3.8431,-3.8822,-3.8822,-3.8881,-3.8881,-3.8822,-3.8792,-3.875,-3.8707,-3.8707,-3.8707,-3.8707,-3.8707,-3.8707,-3.8707,-3.8762,-3.9827,-4.113,-4.1167,-4.2268,-4.3497,-4.3497,-4.3497,-4.3497,-4.3497,-4.3497,-4.3497,-4.3497,-4.3497,-4.3497,-4.3497,-4.3497,-4.3497,-4.3497,-4.3497,-4.3516,-4.3608,-4.4892,-4.592,-4.6012,-4.7315,-4.8306,-4.8306,-4.8306,-4.8306,-4.8306,-4.8306,-4.8306,-4.8306,-4.8306,-4.8306,-4.8306,-4.8306,-4.7976,-4.7205,-4.7902,-4.7957,-4.7205,-4.7884,-4.8269,-4.8306,-4.8306,-4.8458,-4.8781,-4.8781,-4.9145,0.0,0.0,0.0,0.0,0.0,0.0,0.0,0.0,0.0,-4.0888,-4.0888,-4.0888,-4.0888,-4.0888,-4.0888,-4.0888,-4.0647,-4.0457,-4.0457,-4.0233,-3.9871,-3.937,-3.906,-3.8905,-3.8905,-3.9155,-3.9329,-3.9312,-3.9224,-3.9144,-3.8978,-3.8415,-3.8285,-3.8676,-3.8707,-3.8707,-3.8707,-3.8707,-3.8432,-3.7918,-3.7624,-3.6927,-3.5917,-3.6468,-3.6725,-3.6743,-3.7048,-3.7824,-3.8792,-3.878,-3.8762,-3.8792,-3.875,-3.8719,-3.8707,-3.8707,-3.8707,-3.8707,-3.8707,-3.9038,-3.946,-3.946,-4.0561,-4.1882,-4.1882,-4.2635,-4.3497,-4.3497,-4.3497,-4.3497,-4.3497,-4.3497,-4.3497,-4.3497,-4.3497,-4.3626,-4.4158,-4.3864,-4.3548,-4.3781,-4.4253,-4.4772,-4.5275,-4.6255,-4.7178,-4.7661,-4.8253,-4.8623,-4.8623,-4.8623,-4.8532,-4.8344,-4.8306,-4.8306,-4.8306,-4.8306,-4.8306,-4.8306,-4.8306,-4.8177,-4.7884,-4.8159,-4.8159,-4.7884,-4.8159,-4.8306,-4.8306,-4.8306,-4.8458,-4.8816,-4.9015,-4.9363,0.0,0.0,0.0,0.0,0.0,0.0,0.0,0.0,0.0,-4.0888,-4.0888,-4.0888,-4.0888,-4.0888,-4.0888,-4.0888,-4.0888,-4.0888,-4.0888,-4.0888,-4.0681,-4.0164,-3.9991,-3.9909,-3.9909,-4.0104,-4.0223,-4.0164,-4.0071,-3.9787,-3.9262,-3.8891,-3.8707,-3.8707,-3.8707,-3.8707,-3.8707,-3.8707,-3.8303,-3.7507,-3.7221,-3.6505,-3.5459,-3.5734,-3.6028,-3.6321,-3.6578,-3.747,-3.8743,-3.8444,-3.8481,-3.8762,-3.8738,-3.8707,-3.8707,-3.8707,-3.8707,-3.8707,-3.8707,-3.9056,-3.9533,-3.9808,-4.0818,-4.1956,-4.2213,-4.2855,-4.3497,-4.3497,-4.3497,-4.3497,-4.3497,-4.3497,-4.3497,-4.3497,-4.3497,-4.3644,-4.4176,-4.3883,-4.3713,-4.4484,-4.4864,-4.529,-4.6089,-4.6884,-4.7622,-4.8142,-4.8456,-4.8623,-4.8623,-4.8623,-4.8569,-4.8344,-4.8306,-4.8344,-4.8458,-4.8458,-4.8532,-4.8604,-4.8658,-4.8658,-4.8658,-4.8658,-4.8658,-4.8658,-4.8658,-4.8658,-4.8658,-4.8402,-4.8532,-4.8949,-4.9209,-4.9541,0.0,0.0,0.0,0.0,0.0,0.0,0.0,0.0,0.0,-4.0888,-4.0888,-4.0888,-4.0888,-4.0888,-4.0888,-4.0888,-4.0888,-4.0888,-4.0888,-4.0888,-4.0888,-4.0888,-4.0593,-4.0428,-4.0428,-4.0162,-3.9973,-3.9955,-4.0311,-4.0201,-3.9385,-3.9721,-3.957,-3.8799,-3.8762,-3.8744,-3.8744,-3.8707,-3.8285,-3.7441,-3.667,-3.6285,-3.6229,-3.5404,-3.5495,-3.6376,-3.7092,-3.79,-3.8597,-3.7808,-3.7955,-3.867,-3.8652,-3.8652,-3.867,-3.867,-3.8689,-3.8707,-3.8707,-3.8726,-3.8872,-3.9662,-4.0487,-4.1295,-4.2084,-4.2873,-4.3497,-4.3497,-4.3497,-4.3497,-4.3479,-4.3497,-4.3497,-4.3497,-4.3497,-4.3497,-4.3516,-4.3534,-4.3993,-4.5553,-4.5278,-4.5021,-4.5846,-4.6617,-4.715,-4.715,-4.781,-4.8306,-4.8306,-4.8306,-4.8306,-4.8306,-4.8306,-4.8439,-4.8781,-4.8816,-4.8934,-4.9302,-4.9283,-4.9283,-4.9283,-4.9283,-4.9283,-4.9283,-4.9283,-4.9283,-4.9302,-4.864,-4.8676,-4.9314,-4.9314,-4.9674,-4.0477,0.0,0.0,0.0,0.0,0.0,0.0,0.0,0.0,-4.0888,-4.0888,-4.0888,-4.0888,-4.0888,-4.0888,-4.0888,-4.0888,-4.0888,-4.0888,-4.0888,-4.0888,-4.0888,-4.1063,-4.1218,-4.1218,-4.1739,-4.1809,0.0,-4.1558,-4.1455,-4.0668,-4.0698,-4.0671,-4.0451,-3.9882,-3.957,-3.957,-3.9001,-3.7991,-3.6615,-3.6413,-3.5973,-3.5367,-3.51,-3.5789,-3.7092,-3.6119,-3.6505,-3.7808,-3.7569,-3.7606,-3.7753,-3.7184,-3.7312,-3.7826,-3.7826,-3.8193,-3.8707,-3.8707,-3.9074,-3.9698,-4.0506,-4.1313,-4.2121,-4.291,-4.3314,-4.3497,-4.3497,-4.3481,-4.3411,-4.3322,-4.3375,-4.3497,-4.3446,-4.3463,-4.3644,-4.425,-4.4378,-4.4559,-4.5256,-4.6157,-4.6879,-4.7085,-4.7772,-4.8254,-4.8325,-4.8493,-4.8605,-4.8605,-4.8623,-4.8569,-4.8247,-4.8286,-4.8439,-4.8781,-4.8816,-4.8934,-4.9302,-4.9283,-4.9283,-4.9283,-4.9283,-4.9283,-4.9283,-4.9283,-4.9283,-4.9283,-4.9094,-4.9221,-4.9674,-4.991,-5.012,0.0,0.0,0.0,0.0,0.0,0.0,-4.0776,-4.0793,-4.0793,0.0,-4.0888,-4.0871,-4.084,-4.0888,-4.0888,-4.0888,-4.0888,-4.0888,-4.0888,-4.0888,-4.0888,-4.0888,-4.1418,-4.1778,-4.1778,-4.2616,-4.2941,-4.2414,-4.2626,-4.2451,-4.1644,-4.1295,-4.1111,-4.1111,-4.0322,-3.99,-3.99,-3.9093,-3.79,-3.6303,-3.6303,-3.5844,-3.499,-3.4642,-3.5422,-3.6909,-3.5587,-3.5771,-3.6964,-3.6597,-3.667,-3.6945,-3.6468,-3.678,-3.7507,-3.7507,-3.801,-3.8707,-3.8707,-3.9239,-4.0029,-4.0855,-4.1644,-4.2451,-4.3259,-4.3463,-4.3481,-4.3481,-4.3411,-4.3305,-4.3214,-4.3322,-4.3446,-4.3429,-4.3446,-4.3626,-4.4103,-4.4727,-4.5368,-4.5909,-4.6738,-4.7496,-4.7794,-4.82,-4.8514,-4.8477,-4.844,-4.8421,-4.8476,-4.855,-4.8476,-4.8247,-4.8402,-4.864,-4.9001,-4.9145,-4.9363,-4.9702,-4.973,-4.973,-4.973,-4.973,-4.973,-4.973,-4.973,-4.973,-4.973,-4.9453,-4.9483,-4.9803,-5.0144,-5.0302,0.0,0.0,0.0,0.0,-4.0793,0.0,-4.0745,-4.0793,-4.084,-4.0745,-4.084,-4.0871,-4.0745,-4.084,-4.0888,-4.0888,-4.0888,-4.0935,-4.0965,-4.0965,-4.1012,-4.1059,-4.1796,-4.2297,-4.2297,-4.3014,-4.3497,-4.3497,-4.3497,-4.3185,-4.247,-4.1772,-4.1387,-4.1387,-4.0506,-4.0029,-4.0029,-3.9148,-3.79,-3.6303,-3.6303,-3.5844,-3.4972,-3.4266,-3.4798,-3.6248,-3.5385,-3.5459,-3.6083,-3.5238,-3.5385,-3.6156,-3.6064,-3.656,-3.7349,-3.7349,-3.7918,-3.8707,-3.8799,-3.9294,-4.0047,-4.0914,-4.1702,-4.2417,-4.3224,-4.3446,-4.3394,-4.3359,-4.3305,-4.3214,-4.3178,-4.3305,-4.3394,-4.3394,-4.3446,-4.3497,-4.3497,-4.4745,-4.6104,-4.6838,-4.7094,-4.7404,-4.8117,-4.8187,-4.8148,-4.8032,-4.7992,-4.805,-4.8148,-4.8187,-4.8226,-4.8344,-4.8623,-4.8967,-4.9314,-4.9646,-4.9955,-5.0278,-5.0302,-5.0302,-5.0302,-5.0302,-5.0302,-5.0302,-5.0302,-5.0302,-5.0302,-4.9702,-4.9541,-4.9857,-5.0144,-5.0336,0.0,0.0,0.0,0.0,-4.0697,0.0,-4.084,-4.0793,-4.0745,0.0,-4.0888,-4.0888,-4.0888,-4.0888,-4.0888,-4.0888,-4.0888,-4.0995,-4.1328,-4.1401,-4.1534,-4.1906,-4.2418,-4.275,-4.275,-4.3214,-4.3497,-4.3497,-4.3497,-4.3424,-4.3259,-4.3112,-4.302,-4.302,-4.1625,-4.0873,-4.0873,-3.9441,-3.79,-3.6303,-3.6303,-3.5844,-3.499,-3.4825,-3.533,-3.6248,-3.5385,-3.5082,-3.5202,-3.4376,-3.4523,-3.5202,-3.4541,-3.5202,-3.6523,-3.6523,-3.7441,-3.8799,-3.9441,-3.9772,-4.0139,-4.1525,-4.2111,-4.2333,-4.3049,-4.3251,-4.3214,-4.316,-4.3196,-4.3178,-4.3123,-4.3251,-4.3394,-4.3394,-4.3446,-4.3497,-4.3497,-4.4745,-4.5957,-4.6104,-4.7129,-4.8043,-4.8169,-4.8046,-4.7966,-4.801,-4.7947,-4.7966,-4.805,-4.813,-4.8324,-4.8605,-4.873,-4.9048,-4.9646,-4.9757,-4.9955,-5.0278,-5.0302,-5.0302,-5.0302,-5.0302,-5.0302,-5.0302,-5.0302,-5.0302,-5.0302,-5.012,-5.007,-5.012,-5.0139,-5.0495,0.0,0.0,0.0,-4.0631,-4.0648,0.0,0.0,-4.0745,-4.0697,-4.068,-4.0728,-4.0793,-4.0728,-4.0823,-4.0888,-4.0888,-4.0888,-4.1134,-4.1778,-4.1648,-4.1604,-4.1821,-4.2458,-4.2882,-4.2882,-4.3268,-4.3497,-4.3497,-4.3497,-4.3497,-4.3497,-4.3497,-4.3497,-4.3497,-4.1937,-4.1111,-4.1111,-3.9632,-3.8011,-3.6285,-3.6436,-3.5966,-3.499,-3.499,-3.5495,-3.6248,-3.5385,-3.499,-3.4935,-3.4137,-3.4045,-3.4376,-3.3972,-3.4816,-3.6303,-3.6303,-3.7521,-3.9268,-3.9753,-4.0349,-4.1089,-4.1931,-4.2426,-4.2775,-4.3087,-4.3178,-4.3123,-4.3031,-4.3013,-4.305,-4.2994,-4.3142,-4.3305,-4.3305,-4.3393,-4.3497,-4.3497,-4.4745,-4.5902,-4.5847,-4.7071,-4.809,-4.809,-4.8028,-4.7907,-4.7847,-4.7884,-4.7925,-4.7992,-4.8148,-4.8344,-4.8694,-4.8934,-4.924,-4.9757,-4.9955,-5.012,-5.0302,-5.0302,-5.0302,-5.0302,-5.0302,-5.0302,-5.0302,-5.0302,-5.0302,-5.0302,-5.0212,-5.0231,-5.0255,-5.0596,-5.1009,0.0,0.0,-4.0648,-4.0583,-4.0631,-4.0745,0.0,0.0,0.0,0.0,0.0,0.0,0.0,0.0,0.0,0.0,0.0,0.0,0.0,-4.1821,0.0,-4.2296,-4.2757,-4.3122,-4.3468,-4.3487,-4.3497,-4.3497,-4.3497,-4.3497,-4.3497,-4.3497,-4.3497,-4.3497,-4.1937,-4.1126,-4.119,-3.9793,-3.8174,-3.6398,-3.6756,-3.6239,-3.5009,-3.5155,-3.5642,-3.6248,-3.5385,-3.5082,-3.5155,-3.4211,-3.399,-3.4266,-3.41,-3.4963,-3.6321,-3.6421,-3.7857,-3.9754,-4.0001,-4.0924,-4.2029,-4.23,-4.2704,-4.3123,-4.3123,-4.3105,-4.3049,-4.2938,-4.2882,-4.29,-4.2938,-4.3068,-4.3178,-4.3214,-4.3358,-4.3497,-4.3497,-4.4745,-4.5865,-4.5828,-4.6994,-4.805,-4.801,-4.797,-4.7888,-4.7699,-4.7801,-4.7966,-4.8093,-4.8229,-4.8476,-4.8934,-4.9221,-4.9541,-4.9857,-5.0144,-5.0302,-5.0302,-5.0302,-5.0302,-5.0302,-5.0302,-5.0378,-5.055,-5.0397,-5.0455,-5.0779,-5.0555,-5.0383,-5.0278,-5.0882,-5.1301,0.0,0.0,0.0,-4.0697,-4.0793,-4.0888,-4.0888,0.0,-4.0697,-4.0697,0.0,0.0,0.0,0.0,0.0,0.0,0.0,0.0,-4.149,-4.1906,-4.292,-4.5148,-4.4235,-4.3978,-4.5407,-4.4323,-4.3497,-4.3497,-4.3497,-4.3497,-4.3497,-4.3497,-4.3497,-4.3497,-4.1937,-4.1204,-4.1445,-3.989,-3.8284,-3.6642,-3.7411,-3.6795,-3.5027,-3.5807,-3.6211,-3.6248,-3.5385,-3.5459,-3.6028,-3.4449,-3.4688,-3.5936,-3.5183,-3.5459,-3.6376,-3.6966,-3.8253,-3.9794,-4.0458,-4.1263,-4.2103,-4.2778,-4.2976,-4.292,-4.292,-4.2938,-4.2938,-4.2882,-4.2882,-4.2938,-4.3049,-4.3104,-4.3178,-4.334,-4.3376,-4.3411,-4.3497,-4.4745,-4.5865,-4.5828,-4.709,-4.8108,-4.7943,-4.7801,-4.7741,-4.7699,-4.7801,-4.8028,-4.8421,-4.8586,-4.8919,-4.9618,-4.973,-4.9884,-5.0212,-5.0278,-5.0302,-5.0302,-5.0302,-5.0302,-5.0302,-5.0302,-5.0665,-5.1448,-5.0684,-5.1028,-5.2499,-5.1744,-5.095,-5.0212,-5.0228,-5.066,0.0,0.0,0.0,0.0,-4.0631,-4.068,-4.068,-4.0534,-4.0453,-4.0453,0.0,0.0,0.0,0.0,0.0,0.0,-4.1057,0.0,0.0,0.0,-4.3696,0.0,0.0,0.0,-4.4433,-4.3883,-4.3497,-4.3497,-4.3497,-4.3497,-4.3497,-4.3497,-4.3497,-4.3497,-4.2396,-4.1636,-4.1267,-4.0296,-3.8906,-3.7174,-3.7645,-3.7405,-3.6468,-3.6817,-3.6982,-3.6964,-3.6597,-3.6395,-3.6248,-3.5457,-3.5567,-3.6208,-3.6259,-3.6534,-3.6911,-3.715,-3.851,-4.0318,-4.0698,-4.1576,-4.2577,-4.2885,-4.2938,-4.2882,-4.2882,-4.2882,-4.2882,-4.2882,-4.2882,-4.292,-4.2956,-4.3049,-4.3141,-4.3251,-4.3706,-4.4125,-4.416,-4.5461,-4.6525,-4.6391,-4.7305,-4.801,-4.7801,-4.7819,-4.7801,-4.7717,-4.8014,-4.8327,-4.8477,-4.8797,-4.9196,-4.973,-4.9776,-4.9903,-5.0278,-5.0302,-5.0302,-5.0302,-5.0302,-5.0302,-5.0302,-5.0302,-5.0703,-5.1582,-5.1238,-5.141,-5.2098,-5.2158,-5.177,-5.0969,-5.1865,-5.2539,-4.0648,0.0,0.0,0.0,-4.0583,-4.0583,-4.0583,-4.0436,-4.0337,-4.0305,-4.0288,0.0,0.0,0.0,0.0,0.0,0.0,-4.1778,0.0,-4.3322,0.0,0.0,0.0,0.0,0.0,-4.3956,-4.3828,-4.3828,-4.3608,-4.3497,-4.3497,-4.3497,-4.3497,-4.3497,-4.2506,-4.1732,-4.1222,-4.0396,-3.9174,-3.7606,-3.8025,-3.7979,-3.7507,-3.7507,-3.7507,-3.7477,-3.7257,-3.6945,-3.6567,-3.6234,-3.6369,-3.6778,-3.707,-3.7471,-3.7904,-3.784,-3.9064,-4.0724,-4.0959,-4.1851,-4.2882,-4.2882,-4.2882,-4.2882,-4.2882,-4.2882,-4.2882,-4.2882,-4.2882,-4.2882,-4.2882,-4.2994,-4.3141,-4.3451,-4.4035,-4.4638,-4.4948,-4.614,-4.7038,-4.6846,-4.7445,-4.7951,-4.7888,-4.7842,-4.7819,-4.7759,-4.8174,-4.8531,-4.8674,-4.9067,-4.9472,-4.9884,-4.9876,-4.9948,-5.0278,-5.0302,-5.0302,-5.0302,-5.0278,-5.0393,-5.0646,-5.0665,-5.1066,-5.1907,-5.1926,-5.1902,-5.1902,-5.2444,-5.2514,-5.2183,-5.3103,-5.3587,0.0,0.0,0.0,-4.0697,0.0,-4.0823,-4.0745,-4.0583,-4.0436,-4.0355,-4.0188,-4.0138,-4.0138,0.0,0.0,0.0,0.0,0.0,0.0,0.0,0.0,0.0,0.0,0.0,0.0,-4.5131,-4.4672,-4.4672,-4.3938,-4.3497,-4.3497,-4.3497,-4.3497,-4.3497,-4.1974,-4.124,-4.1475,-3.9927,-3.8729,-3.7912,-3.8692,-3.8516,-3.7507,-3.7507,-3.7507,-3.7441,-3.667,-3.6685,-3.7229,-3.6424,-3.6997,-3.8237,-3.7412,-3.8053,-3.9434,-3.9434,-3.9979,-4.0797,-4.1452,-4.2212,-4.2882,-4.2882,-4.2882,-4.2882,-4.2882,-4.2882,-4.2882,-4.2882,-4.2882,-4.2882,-4.2882,-4.2882,-4.3157,-4.4126,-4.4363,-4.4675,-4.5645,-4.6526,-4.7038,-4.6846,-4.7445,-4.8072,-4.8267,-4.797,-4.7759,-4.7861,-4.8231,-4.8674,-4.9132,-4.9491,-4.9822,-5.0236,-5.0212,-5.0231,-5.0302,-5.0302,-5.0302,-5.0302,-5.0255,-5.0593,-5.1525,-5.1563,-5.1945,-5.2747,-5.2747,-5.2742,-5.2666,-5.2686,-5.3098,-5.3781,-5.3019,-5.2658,0.0,0.0,-4.0697,-4.0793,0.0,-4.0745,-4.0697,-4.06,-4.0485,-4.0436,-4.0387,-4.037,-4.037,0.0,0.0,0.0,0.0,0.0,0.0,0.0,0.0,0.0,0.0,0.0,0.0,0.0,-4.3901,-4.3901,-4.3149,-4.2928,-4.3461,-4.3497,-4.3497,-4.3497,-4.2451,-4.1677,-4.1254,-4.0167,-3.9227,-3.8416,-3.8693,-3.8663,-3.8285,-3.8285,-3.8285,-3.8267,-3.7912,-3.7882,-3.8089,-3.7708,-3.7863,-3.834,-3.8564,-3.8932,-3.9422,-3.9422,-4.0237,-4.147,-4.2212,-4.2665,-4.2882,-4.2882,-4.2882,-4.2882,-4.2882,-4.2882,-4.2882,-4.2882,-4.2882,-4.2938,-4.3012,-4.343,-4.394,-4.44,-4.5351,-4.623,-4.6599,-4.7333,-4.7864,-4.7727,-4.8084,-4.8402,-4.8383,-4.8402,-4.8458,-4.8568,-4.8949,-4.929,-4.9502,-4.9768,-5.0063,-5.0278,-5.0207,-5.0182,-5.0302,-5.0255,-5.046,-5.1051,-5.104,-5.1396,-5.2291,-5.1814,-5.2202,-5.3626,-5.2526,-5.2202,-5.278,-5.2627,-5.246,-5.2258,-5.2398,-5.31,-4.0888,-4.084,-4.0793,-4.0888,-4.0965,-4.0977,-4.0931,-4.096,-4.1019,-4.0972,-4.0972,-4.0972,-4.0972,0.0,0.0,0.0,0.0,0.0,0.0,-4.339,0.0,0.0,0.0,0.0,0.0,-4.4654,-4.4232,-4.3938,-4.3185,-4.2947,-4.3461,-4.3497,-4.3497,-4.3497,-4.2708,-4.2047,-4.1534,-4.0432,-3.9643,-3.9129,-3.8836,-3.8707,-3.8689,-3.8395,-3.8236,-3.8187,-3.812,-3.8058,-3.8013,-3.8212,-3.8437,-3.8731,-3.9222,-3.9731,-4.022,-4.022,-4.1035,-4.2212,-4.2719,-4.2882,-4.2882,-4.2882,-4.2882,-4.2882,-4.2882,-4.2882,-4.2882,-4.2882,-4.3099,-4.3373,-4.3485,-4.4122,-4.4871,-4.5351,-4.623,-4.7091,-4.7442,-4.7939,-4.8306,-4.8382,-4.8495,-4.8641,-4.8781,-4.8934,-4.9034,-4.8982,-4.9321,-4.9627,-4.9721,-4.9974,-5.0182,-5.0278,-5.0207,-5.0316,-5.0741,-5.0403,-5.0544,-5.1446,-5.1123,-5.144,-5.2641,-5.2209,-5.2749,-5.4479,-5.3137,-5.2545,-5.2761,-5.2322,-5.1996,-5.1787,-5.1925,-5.293]}]]